[[{"header":{"parameterUnit":"m.s-1","parameterCategory":1,"la1":31.0,"la2":29.5877,"lo1":-88.7671,"lo2":-86.6584,"dx":0.0162,"dy":0.0185,"nx":115,"ny":88,"refTime":"2022-11-27T18:00:00:Z","depth":0,"parameterNumber":2,"parameterNumberName":"U-component_of_WINDS"},"data":[0.0,0.0,0.0,0.0,0.0,0.0,0.0,0.0,0.0,0.0,0.0,0.0,0.0,0.0,0.0,0.0,0.0,0.0,0.0,0.0,0.0,0.0,0.0,0.0,0.0,0.0,0.0,0.0,0.0,0.0,0.0,0.0,0.0,0.0,0.0,0.0,0.0,0.0,0.0,0.0,0.0,0.0,0.0,0.0,0.0,0.0,0.0,0.0,0.0,0.0,0.0,0.0,0.0,0.0,0.0,0.0,0.0,0.0,0.0,0.0,0.0,0.0,0.0,0.0,0.0,0.0,0.0,0.0,0.0,0.0,0.0,0.0,0.0,0.0,0.0,0.0,0.0,0.0,0.0,0.0,0.0,0.0,0.0,0.0,0.0,0.0,0.0,0.0,0.0,0.0,0.0,0.0,0.0,0.0,0.0,0.0,0.0,0.0,0.0,0.0,0.0,0.0,0.0,0.0,0.0,0.0,0.0,0.0,0.0,0.0,0.0,0.0,0.0,0.0,0.0,0.0,0.0,0.0,0.0,0.0,0.0,0.0,0.0,0.0,0.0,0.0,0.0,0.0,0.0,0.0,0.0,0.0,0.0,0.0,0.0,0.0,0.0,0.0,0.0,0.0,0.0,0.0,0.0,0.0,0.0,0.0,0.0,0.0,0.0,0.0,0.0,0.0,0.0,0.0,0.0,0.0,0.0,0.0,0.0,0.0,0.0,0.0,0.0,0.0,0.0,0.0,0.0,0.0,0.0,0.0,0.0,0.0,0.0,0.0,0.0,0.0,0.0,0.0,0.0,0.0,0.0,0.0,0.0,0.0,0.0,0.0,0.0,0.0,0.0,0.0,0.0,0.0,0.0,0.0,0.0,0.0,0.0,0.0,0.0,0.0,0.0,0.0,0.0,0.0,0.0,0.0,0.0,0.0,0.0,0.0,0.0,0.0,0.0,0.0,0.0,0.0,0.0,0.0,0.0,0.0,0.0,0.0,0.0,0.0,0.0,0.0,0.0,0.0,0.0,0.0,0.0,0.0,0.0,0.0,0.0,0.0,0.0,0.0,0.0,0.0,0.0,0.0,0.0,0.0,0.0,0.0,0.0,0.0,0.0,0.0,0.0,0.0,0.0,0.0,0.0,0.0,0.0,0.0,0.0,0.0,0.0,0.0,0.0,0.0,0.0,0.0,0.0,0.0,0.0,0.0,0.0,0.0,0.0,0.0,0.0,0.0,0.0,0.0,0.0,0.0,0.0,0.0,0.0,0.0,0.0,0.0,0.0,0.0,0.0,0.0,0.0,0.0,0.0,0.0,0.0,0.0,0.0,0.0,0.0,0.0,0.0,0.0,0.0,0.0,0.0,0.0,0.0,0.0,0.0,0.0,0.0,0.0,0.0,0.0,0.0,0.0,0.0,0.0,0.0,0.0,0.0,0.0,0.0,0.0,0.0,0.0,0.0,0.0,0.0,0.0,0.0,0.0,0.0,0.0,0.0,0.0,0.0,0.0,0.0,0.0,0.0,0.0,0.0,0.0,0.0,0.0,0.0,0.0,0.0,0.0,0.0,0.0,0.0,0.0,0.0,0.0,0.0,0.0,0.0,0.0,0.0,0.0,0.0,0.0,0.0,0.0,0.0,0.0,0.0,0.0,0.0,0.0,0.0,0.0,0.0,0.0,0.0,0.0,0.0,0.0,0.0,0.0,0.0,0.0,0.0,0.0,0.0,0.0,0.0,0.0,0.0,0.0,0.0,0.0,0.0,0.0,0.0,0.0,0.0,0.0,0.0,0.0,0.0,0.0,0.0,0.0,0.0,0.0,0.0,0.0,0.0,0.0,0.0,0.0,0.0,0.0,0.0,0.0,0.0,0.0,0.0,0.0,0.0,0.0,0.0,0.0,0.0,0.0,0.0,0.0,0.0,0.0,0.0,0.0,0.0,0.0,0.0,0.0,0.0,0.0,0.0,0.0,0.0,0.0,0.0,0.0,0.0,0.0,0.0,0.0,0.0,0.0,0.0,0.0,0.0,0.0,0.0,0.0,0.0,0.0,0.0,0.0,0.0,0.0,0.0,0.0,0.0,0.0,0.0,0.0,0.0,0.0,0.0,0.0,0.0,0.0,0.0,0.0,0.0,0.0,0.0,0.0,0.0,0.0,0.0,0.0,0.0,0.0,0.0,0.0,0.0,0.0,0.0,0.0,0.0,0.0,0.0,0.0,0.0,0.0,0.0,0.0,0.0,0.0,0.0,0.0,0.0,0.0,0.0,0.0,0.0,0.0,0.0,0.0,0.0,0.0,0.0,0.0,0.0,0.0,0.0,0.0,0.0,0.0,0.0,0.0,0.0,0.0,0.0,0.0,0.0,0.0,0.0,0.0,0.0,0.0,0.0,0.0,0.0,0.0,0.0,0.0,0.0,0.0,0.0,0.0,0.0,0.0,0.0,0.0,0.0,0.0,0.0,0.0,0.0,0.0,0.0,0.0,0.0,0.0,0.0,0.0,0.0,0.0,0.0,0.0,0.0,0.0,0.0,0.0,0.0,0.0,0.0,0.0,0.0,0.0,0.0,0.0,0.0,0.0,0.0,0.0,0.0,0.0,0.0,0.0,0.0,0.0,0.0,0.0,0.0,0.0,0.0,0.0,0.0,0.0,0.0,0.0,0.0,0.0,0.0,0.0,0.0,0.0,0.0,0.0,0.0,0.0,0.0,0.0,0.0,0.0,0.0,0.0,0.0,0.0,0.0,0.0,0.0,0.0,0.0,0.0,0.0,0.0,0.0,0.0,0.0,0.0,0.0,0.0,0.0,0.0,0.0,0.0,0.0,0.0,0.0,0.0,0.0,0.0,0.0,0.0,0.0,0.0,0.0,0.0,0.0,0.0,0.0,0.0,0.0,0.0,0.0,0.0,0.0,0.0,0.0,0.0,0.0,0.0,0.0,0.0,0.0,0.0,0.0,0.0,0.0,0.0,0.0,0.0,0.0,0.0,0.0,0.0,0.0,0.0,0.0,0.0,0.0,0.0,0.0,0.0,0.0,0.0,0.0,0.0,0.0,0.0,0.0,0.0,0.0,0.0,0.0,0.0,0.0,0.0,0.0,0.0,0.0,0.0,0.0,0.0,0.0,0.0,0.0,0.0,0.0,0.0,0.0,0.0,0.0,0.0,0.0,0.0,0.0,0.0,0.0,0.0,0.0,0.0,0.0,0.0,0.0,0.0,0.0,0.0,0.0,0.0,0.0,0.0,0.0,0.0,0.0,0.0,0.0,0.0,0.0,0.0,0.0,0.0,0.0,0.0,0.0,0.0,0.0,0.0,0.0,0.0,0.0,0.0,0.0,0.0,0.0,0.0,0.0,0.0,0.0,0.0,0.0,0.0,0.0,0.0,0.0,0.0,0.0,0.0,0.0,0.0,0.0,0.0,0.0,0.0,0.0,0.0,0.0,0.0,0.0,0.0,0.0,0.0,0.0,0.0,0.0,0.0,0.0,0.0,0.0,0.0,0.0,0.0,0.0,0.0,0.0,0.0,0.0,0.0,0.0,0.0,0.0,0.0,0.0,0.0,0.0,0.0,0.0,0.0,0.0,0.0,0.0,0.0,0.0,0.0,0.0,0.0,0.0,0.0,0.0,0.0,0.0,0.0,0.0,0.0,0.0,0.0,0.0,0.0,0.0,0.0,0.0,0.0,0.0,0.0,0.0,0.0,0.0,0.0,0.0,0.0,0.0,0.0,0.0,0.0,0.0,0.0,0.0,0.0,0.0,0.0,0.0,0.0,0.0,0.0,0.0,0.0,0.0,0.0,0.0,0.0,0.0,0.0,0.0,0.0,0.0,0.0,0.0,0.0,0.0,0.0,0.0,0.0,0.0,0.0,0.0,0.0,0.0,0.0,0.0,0.0,0.0,0.0,0.0,0.0,0.0,0.0,0.0,0.0,0.0,0.0,0.0,0.0,0.0,0.0,0.0,0.0,0.0,0.0,0.0,0.0,0.0,0.0,0.0,0.0,0.0,0.0,0.0,0.0,0.0,0.0,0.0,0.0,0.0,0.0,0.0,0.0,0.0,0.0,0.0,0.0,0.0,0.0,0.0,0.0,0.0,0.0,0.0,0.0,0.0,0.0,0.0,0.0,0.0,0.0,0.0,0.0,0.0,0.0,0.0,0.0,0.0,0.0,0.0,0.0,0.0,0.0,0.0,0.0,0.0,0.0,0.0,0.0,0.0,0.0,0.0,0.0,0.0,0.0,0.0,0.0,0.0,0.0,0.0,0.0,4.7238,0.0,0.0,0.0,4.4818,0.0,0.0,0.0,0.0,0.0,0.0,0.0,0.0,0.0,0.0,0.0,0.0,0.0,0.0,0.0,0.0,0.0,0.0,0.0,0.0,0.0,0.0,0.0,0.0,0.0,0.0,0.0,0.0,0.0,0.0,0.0,0.0,0.0,0.0,0.0,0.0,0.0,0.0,0.0,0.0,0.0,0.0,0.0,0.0,0.0,0.0,0.0,0.0,0.0,0.0,0.0,0.0,0.0,0.0,0.0,0.0,0.0,0.0,0.0,0.0,0.0,0.0,0.0,0.0,0.0,0.0,0.0,0.0,0.0,0.0,0.0,0.0,0.0,0.0,0.0,0.0,0.0,0.0,0.0,0.0,0.0,0.0,0.0,0.0,0.0,0.0,0.0,0.0,0.0,0.0,0.0,0.0,0.0,0.0,0.0,0.0,0.0,0.0,0.0,0.0,0.0,0.0,0.0,0.0,0.0,0.0,0.0,0.0,0.0,0.0,4.7858,4.6391,4.8812,4.8774,4.5853,0.0,0.0,0.0,0.0,0.0,0.0,0.0,0.0,0.0,0.0,0.0,0.0,0.0,0.0,0.0,0.0,0.0,0.0,0.0,0.0,0.0,0.0,0.0,0.0,0.0,0.0,0.0,0.0,0.0,0.0,0.0,0.0,0.0,0.0,0.0,0.0,0.0,0.0,0.0,0.0,0.0,0.0,0.0,0.0,0.0,0.0,0.0,0.0,0.0,0.0,0.0,0.0,0.0,0.0,0.0,0.0,0.0,0.0,0.0,0.0,0.0,0.0,0.0,0.0,0.0,0.0,0.0,0.0,0.0,0.0,0.0,0.0,0.0,0.0,0.0,0.0,0.0,0.0,0.0,0.0,0.0,0.0,0.0,0.0,0.0,0.0,0.0,0.0,0.0,0.0,0.0,0.0,0.0,0.0,0.0,0.0,0.0,0.0,0.0,0.0,0.0,0.0,0.0,0.0,0.0,0.0,0.0,0.0,0.0,0.0,0.0,0.0,5.041,5.0702,4.8063,0.0,0.0,0.0,0.0,0.0,0.0,0.0,0.0,0.0,0.0,0.0,0.0,0.0,0.0,0.0,0.0,0.0,0.0,0.0,0.0,0.0,0.0,0.0,0.0,0.0,0.0,0.0,0.0,0.0,0.0,0.0,0.0,0.0,0.0,0.0,0.0,0.0,0.0,0.0,0.0,0.0,0.0,0.0,0.0,0.0,0.0,0.0,0.0,0.0,0.0,0.0,0.0,0.0,0.0,0.0,0.0,0.0,0.0,0.0,0.0,0.0,0.0,0.0,0.0,0.0,0.0,0.0,0.0,0.0,0.0,0.0,0.0,0.0,0.0,0.0,0.0,0.0,0.0,0.0,0.0,0.0,0.0,0.0,0.0,0.0,0.0,0.0,0.0,0.0,0.0,0.0,0.0,0.0,0.0,0.0,0.0,0.0,0.0,0.0,0.0,0.0,0.0,0.0,0.0,0.0,0.0,0.0,0.0,0.0,0.0,4.727,4.9373,5.1209,0.0,5.0931,0.0,0.0,0.0,0.0,0.0,0.0,0.0,0.0,0.0,0.0,0.0,0.0,0.0,0.0,0.0,0.0,0.0,0.0,0.0,0.0,0.0,0.0,0.0,0.0,0.0,0.0,0.0,0.0,0.0,0.0,0.0,0.0,0.0,0.0,0.0,0.0,0.0,0.0,0.0,0.0,0.0,0.0,0.0,0.0,0.0,0.0,0.0,0.0,0.0,0.0,0.0,0.0,0.0,0.0,0.0,0.0,0.0,0.0,0.0,0.0,0.0,0.0,0.0,0.0,0.0,0.0,0.0,0.0,0.0,0.0,0.0,0.0,0.0,0.0,0.0,0.0,0.0,0.0,0.0,0.0,0.0,0.0,0.0,0.0,0.0,0.0,0.0,0.0,0.0,0.0,0.0,0.0,0.0,0.0,0.0,0.0,0.0,0.0,0.0,0.0,0.0,0.0,0.0,0.0,0.0,0.0,0.0,0.0,0.0,0.0,4.9964,5.1372,5.1908,5.174,0.0,0.0,0.0,0.0,0.0,0.0,0.0,0.0,0.0,0.0,0.0,0.0,0.0,0.0,0.0,0.0,0.0,0.0,0.0,0.0,0.0,0.0,0.0,0.0,0.0,0.0,0.0,0.0,0.0,0.0,0.0,0.0,0.0,0.0,0.0,0.0,0.0,0.0,0.0,0.0,0.0,0.0,0.0,0.0,0.0,0.0,0.0,0.0,0.0,0.0,0.0,0.0,0.0,0.0,0.0,0.0,0.0,0.0,0.0,0.0,0.0,0.0,0.0,0.0,0.0,0.0,0.0,0.0,0.0,0.0,0.0,0.0,0.0,0.0,0.0,0.0,0.0,0.0,0.0,0.0,0.0,0.0,0.0,0.0,0.0,0.0,0.0,0.0,0.0,0.0,0.0,0.0,0.0,0.0,0.0,0.0,0.0,0.0,0.0,0.0,0.0,0.0,0.0,0.0,0.0,0.0,0.0,0.0,0.0,0.0,5.0649,5.2148,5.3496,5.2963,5.2213,5.1345,0.0,0.0,0.0,0.0,0.0,0.0,0.0,0.0,0.0,0.0,0.0,0.0,0.0,0.0,0.0,0.0,0.0,0.0,0.0,0.0,0.0,0.0,0.0,0.0,0.0,0.0,0.0,0.0,0.0,0.0,0.0,0.0,0.0,0.0,0.0,0.0,0.0,0.0,0.0,0.0,0.0,0.0,0.0,0.0,0.0,0.0,0.0,0.0,0.0,0.0,0.0,0.0,0.0,0.0,0.0,0.0,0.0,0.0,0.0,0.0,0.0,0.0,0.0,0.0,0.0,0.0,0.0,0.0,0.0,0.0,0.0,0.0,0.0,0.0,0.0,0.0,0.0,0.0,0.0,0.0,0.0,0.0,0.0,0.0,0.0,0.0,0.0,0.0,0.0,0.0,0.0,0.0,0.0,0.0,0.0,0.0,0.0,0.0,0.0,0.0,0.0,0.0,0.0,0.0,0.0,0.0,0.0,0.0,5.2144,5.1781,5.2958,5.6007,5.4595,5.3842,0.0,0.0,0.0,0.0,0.0,0.0,0.0,0.0,0.0,0.0,0.0,0.0,0.0,0.0,0.0,0.0,0.0,0.0,0.0,0.0,0.0,0.0,0.0,0.0,0.0,0.0,0.0,0.0,0.0,0.0,0.0,0.0,0.0,0.0,0.0,0.0,0.0,0.0,0.0,0.0,0.0,0.0,0.0,0.0,0.0,0.0,0.0,0.0,0.0,0.0,0.0,0.0,0.0,0.0,0.0,0.0,0.0,0.0,0.0,0.0,0.0,0.0,0.0,0.0,0.0,0.0,0.0,0.0,0.0,0.0,0.0,0.0,0.0,0.0,0.0,0.0,0.0,0.0,0.0,0.0,0.0,0.0,0.0,0.0,0.0,0.0,0.0,0.0,0.0,0.0,0.0,0.0,0.0,0.0,0.0,0.0,0.0,0.0,0.0,0.0,0.0,0.0,0.0,0.0,0.0,0.0,0.0,0.0,0.0,5.2284,5.4429,5.6591,5.8647,5.7113,5.606,0.0,0.0,0.0,0.0,0.0,0.0,0.0,0.0,0.0,0.0,0.0,0.0,0.0,0.0,0.0,0.0,0.0,0.0,0.0,0.0,0.0,0.0,0.0,0.0,0.0,0.0,0.0,0.0,0.0,0.0,0.0,0.0,0.0,0.0,0.0,0.0,0.0,0.0,0.0,0.0,0.0,0.0,0.0,0.0,0.0,0.0,0.0,0.0,0.0,0.0,0.0,0.0,0.0,0.0,0.0,0.0,0.0,0.0,0.0,0.0,0.0,0.0,0.0,0.0,0.0,0.0,0.0,0.0,0.0,0.0,0.0,0.0,0.0,0.0,0.0,0.0,0.0,0.0,0.0,0.0,0.0,0.0,0.0,0.0,0.0,0.0,0.0,0.0,0.0,0.0,0.0,0.0,0.0,0.0,0.0,0.0,0.0,0.0,0.0,0.0,0.0,0.0,0.0,0.0,0.0,0.0,0.0,0.0,0.0,5.466,5.7716,5.9745,6.0442,5.9064,5.7752,0.0,0.0,0.0,0.0,0.0,0.0,0.0,0.0,0.0,0.0,0.0,0.0,0.0,0.0,0.0,0.0,0.0,0.0,0.0,0.0,0.0,0.0,0.0,0.0,0.0,0.0,0.0,0.0,0.0,0.0,0.0,0.0,0.0,0.0,0.0,0.0,0.0,0.0,0.0,0.0,0.0,0.0,0.0,0.0,0.0,0.0,0.0,0.0,0.0,0.0,0.0,0.0,0.0,0.0,0.0,0.0,0.0,0.0,0.0,0.0,0.0,0.0,0.0,0.0,0.0,0.0,0.0,0.0,0.0,0.0,0.0,0.0,0.0,0.0,0.0,0.0,0.0,0.0,0.0,0.0,0.0,0.0,0.0,0.0,0.0,0.0,0.0,0.0,0.0,0.0,0.0,0.0,0.0,0.0,0.0,0.0,0.0,0.0,0.0,0.0,0.0,0.0,0.0,0.0,0.0,0.0,0.0,0.0,5.5067,5.9605,6.1426,6.1974,6.1246,6.0349,5.8804,0.0,0.0,0.0,0.0,0.0,0.0,0.0,0.0,0.0,0.0,0.0,0.0,0.0,0.0,0.0,0.0,0.0,0.0,0.0,0.0,0.0,0.0,0.0,0.0,0.0,0.0,0.0,0.0,0.0,0.0,0.0,0.0,0.0,0.0,0.0,0.0,0.0,0.0,0.0,0.0,0.0,0.0,0.0,0.0,0.0,0.0,0.0,0.0,0.0,0.0,0.0,0.0,0.0,0.0,0.0,0.0,0.0,0.0,0.0,0.0,0.0,0.0,0.0,0.0,0.0,0.0,0.0,0.0,0.0,0.0,0.0,0.0,0.0,0.0,0.0,0.0,0.0,0.0,0.0,0.0,0.0,0.0,0.0,0.0,0.0,0.0,0.0,0.0,0.0,0.0,0.0,0.0,0.0,0.0,0.0,0.0,0.0,0.0,0.0,0.0,0.0,0.0,0.0,0.0,0.0,0.0,0.0,0.0,0.0,5.8674,6.2172,6.3501,6.242,6.1364,6.0173,0.0,0.0,0.0,0.0,0.0,0.0,0.0,0.0,0.0,0.0,0.0,0.0,0.0,0.0,0.0,0.0,0.0,0.0,0.0,0.0,0.0,0.0,0.0,0.0,0.0,0.0,0.0,0.0,0.0,0.0,0.0,0.0,0.0,0.0,0.0,0.0,0.0,0.0,0.0,0.0,0.0,0.0,0.0,0.0,0.0,0.0,0.0,0.0,0.0,0.0,0.0,0.0,0.0,0.0,0.0,0.0,0.0,0.0,0.0,0.0,0.0,0.0,0.0,0.0,0.0,0.0,0.0,0.0,0.0,0.0,0.0,0.0,0.0,0.0,0.0,0.0,0.0,0.0,0.0,0.0,0.0,0.0,0.0,0.0,0.0,0.0,0.0,0.0,0.0,0.0,0.0,0.0,0.0,0.0,0.0,0.0,0.0,0.0,0.0,0.0,0.0,0.0,0.0,0.0,0.0,0.0,0.0,0.0,0.0,6.2122,6.5282,6.6573,6.5479,6.3576,6.185,6.0364,0.0,0.0,0.0,0.0,0.0,0.0,0.0,0.0,0.0,0.0,0.0,0.0,0.0,0.0,0.0,0.0,0.0,0.0,0.0,0.0,0.0,0.0,0.0,0.0,0.0,0.0,0.0,0.0,0.0,0.0,0.0,0.0,0.0,0.0,0.0,0.0,0.0,0.0,0.0,0.0,0.0,0.0,0.0,0.0,0.0,0.0,0.0,0.0,0.0,0.0,0.0,0.0,0.0,0.0,0.0,0.0,0.0,0.0,0.0,0.0,0.0,0.0,0.0,0.0,0.0,0.0,0.0,0.0,0.0,0.0,0.0,0.0,0.0,0.0,0.0,0.0,0.0,0.0,0.0,0.0,0.0,0.0,0.0,0.0,0.0,0.0,0.0,0.0,0.0,0.0,0.0,0.0,0.0,0.0,0.0,0.0,0.0,0.0,0.0,0.0,0.0,0.0,0.0,0.0,0.0,0.0,0.0,0.0,6.8531,7.0165,7.0574,6.9688,6.6599,6.3813,0.0,0.0,0.0,0.0,0.0,0.0,0.0,0.0,0.0,0.0,0.0,0.0,0.0,0.0,0.0,0.0,0.0,0.0,0.0,0.0,0.0,0.0,0.0,0.0,0.0,0.0,0.0,0.0,0.0,0.0,0.0,0.0,0.0,0.0,0.0,0.0,0.0,0.0,0.0,0.0,0.0,0.0,0.0,0.0,0.0,0.0,0.0,0.0,0.0,0.0,0.0,0.0,0.0,0.0,0.0,0.0,0.0,0.0,0.0,0.0,0.0,0.0,0.0,0.0,0.0,0.0,0.0,0.0,0.0,0.0,0.0,0.0,0.0,0.0,0.0,0.0,0.0,0.0,0.0,0.0,0.0,0.0,0.0,0.0,0.0,0.0,0.0,0.0,0.0,0.0,0.0,0.0,0.0,0.0,0.0,0.0,0.0,0.0,0.0,0.0,0.0,0.0,0.0,0.0,0.0,0.0,0.0,0.0,0.0,6.9385,7.1589,7.2035,7.0604,6.8011,6.5788,0.0,0.0,0.0,0.0,0.0,0.0,0.0,0.0,0.0,0.0,0.0,0.0,0.0,0.0,0.0,0.0,0.0,0.0,0.0,0.0,0.0,0.0,0.0,0.0,0.0,0.0,0.0,0.0,0.0,0.0,0.0,0.0,0.0,0.0,0.0,0.0,0.0,0.0,0.0,0.0,0.0,0.0,0.0,0.0,0.0,0.0,0.0,0.0,0.0,0.0,0.0,0.0,0.0,0.0,0.0,0.0,0.0,0.0,0.0,0.0,0.0,0.0,0.0,0.0,0.0,0.0,0.0,0.0,0.0,0.0,0.0,0.0,0.0,0.0,0.0,0.0,0.0,0.0,0.0,0.0,0.0,0.0,0.0,0.0,0.0,0.0,0.0,0.0,0.0,0.0,0.0,0.0,0.0,0.0,0.0,0.0,0.0,0.0,0.0,0.0,0.0,0.0,0.0,0.0,0.0,0.0,0.0,0.0,7.032,7.2214,7.367,7.3936,7.2994,6.9942,6.7379,0.0,0.0,0.0,0.0,0.0,0.0,0.0,0.0,0.0,0.0,0.0,0.0,0.0,0.0,0.0,0.0,0.0,0.0,0.0,0.0,0.0,0.0,0.0,0.0,0.0,0.0,0.0,0.0,0.0,0.0,0.0,0.0,0.0,0.0,0.0,0.0,0.0,0.0,0.0,0.0,0.0,0.0,0.0,0.0,0.0,0.0,0.0,0.0,0.0,0.0,0.0,0.0,0.0,0.0,0.0,0.0,0.0,0.0,0.0,0.0,0.0,0.0,0.0,0.0,0.0,0.0,0.0,0.0,0.0,0.0,0.0,0.0,0.0,0.0,0.0,0.0,0.0,0.0,0.0,0.0,0.0,0.0,0.0,0.0,0.0,0.0,0.0,0.0,0.0,0.0,0.0,0.0,0.0,0.0,0.0,0.0,0.0,0.0,0.0,0.0,0.0,0.0,0.0,0.0,0.0,0.0,0.0,0.0,7.3311,7.5615,7.5757,7.5794,7.5682,7.1991,6.8791,0.0,0.0,0.0,0.0,0.0,0.0,0.0,0.0,0.0,0.0,0.0,0.0,0.0,0.0,0.0,0.0,0.0,0.0,0.0,0.0,0.0,0.0,0.0,0.0,0.0,0.0,0.0,0.0,0.0,0.0,0.0,0.0,0.0,0.0,0.0,0.0,0.0,0.0,0.0,0.0,0.0,0.0,0.0,0.0,0.0,0.0,0.0,0.0,0.0,0.0,0.0,0.0,0.0,0.0,0.0,0.0,0.0,0.0,0.0,0.0,0.0,0.0,0.0,0.0,0.0,0.0,0.0,0.0,0.0,0.0,0.0,0.0,0.0,0.0,0.0,0.0,0.0,0.0,0.0,0.0,0.0,0.0,0.0,0.0,0.0,0.0,0.0,0.0,0.0,0.0,0.0,0.0,0.0,0.0,0.0,0.0,0.0,0.0,0.0,0.0,0.0,0.0,0.0,0.0,0.0,0.0,0.0,0.0,7.3051,7.4791,7.5459,7.5794,7.5794,7.3119,7.0221,0.0,0.0,0.0,0.0,0.0,0.0,0.0,0.0,0.0,0.0,0.0,0.0,0.0,0.0,0.0,0.0,0.0,0.0,0.0,0.0,0.0,0.0,0.0,0.0,0.0,0.0,0.0,0.0,0.0,0.0,0.0,0.0,0.0,0.0,0.0,0.0,0.0,0.0,0.0,0.0,0.0,0.0,0.0,0.0,0.0,0.0,0.0,0.0,5.7896,0.0,0.0,0.0,0.0,0.0,0.0,0.0,0.0,0.0,0.0,0.0,0.0,0.0,0.0,0.0,0.0,0.0,0.0,0.0,0.0,0.0,0.0,0.0,0.0,0.0,0.0,0.0,0.0,0.0,0.0,0.0,0.0,0.0,0.0,0.0,0.0,0.0,0.0,0.0,0.0,0.0,0.0,0.0,0.0,0.0,0.0,0.0,0.0,0.0,0.0,0.0,0.0,0.0,0.0,0.0,0.0,0.0,0.0,0.0,7.5095,7.6321,7.7138,7.7361,7.6946,7.4983,7.2184,0.0,0.0,0.0,0.0,0.0,0.0,0.0,0.0,0.0,0.0,0.0,0.0,0.0,0.0,0.0,0.0,0.0,0.0,0.0,0.0,0.0,0.0,0.0,0.0,0.0,0.0,0.0,0.0,0.0,0.0,0.0,0.0,0.0,0.0,0.0,0.0,0.0,0.0,0.0,0.0,0.0,0.0,0.0,0.0,0.0,0.0,0.0,0.0,0.0,0.0,0.0,0.0,0.0,0.0,0.0,0.0,0.0,0.0,0.0,0.0,0.0,0.0,0.0,0.0,0.0,0.0,0.0,0.0,0.0,0.0,0.0,0.0,0.0,0.0,0.0,0.0,0.0,0.0,0.0,0.0,0.0,0.0,0.0,0.0,0.0,0.0,0.0,0.0,0.0,0.0,0.0,0.0,0.0,0.0,0.0,0.0,0.0,0.0,0.0,0.0,0.0,0.0,0.0,0.0,0.0,0.0,0.0,7.4642,7.7435,7.8469,7.9145,7.9249,7.8655,7.6952,7.4159,7.0202,0.0,0.0,0.0,0.0,0.0,0.0,0.0,0.0,0.0,0.0,0.0,0.0,0.0,0.0,0.0,0.0,0.0,0.0,0.0,0.0,0.0,0.0,0.0,0.0,0.0,0.0,0.0,0.0,0.0,0.0,0.0,0.0,0.0,0.0,0.0,0.0,0.0,0.0,5.3209,5.5248,0.0,0.0,0.0,0.0,0.0,0.0,0.0,0.0,6.0822,0.0,0.0,0.0,0.0,0.0,0.0,0.0,0.0,0.0,0.0,0.0,0.0,0.0,0.0,0.0,0.0,0.0,0.0,0.0,0.0,0.0,0.0,0.0,0.0,0.0,0.0,0.0,0.0,0.0,0.0,0.0,0.0,0.0,0.0,0.0,0.0,0.0,0.0,0.0,0.0,0.0,0.0,0.0,0.0,0.0,0.0,0.0,0.0,0.0,0.0,0.0,0.0,0.0,0.0,0.0,0.0,7.2754,7.4902,7.7064,7.9249,7.9442,7.9769,8.0215,7.806,7.528,7.1862,0.0,0.0,0.0,0.0,0.0,0.0,0.0,0.0,0.0,0.0,0.0,0.0,0.0,0.0,0.0,0.0,0.0,0.0,0.0,0.0,0.0,0.0,0.0,0.0,0.0,0.0,0.0,0.0,0.0,0.0,0.0,0.0,0.0,0.0,0.0,0.0,0.0,0.0,0.0,6.039,6.096,0.0,0.0,0.0,0.0,0.0,0.0,0.0,0.0,6.2582,0.0,0.0,0.0,0.0,0.0,0.0,0.0,0.0,0.0,0.0,0.0,0.0,0.0,0.0,0.0,0.0,0.0,0.0,0.0,0.0,0.0,0.0,0.0,0.0,0.0,0.0,0.0,0.0,0.0,0.0,0.0,0.0,0.0,0.0,0.0,0.0,0.0,0.0,0.0,0.0,0.0,0.0,0.0,0.0,0.0,0.0,0.0,0.0,0.0,0.0,0.0,0.0,0.0,0.0,0.0,7.346,7.7101,7.9806,8.1367,8.1441,8.1404,8.133,7.8587,7.5584,0.0,0.0,0.0,0.0,0.0,0.0,0.0,0.0,0.0,0.0,0.0,0.0,0.0,0.0,0.0,0.0,0.0,0.0,0.0,0.0,0.0,0.0,0.0,0.0,0.0,0.0,0.0,0.0,0.0,0.0,0.0,0.0,0.0,0.0,0.0,0.0,0.0,0.0,0.0,0.0,6.2005,6.3079,6.6724,0.0,0.0,0.0,0.0,0.0,0.0,6.5118,6.3828,0.0,0.0,0.0,0.0,0.0,0.0,0.0,0.0,0.0,0.0,0.0,0.0,0.0,0.0,0.0,0.0,0.0,0.0,0.0,0.0,0.0,0.0,0.0,0.0,0.0,0.0,0.0,0.0,0.0,0.0,0.0,0.0,0.0,0.0,0.0,0.0,0.0,0.0,0.0,0.0,0.0,0.0,0.0,0.0,0.0,0.0,0.0,0.0,0.0,0.0,0.0,0.0,0.0,0.0,0.0,7.3794,7.9145,8.2489,8.341,8.3299,8.2965,8.2444,7.9293,7.6098,0.0,0.0,0.0,0.0,0.0,0.0,0.0,0.0,0.0,0.0,0.0,0.0,0.0,0.0,0.0,0.0,0.0,0.0,0.0,0.0,0.0,0.0,0.0,0.0,0.0,0.0,0.0,0.0,0.0,0.0,0.0,0.0,0.0,0.0,0.0,0.0,0.0,0.0,0.0,0.0,0.0,6.5126,6.8214,7.1922,0.0,0.0,0.0,0.0,6.856,6.6805,0.0,0.0,0.0,0.0,0.0,0.0,0.0,0.0,0.0,0.0,0.0,0.0,0.0,0.0,0.0,0.0,0.0,0.0,0.0,0.0,0.0,0.0,0.0,0.0,0.0,0.0,0.0,0.0,0.0,0.0,0.0,0.0,0.0,0.0,0.0,0.0,0.0,0.0,0.0,0.0,0.0,0.0,0.0,0.0,0.0,0.0,0.0,0.0,0.0,0.0,0.0,0.0,0.0,0.0,0.0,0.0,7.4612,7.9442,8.2742,8.4153,8.3559,8.3485,8.4042,8.0921,7.7986,0.0,0.0,0.0,0.0,0.0,0.0,0.0,0.0,0.0,0.0,0.0,0.0,0.0,0.0,0.0,0.0,0.0,0.0,0.0,0.0,0.0,0.0,0.0,0.0,0.0,0.0,0.0,0.0,0.0,0.0,0.0,0.0,0.0,0.0,0.0,0.0,0.0,0.0,0.0,0.0,0.0,6.8112,6.751,7.1915,7.3567,0.0,0.0,7.5379,7.2499,7.1846,0.0,0.0,0.0,0.0,0.0,0.0,0.0,0.0,0.0,0.0,0.0,0.0,0.0,0.0,0.0,0.0,0.0,0.0,0.0,0.0,0.0,0.0,0.0,0.0,0.0,0.0,0.0,0.0,0.0,0.0,0.0,0.0,0.0,0.0,0.0,0.0,0.0,0.0,0.0,0.0,0.0,0.0,0.0,0.0,0.0,0.0,0.0,0.0,0.0,0.0,0.0,0.0,0.0,0.0,0.0,7.4723,7.6135,8.0891,8.4116,8.5669,8.5409,8.5194,8.5075,8.237,7.9546,0.0,0.0,0.0,0.0,0.0,0.0,0.0,0.0,0.0,0.0,0.0,0.0,0.0,0.0,0.0,0.0,0.0,0.0,0.0,0.0,0.0,0.0,0.0,0.0,0.0,0.0,0.0,0.0,0.0,0.0,0.0,0.0,0.0,0.0,0.0,0.0,0.0,0.0,0.0,0.0,0.0,0.0,7.0265,7.3597,0.0,0.0,0.0,7.6754,7.3533,0.0,0.0,0.0,0.0,0.0,0.0,0.0,0.0,0.0,0.0,0.0,0.0,0.0,0.0,0.0,0.0,0.0,0.0,0.0,0.0,0.0,0.0,0.0,0.0,0.0,0.0,0.0,0.0,0.0,0.0,0.0,0.0,0.0,0.0,0.0,0.0,0.0,0.0,0.0,0.0,0.0,0.0,0.0,0.0,0.0,0.0,0.0,0.0,0.0,0.0,0.0,0.0,0.0,0.0,0.0,0.0,0.0,7.7175,8.2519,8.5818,8.6747,8.6784,8.6524,8.59,8.3559,0.0,0.0,0.0,0.0,0.0,0.0,0.0,0.0,0.0,0.0,0.0,0.0,0.0,0.0,0.0,0.0,0.0,0.0,0.0,0.0,0.0,0.0,0.0,0.0,0.0,0.0,0.0,4.8481,0.0,0.0,0.0,0.0,0.0,0.0,0.0,0.0,0.0,0.0,0.0,0.0,0.0,0.0,6.719,7.2242,7.4598,7.5501,0.0,0.0,7.7472,7.5202,7.4243,7.3707,0.0,0.0,0.0,0.0,0.0,0.0,0.0,0.0,0.0,0.0,0.0,0.0,0.0,0.0,0.0,0.0,0.0,0.0,0.0,0.0,0.0,0.0,0.0,0.0,0.0,0.0,0.0,0.0,0.0,0.0,0.0,0.0,0.0,0.0,0.0,0.0,0.0,0.0,0.0,0.0,0.0,0.0,0.0,0.0,0.0,0.0,0.0,0.0,0.0,0.0,0.0,0.0,0.0,0.0,7.8469,7.7398,8.4191,8.7497,8.6858,8.6784,8.6784,8.6672,8.4376,8.2675,0.0,0.0,0.0,0.0,0.0,0.0,0.0,0.0,0.0,0.0,0.0,0.0,0.0,0.0,0.0,0.0,0.0,0.0,0.0,0.0,0.0,0.0,0.0,0.0,0.0,0.0,0.0,0.0,0.0,0.0,0.0,0.0,0.0,0.0,0.0,0.0,0.0,0.0,0.0,0.0,0.0,6.9471,7.1441,7.3798,7.5442,0.0,7.6917,7.8091,7.8952,7.7808,7.679,7.6787,0.0,0.0,0.0,0.0,0.0,0.0,0.0,0.0,0.0,0.0,0.0,0.0,0.0,0.0,0.0,0.0,0.0,0.0,0.0,0.0,0.0,0.0,0.0,0.0,0.0,0.0,0.0,0.0,0.0,0.0,0.0,0.0,0.0,0.0,0.0,0.0,0.0,0.0,0.0,0.0,0.0,0.0,0.0,0.0,0.0,0.0,0.0,0.0,0.0,0.0,0.0,0.0,0.0,7.8952,7.9361,8.4562,8.7638,8.8278,8.7869,8.7832,8.8315,8.6449,8.5045,0.0,0.0,0.0,0.0,0.0,0.0,0.0,0.0,0.0,0.0,0.0,0.0,0.0,0.0,0.0,0.0,0.0,0.0,0.0,0.0,0.0,0.0,0.0,0.0,0.0,0.0,0.0,0.0,5.8581,5.9027,5.8321,0.0,0.0,0.0,0.0,0.0,0.0,0.0,0.0,0.0,0.0,7.1263,7.4141,7.5869,0.0,0.0,7.9508,8.027,8.0939,8.0067,7.9509,8.0036,7.8729,0.0,0.0,0.0,0.0,0.0,0.0,0.0,0.0,0.0,0.0,0.0,0.0,0.0,0.0,0.0,0.0,0.0,0.0,0.0,0.0,0.0,0.0,0.0,0.0,0.0,0.0,0.0,0.0,0.0,0.0,0.0,0.0,0.0,0.0,0.0,0.0,0.0,0.0,0.0,0.0,0.0,0.0,0.0,0.0,0.0,0.0,0.0,0.0,0.0,0.0,0.0,0.0,8.0045,8.0656,8.4941,8.7838,8.9164,8.8692,8.8723,8.9236,8.8111,8.6966,0.0,0.0,0.0,0.0,0.0,0.0,0.0,0.0,0.0,0.0,0.0,0.0,0.0,0.0,0.0,0.0,0.0,0.0,0.0,0.0,0.0,0.0,0.0,0.0,0.0,0.0,0.0,0.0,6.0736,6.1739,6.1325,0.0,0.0,0.0,0.0,0.0,0.0,0.0,0.0,0.0,0.0,7.3569,7.686,7.7909,7.8996,8.0792,8.1563,8.2203,8.2956,8.237,8.2073,8.2927,0.0,0.0,0.0,0.0,0.0,0.0,0.0,0.0,0.0,0.0,0.0,0.0,0.0,0.0,0.0,0.0,0.0,0.0,0.0,0.0,0.0,0.0,0.0,0.0,0.0,0.0,0.0,5.6731,0.0,0.0,5.5866,0.0,0.0,0.0,0.0,0.0,0.0,0.0,0.0,0.0,0.0,0.0,0.0,0.0,0.0,0.0,0.0,0.0,0.0,0.0,0.0,0.0,0.0,8.2245,8.0637,8.5585,8.8369,8.8987,8.9185,8.9265,8.9294,8.9068,8.8201,8.6601,0.0,0.0,0.0,0.0,0.0,0.0,0.0,0.0,0.0,0.0,0.0,0.0,0.0,0.0,0.0,0.0,0.0,0.0,0.0,0.0,0.0,0.0,0.0,0.0,0.0,0.0,5.4829,5.9807,6.4519,0.0,0.0,0.0,0.0,0.0,0.0,0.0,0.0,0.0,7.63,7.626,7.6618,7.9091,7.9493,8.0176,8.182,8.2689,8.3693,8.5231,8.4859,8.4599,0.0,0.0,0.0,0.0,0.0,0.0,0.0,0.0,0.0,0.0,0.0,0.0,0.0,0.0,0.0,0.0,0.0,0.0,0.0,0.0,0.0,0.0,0.0,0.0,0.0,0.0,0.0,6.2855,6.4006,0.0,0.0,0.0,0.0,0.0,0.0,0.0,0.0,0.0,0.0,0.0,7.4196,7.6602,0.0,0.0,0.0,0.0,0.0,0.0,0.0,0.0,0.0,0.0,0.0,0.0,8.4242,8.3963,8.7433,8.9198,8.8898,8.8939,8.9223,8.9741,8.8618,8.7513,8.6441,0.0,0.0,0.0,0.0,0.0,0.0,0.0,0.0,0.0,0.0,0.0,0.0,0.0,0.0,0.0,0.0,0.0,0.0,0.0,0.0,0.0,0.0,0.0,0.0,0.0,6.3182,0.0,0.0,0.0,0.0,0.0,0.0,0.0,0.0,0.0,0.0,7.3565,7.6017,7.7689,7.907,8.0408,8.1776,8.2407,8.3343,0.0,0.0,0.0,0.0,0.0,0.0,0.0,0.0,0.0,0.0,0.0,0.0,0.0,0.0,8.1604,7.9435,7.8629,7.8267,7.8269,0.0,0.0,0.0,0.0,0.0,0.0,0.0,0.0,0.0,0.0,0.0,0.0,0.0,0.0,6.8568,6.972,6.9493,0.0,0.0,0.0,0.0,0.0,0.0,0.0,0.0,7.7216,7.866,7.8195,8.0318,8.1194,8.0958,8.0966,7.9487,0.0,0.0,0.0,0.0,0.0,0.0,0.0,0.0,8.625,8.6142,8.8659,8.9836,8.9563,8.9606,8.9898,9.0378,8.9027,8.7886,8.7083,8.5996,8.4511,0.0,0.0,0.0,0.0,0.0,0.0,0.0,0.0,0.0,0.0,0.0,0.0,0.0,0.0,0.0,0.0,0.0,0.0,0.0,0.0,0.0,0.0,0.0,6.7979,0.0,0.0,0.0,0.0,0.0,0.0,0.0,0.0,0.0,7.3906,7.6507,7.9033,7.9918,8.1664,8.3232,8.4302,0.0,0.0,0.0,0.0,0.0,0.0,0.0,8.824,8.7378,8.7007,8.6635,8.6115,8.5781,8.5528,8.5268,0.0,0.0,8.2779,8.1926,8.1555,8.1575,8.0958,8.0661,8.1404,8.2036,8.2816,0.0,0.0,0.0,0.0,7.2275,0.0,0.0,0.0,7.3406,7.3266,0.0,7.3303,0.0,0.0,0.0,0.0,7.3159,7.5925,0.0,0.0,8.1847,8.3389,8.3389,8.3426,8.3866,8.4646,8.4646,8.4288,8.359,8.3079,0.0,0.0,0.0,0.0,0.0,0.0,8.8222,8.7325,8.9078,9.0304,9.0766,9.1042,9.1128,9.1091,9.0181,8.9284,8.8483,8.694,8.5423,8.3933,7.9579,0.0,0.0,0.0,0.0,0.0,0.0,0.0,0.0,0.0,0.0,0.0,0.0,0.0,0.0,0.0,0.0,0.0,0.0,0.0,0.0,6.7379,0.0,0.0,0.0,0.0,0.0,0.0,0.0,0.0,0.0,8.2259,7.6797,7.8246,8.0587,8.2927,0.0,0.0,0.0,0.0,8.6004,8.6858,8.7638,8.8166,8.8166,8.8872,8.9095,8.8278,0.0,0.0,8.6858,8.6189,8.5974,8.6672,8.6226,8.5669,8.5677,8.4323,8.3306,8.3344,8.3856,8.4153,8.367,8.4711,8.5966,7.7847,0.0,0.0,0.0,0.0,7.5168,7.6416,7.8413,7.8508,7.9352,8.06,8.038,0.0,0.0,0.0,0.0,0.0,0.0,7.9861,8.1223,8.2129,8.3471,8.5094,8.5123,8.5518,8.6325,8.6885,8.6755,8.6063,8.6445,8.6331,8.5815,0.0,0.0,0.0,0.0,8.883,8.829,8.9648,9.0239,8.981,9.0423,9.0487,8.9935,8.9662,8.9121,8.833,8.7835,8.6617,8.4633,8.3245,0.0,0.0,0.0,0.0,0.0,0.0,0.0,0.0,0.0,0.0,0.0,0.0,0.0,0.0,0.0,0.0,0.0,0.0,0.0,7.0815,7.4716,7.832,0.0,0.0,0.0,0.0,0.0,0.0,0.0,0.0,0.0,8.1478,8.2704,8.4116,0.0,0.0,8.6494,8.7572,8.8017,8.853,8.931,8.9652,0.0,8.9838,9.0499,9.0536,8.9161,8.8278,8.7712,8.772,8.7534,8.746,8.7712,8.7534,8.7386,8.7267,8.6029,8.5204,8.5631,8.5966,8.6264,8.668,8.7973,8.8976,8.149,7.9599,7.8675,7.8398,7.8552,7.9022,8.0167,8.1754,8.2215,8.2994,8.3903,8.4233,8.4095,8.3589,8.2957,0.0,0.0,0.0,8.2084,8.3626,8.3948,8.4903,8.6261,8.66,8.6995,8.75,8.8307,8.8601,8.8418,8.894,8.9368,8.9661,0.0,8.9193,9.022,9.0332,9.0159,8.9879,9.0655,9.084,9.0363,9.084,9.0693,8.9913,9.0179,8.9665,8.828,8.883,8.8057,8.5792,8.5417,8.4408,0.0,0.0,0.0,0.0,0.0,0.0,0.0,0.0,0.0,0.0,0.0,6.5596,6.5788,0.0,0.0,0.0,7.4568,7.5453,7.754,8.0698,0.0,0.0,0.0,0.0,0.0,0.0,0.0,8.0364,8.3893,8.6123,8.4822,8.5751,8.6457,8.6115,8.6791,8.7497,8.8017,0.0,8.9459,8.9942,9.0276,9.0499,9.0499,9.0907,9.087,8.9942,8.9384,8.9058,8.9058,8.9058,8.9058,8.9058,8.9068,8.9054,8.9066,8.8199,8.7558,8.7763,8.8047,8.853,8.9347,9.0313,9.0907,8.3473,8.3229,8.1234,8.1203,8.2451,8.248,8.3361,8.4747,8.4792,8.4784,8.4866,8.5637,8.6012,8.6012,8.4527,0.0,8.3793,8.3793,8.4564,8.6012,8.6766,8.7133,8.7206,8.7949,8.8316,8.8316,8.9115,8.984,9.0436,9.0546,9.1391,9.2794,9.0611,8.9877,9.0693,9.1363,9.1702,9.1693,9.1693,9.173,9.1812,9.1812,9.1436,9.073,9.1363,9.0665,8.8582,8.9812,8.9555,8.7427,8.6646,8.5626,8.4224,0.0,0.0,0.0,0.0,0.0,0.0,0.0,0.0,0.0,0.0,0.0,0.0,0.0,0.0,7.8729,8.0928,0.0,8.4191,8.5149,0.0,0.0,0.0,8.6524,8.5863,8.6375,8.6271,8.4859,0.0,0.0,8.7081,8.7757,8.8017,8.7192,8.772,8.824,8.8344,8.9095,8.9504,8.9764,9.0239,9.0722,9.0833,9.0796,9.0722,9.061,9.0536,9.0395,9.0387,9.0424,9.0462,9.0387,9.0469,9.0442,9.0486,9.0379,9.0379,8.9719,9.0024,9.0647,9.1353,9.1688,9.2022,8.4742,8.4221,8.497,8.5159,8.4948,8.4948,8.549,8.6399,8.6436,8.6436,8.6472,8.7252,8.7986,8.8519,8.8152,8.7647,8.7068,8.706,8.7252,8.7619,8.7839,8.8234,8.8812,8.9033,8.9115,8.9143,8.9913,9.0097,8.973,9.0289,9.0812,9.1134,9.0574,9.0739,9.1473,9.1106,9.0877,9.0886,9.0886,9.1179,9.1776,9.1812,9.1702,9.1546,9.1097,9.062,9.0069,9.0408,9.0326,8.9739,8.8995,8.8752,8.9128,8.6615,0.0,0.0,0.0,0.0,0.0,0.0,0.0,0.0,0.0,7.6238,7.7378,0.0,8.208,0.0,8.4042,8.4414,8.3559,8.5298,0.0,0.0,8.6784,8.7014,8.746,8.7089,8.6895,8.72,8.8278,8.8946,8.8716,8.9429,8.9867,8.9644,8.9244,8.9466,9.061,9.0982,9.139,9.191,9.2179,9.2402,9.2319,9.1836,9.1428,9.1428,9.0907,9.0499,9.0499,9.0499,9.0499,9.0499,9.0494,9.0502,9.0618,9.097,9.1631,9.1894,9.1279,9.0722,9.1539,9.2245,9.2951,8.5264,8.4925,8.6296,8.661,8.6232,8.6661,8.7316,8.8042,8.8078,8.8078,8.8115,8.8904,8.9519,8.9922,8.9913,8.9519,8.8748,8.8711,8.8711,8.8748,8.9124,8.9298,8.9436,9.0143,9.0289,8.9996,9.1134,9.1501,9.1134,9.1877,9.2244,9.2244,9.2244,9.2464,9.284,9.173,9.151,9.2244,9.2244,9.2464,9.2905,9.2914,9.3097,9.3428,9.2317,9.1721,9.1684,9.1023,9.095,9.1647,9.0913,9.0885,9.1764,8.9884,8.9515,0.0,0.0,0.0,0.0,0.0,0.0,0.0,0.0,0.0,0.0,0.0,8.5937,8.6048,8.6457,8.6197,8.4934,8.6672,8.7787,8.7415,8.7712,8.8092,8.8612,8.8195,8.8092,8.8567,8.9347,8.9681,8.9384,9.0016,9.0647,9.0982,9.0647,9.0536,9.1056,9.1465,9.1873,9.2356,9.2765,9.2988,9.2988,9.2914,9.2691,9.2356,9.2208,9.2133,9.2171,9.2468,9.2765,9.3145,9.3219,9.3363,9.3719,9.4114,9.4646,9.4866,9.4437,9.3879,9.3879,9.4251,9.4845,8.5248,8.5236,8.626,8.6685,8.6752,8.7742,8.8581,8.922,8.9355,8.9473,8.9583,9.0289,9.0656,9.073,9.0776,9.0326,8.9546,8.9546,8.9546,8.9583,9.04,9.0436,8.995,9.14,9.1767,9.1134,9.2574,9.3272,9.3262,9.3942,9.4309,9.4309,9.4309,9.4345,9.4373,9.2914,9.284,9.4272,9.4419,9.4456,9.4456,9.4456,9.4786,9.5383,9.4042,9.3299,9.3336,9.1794,9.1693,9.3226,9.2391,9.2207,9.3005,9.2418,9.1517,0.0,8.9596,0.0,0.0,0.0,0.0,0.0,0.0,0.0,0.0,8.8899,8.9063,8.8575,8.8381,8.798,8.7341,8.8588,8.913,8.8506,8.8989,8.939,8.939,8.9451,8.9459,8.9459,9.0164,9.0424,8.9987,9.0462,9.1279,9.2096,9.2282,9.2096,9.1428,9.1799,9.2171,9.2022,9.2728,9.3471,9.3508,9.3917,9.4065,9.3545,9.3962,9.4474,9.4437,9.5105,9.5886,9.6489,9.6513,9.6878,9.7741,9.7754,9.784,9.78,9.7743,9.752,9.6963,9.6814,9.7186,8.4891,8.4407,8.5998,8.6661,8.6709,8.7578,8.8091,8.8313,8.9084,8.9767,9.0363,9.0546,9.0959,9.1546,9.1583,9.1143,9.04,9.0363,9.0363,9.04,9.1216,9.1877,9.2455,9.3382,9.3758,9.3611,9.3942,9.4088,9.4079,9.4235,9.4309,9.4309,9.4309,9.4639,9.5171,0.0,0.0,0.0,9.4933,9.5263,9.5273,9.5254,9.5327,9.5493,9.4566,0.0,9.4951,9.3483,9.3372,9.4877,9.2978,0.0,0.0,0.0,0.0,0.0,0.0,0.0,0.0,0.0,0.0,0.0,9.0216,9.0849,8.974,8.9272,8.9603,9.0854,8.983,8.9273,8.9756,8.9924,8.9983,8.9835,8.9946,9.002,9.0029,9.0187,9.0276,9.0276,9.0982,9.1725,9.2253,9.2988,9.3768,9.4437,9.4697,9.466,9.44,9.3917,9.3739,9.3768,9.4362,9.492,9.4957,9.5031,9.5105,9.5068,9.5626,9.6034,9.6108,9.6814,9.7409,9.7669,9.7675,9.7701,9.7938,9.7913,9.8249,9.8739,9.8932,9.882,9.8672,9.8635,9.8858,8.6696,8.6372,8.7266,8.7618,0.0,8.8556,8.8943,8.8999,8.9167,8.9692,9.04,9.0914,9.1571,9.231,9.2801,9.2535,9.1717,9.2197,9.2169,9.1734,9.2509,9.291,9.2964,9.3274,9.3496,9.3567,9.3978,9.417,9.419,9.5063,9.5237,9.4754,9.4744,9.4962,9.5317,9.4952,9.4794,9.4887,9.5658,9.6071,9.6108,9.6098,9.6282,9.6622,9.5511,0.0,0.0,0.0,0.0,0.0,0.0,0.0,0.0,9.4448,0.0,9.4439,9.4108,9.3757,9.3352,9.2984,9.2386,9.1604,9.2276,9.2134,9.0693,9.0278,9.0287,9.0786,9.0091,8.9831,9.0193,9.0156,9.0254,9.0644,9.0681,9.0977,9.1725,9.1949,9.2236,9.2727,9.3152,9.3594,9.4131,9.4511,9.492,9.5328,9.5403,9.5431,9.5365,9.5068,9.4808,9.4845,9.5477,9.5811,9.5514,9.5774,9.5811,9.5626,9.6071,9.6517,9.6583,9.7632,9.8598,9.8969,9.9081,9.9266,10.0066,9.9988,9.9916,10.0653,10.0901,10.0864,10.0818,10.0269,9.9786,8.8618,8.8618,8.8618,8.8618,8.8647,8.9421,8.9753,8.9721,8.9595,0.0,0.0,9.1449,9.2145,9.2621,9.3596,9.3471,9.2621,9.3393,9.3333,9.2595,9.3374,9.341,9.277,9.2805,9.2874,9.3018,9.3663,9.3963,9.403,9.5478,9.5785,9.4991,9.4938,9.4902,9.4757,9.4721,9.4762,9.4848,9.6174,9.6906,9.6906,9.6906,9.7199,9.787,9.6502,9.6098,9.6869,9.5373,9.5547,9.7686,9.5731,9.5401,9.7246,9.5584,9.4456,9.4309,9.4309,9.4235,9.4079,9.3602,9.3308,9.3308,9.3308,9.2831,9.163,9.1582,9.1369,9.0887,9.0702,9.0702,9.0821,9.0815,9.1057,9.1741,9.1778,9.2331,9.3521,9.3778,9.4059,9.4865,9.49,9.5192,9.5429,9.5495,9.5632,9.5831,9.5963,9.5797,9.5769,9.5749,9.57,9.5923,9.648,9.6591,9.6146,9.6369,9.6517,9.6108,9.6591,9.6992,9.726,9.8412,9.9601,10.0046,10.0455,10.1152,10.2118,10.1869,10.198,10.2592,10.2675,10.2675,10.2564,10.1681,10.0818,8.8618,8.8618,8.8618,8.8618,8.8618,8.8737,8.8801,8.8931,9.0327,9.1051,9.1225,9.2211,9.2205,9.1567,9.2569,9.2439,9.1534,9.1654,9.1668,9.1547,9.2403,9.2747,9.2664,9.3313,9.3646,9.3663,9.3781,9.3828,9.384,9.4081,9.4119,9.4019,9.4007,9.365,9.3028,9.2956,9.2676,9.2144,9.5814,9.7723,9.7723,9.7723,9.7796,9.787,9.7016,9.6906,9.7649,9.6171,9.6125,9.7723,9.6245,9.5501,9.5795,9.5538,9.5034,9.4382,9.4309,9.4006,9.3382,9.3786,9.4125,9.4162,9.4125,9.3805,9.3086,9.2993,9.3332,9.3953,9.3372,9.3389,9.4008,9.3829,9.3739,9.3951,9.3997,9.4144,9.4402,9.4565,9.4747,9.4948,9.4837,9.524,9.6009,9.6032,9.6326,9.7185,9.7113,9.7182,9.7051,9.6794,9.6806,9.7372,9.7632,9.7669,9.7409,9.7595,9.7557,9.7603,9.8077,9.8449,9.8449,9.9786,10.0641,10.0372,10.1272,10.1978,10.1932,10.2183,10.2434,10.2675,10.2675,10.2675,10.2675,10.2378,10.2266,8.9812,8.9799,8.9778,8.9778,8.9812,8.9778,8.9778,8.9856,9.0668,9.0808,9.0532,9.1501,9.1886,9.194,9.2876,9.2811,9.1847,9.2403,9.2357,9.1882,9.2236,9.2424,9.2401,9.2261,9.2473,9.2955,9.2991,9.2991,9.3038,9.3529,9.3529,9.2991,9.2578,9.1988,9.1209,9.1185,9.1273,9.155,9.3426,9.4632,9.502,9.5538,9.6036,9.6417,9.658,9.6869,9.7236,9.6539,9.6492,9.7199,9.6125,9.5685,9.6125,9.5758,9.5721,9.6181,9.5851,9.563,9.5694,9.5217,9.496,9.496,9.496,9.5025,9.5156,9.4356,9.4025,9.4485,9.4154,9.4117,9.4494,9.4448,9.4549,9.5009,9.5055,9.5229,9.5606,9.5782,9.5847,9.5958,9.5985,9.6206,9.6765,9.6785,9.6841,9.7483,9.7503,9.7421,9.743,9.7197,9.7147,9.7614,9.7831,9.7892,9.7892,9.7892,9.7892,9.7892,9.8189,9.8412,9.8523,9.9786,10.0521,10.0455,10.1299,10.1977,10.2015,10.2044,10.2267,10.2638,10.2675,10.2675,10.2675,10.2675,10.2675,9.0799,9.0799,9.0799,9.0799,9.0799,9.0799,9.0799,9.0799,9.0778,9.0467,9.0128,9.1017,9.163,9.2032,9.3014,9.2919,9.2154,9.2764,9.2692,9.2005,9.1955,9.1943,9.1868,9.1157,9.12,9.1903,9.1978,9.1978,9.2055,9.2752,9.2834,9.224,9.164,9.1093,9.0464,9.0464,9.0771,9.1313,9.1324,9.1755,9.2588,9.3373,9.4111,9.4891,9.5846,9.6367,9.6377,9.6579,9.6722,9.6685,9.6088,9.6052,9.6602,9.6125,9.6309,9.7419,9.7199,9.7236,9.776,9.6575,9.5795,9.5758,9.5758,9.6015,9.6502,9.5584,9.4823,9.4859,9.4906,9.4869,9.4952,9.4896,9.5107,9.5685,9.5758,9.5988,9.6575,9.6722,9.6743,9.6904,9.6932,9.6971,9.7156,9.7175,9.7165,9.7175,9.7221,9.7221,9.7221,9.7221,9.7294,9.743,9.7609,9.777,9.7813,9.7778,9.7778,9.7822,9.7815,9.7929,9.8225,9.9273,10.0088,10.0283,10.1096,10.1791,10.2266,10.2147,10.21,10.2592,10.2675,10.2675,10.2675,10.2935,10.2898,9.0799,9.0799,9.0799,9.0799,9.0799,9.0799,9.0799,9.0799,9.0799,9.0778,9.0745,9.176,9.1673,9.1157,9.1993,9.188,9.1014,9.104,9.1066,9.0988,9.0922,9.0922,9.0988,9.0852,9.0852,9.0961,9.1022,9.1096,9.1096,9.1187,9.1446,9.1937,9.1937,9.1852,9.1756,9.177,9.1463,9.0871,9.0871,9.1418,9.2536,9.2666,9.3129,9.3904,9.4867,9.5332,9.5395,9.6203,9.6685,9.6685,9.6612,9.6612,9.6685,9.6612,9.6649,9.6869,9.7456,9.7833,9.7833,9.7099,9.6575,9.6612,9.6575,9.6575,9.6685,9.6539,9.6465,9.6392,9.6428,9.6355,9.6475,9.6392,9.6355,9.6428,9.6502,9.6612,9.6685,9.6722,9.6732,9.6741,9.678,9.679,9.697,9.6895,9.6847,9.7007,9.7137,9.7174,9.7174,9.7247,9.7284,9.7239,9.7294,9.7486,9.7575,9.7485,9.754,9.7602,9.7503,9.7782,9.8447,9.9252,9.9834,10.062,10.147,10.2275,10.2174,10.2034,10.2666,10.2963,10.2972,10.2786,10.2824,10.3344,10.3576,9.0799,9.0799,9.0799,9.0799,9.0799,9.0799,9.0799,9.0799,9.0799,9.0799,9.0852,9.1226,9.1161,9.0839,9.126,9.1161,9.0812,9.0799,9.0799,9.0799,9.0799,9.0799,9.0799,9.0799,9.0799,9.0834,9.1295,9.1502,9.1571,9.195,9.2123,9.1998,9.1998,9.1778,9.133,9.1295,9.1123,9.0799,9.0799,9.1256,9.2178,9.2807,9.3249,9.3639,9.4516,9.5094,9.5201,9.5606,9.6094,9.6628,9.6722,9.6722,9.6722,9.7126,9.764,9.807,9.8411,9.819,9.7236,9.6869,9.6722,9.6722,9.6722,9.6722,9.6722,9.6722,9.6722,9.6722,9.6722,9.6722,9.6722,9.6722,9.6722,9.6722,9.6722,9.6722,9.6722,9.6722,9.6722,9.6722,9.6722,9.6741,9.6781,9.6743,9.6724,9.6883,9.7187,9.7536,9.7554,9.7912,9.8206,9.8253,9.831,9.8022,9.7654,9.7349,9.7589,9.7958,9.8088,9.8282,9.914,10.0341,10.1154,10.1221,10.2491,10.3446,10.3697,10.3688,10.4031,10.4031,10.4161,10.4161,10.4198,10.4458,10.4467,9.0799,9.0799,9.0799,9.0799,9.0799,9.0799,9.0799,9.0799,9.0799,9.0799,9.0799,9.0799,9.095,9.1075,9.0903,9.0799,9.0799,9.0799,9.0799,9.0834,9.1019,9.1157,9.1123,9.1351,9.1433,9.1537,9.2019,9.2295,9.2364,9.2813,9.2916,9.2654,9.2619,9.2433,9.2123,9.2054,9.2054,9.2088,9.2054,9.2364,9.2995,9.3595,9.3742,9.3482,9.4295,9.5017,9.543,9.5493,9.5974,9.6967,9.6832,9.6722,9.6722,9.7466,9.8273,9.8915,9.8658,9.8043,9.7052,9.6832,9.6722,9.6722,9.6722,9.6722,9.6722,9.6722,9.6722,9.6722,9.6722,9.6722,9.6722,9.6722,9.6722,9.6722,9.6722,9.6722,9.6722,9.6722,9.6722,9.6722,9.6942,9.7163,9.7309,9.7419,9.7493,9.7539,9.7906,9.8227,9.8264,9.8704,9.9035,9.9098,9.9255,9.9144,9.8373,9.8299,9.8502,9.9093,9.948,9.9699,10.0317,10.1635,10.2551,10.2608,10.3767,10.4308,10.4212,10.4557,10.4855,10.4958,10.506,10.5033,10.4725,10.5106,10.5357,9.0799,9.0834,9.0799,9.0903,9.0834,9.0903,9.0868,9.1041,9.0937,9.0868,9.0903,9.0903,9.1261,9.1882,9.1261,9.0834,9.0834,9.0903,9.0937,9.1006,9.1606,9.195,9.1998,9.264,9.2951,9.2813,9.2951,9.3089,9.3123,9.3158,9.3468,9.4172,9.4206,9.4516,9.4965,9.5034,9.5172,9.5034,9.502,9.5172,9.5206,9.5275,9.4598,9.3565,9.4097,9.5025,9.5851,9.6207,9.6749,9.7775,9.7105,9.673,9.6795,9.7456,9.8273,9.8805,9.7713,9.7199,9.7576,9.7089,9.6722,9.6722,9.6795,9.6759,9.6832,9.6906,9.6942,9.6759,9.6906,9.6869,9.6869,9.6906,9.6869,9.6869,9.6795,9.6832,9.6795,9.6979,9.6722,9.6906,9.7466,9.8043,9.8768,9.8988,9.8805,9.8805,9.8951,9.9061,9.9172,9.9208,9.9318,9.9575,9.9962,10.0325,10.0419,10.0004,10.0407,10.0961,10.1098,10.1511,10.2122,10.2746,10.3272,10.3774,10.4303,10.4598,10.4563,10.4652,10.4839,10.4972,10.5126,10.5098,10.5493,10.5538,10.5829,9.2282,9.2261,9.2261,9.2571,9.3033,9.3054,9.3068,9.3054,9.3033,9.2744,9.233,9.2261,9.2433,9.2709,9.2399,9.2295,9.2261,9.2261,9.2261,9.2295,9.2571,9.2723,9.2709,9.2999,9.3123,9.3158,9.362,9.4137,9.4537,9.4585,9.4965,9.5586,9.5675,9.6103,9.6724,9.6862,9.6862,9.6862,9.6876,9.6862,9.6793,9.6379,9.5813,9.5289,9.4689,9.4643,9.5141,9.52,9.5996,9.7611,9.7419,9.7321,9.7462,9.776,9.8016,9.8227,9.7787,9.7383,9.7163,9.6869,9.6722,9.6759,9.7209,9.7456,9.7576,9.7897,9.8217,9.8217,9.8227,9.8217,9.8107,9.7787,9.7676,9.8154,9.8227,9.8181,9.8227,9.8227,9.8264,9.8291,9.8521,9.8805,9.9061,9.9098,9.9098,9.9135,9.9539,10.0026,10.0503,10.0623,10.087,10.1788,10.2008,10.2248,10.3438,10.1932,10.1314,10.1921,10.2352,10.2709,10.3219,10.4027,10.4644,10.4885,10.5175,10.5678,10.5904,10.6126,10.6079,10.6169,10.6194,10.6184,10.6514,10.6658,10.683,9.3847,9.3847,9.3847,9.4158,9.462,9.4654,9.4654,9.4654,9.4654,9.4344,9.3882,9.3847,9.3985,9.4123,9.3951,9.3985,9.4054,9.3468,9.3123,9.3123,9.3365,9.3468,9.3537,9.3744,9.3847,9.3985,9.4654,9.5413,9.6069,9.6138,9.6414,9.6848,9.6883,9.7138,9.7621,9.769,9.769,9.769,9.769,9.769,9.7621,9.7173,9.6897,9.6759,9.5896,9.5357,9.535,9.5085,9.5692,9.7183,9.7224,9.7398,9.8065,9.853,9.8677,9.8641,9.842,9.8043,9.7603,9.7483,9.7493,9.7493,9.7933,9.83,9.8337,9.8805,9.9061,9.9098,9.9098,9.9172,9.9318,9.8998,9.8814,9.9098,9.9098,9.9098,9.9098,9.9061,9.9208,9.9402,9.9475,9.9585,9.9842,9.9879,9.9952,9.9879,10.0393,10.0953,10.1357,10.1798,10.2165,10.3293,10.377,10.4284,10.5196,10.4635,10.3817,10.4231,10.4131,10.4294,10.4541,10.5348,10.5825,10.6009,10.6408,10.7022,10.74,10.7611,10.7697,10.7741,10.7703,10.7611,10.7784,10.7895,10.7925,9.5413,9.5413,9.5413,9.5468,9.562,9.5655,9.5482,9.562,9.5551,9.5586,9.54,9.5448,9.5848,9.6227,9.5896,9.5896,9.6089,9.4606,9.3572,9.3399,9.4068,9.4378,9.4447,9.5103,9.5413,9.5448,9.6124,9.6862,9.7463,9.7449,9.7552,9.7656,9.769,9.7794,9.7794,9.7931,9.7828,9.7897,9.7931,9.7862,9.7725,9.7759,9.769,9.769,9.7518,9.721,9.6816,9.6093,9.6154,9.6993,9.6707,9.7029,9.8763,9.9625,10.0149,9.9879,9.9426,9.9135,9.8988,9.8915,9.8841,9.8878,9.9061,9.9098,9.9145,9.9245,9.9355,9.9392,9.9392,9.9539,10.0246,10.0429,10.0136,9.9318,9.9392,9.9392,9.9282,9.9208,9.9465,10.0209,10.0503,10.0733,10.132,10.1651,10.1761,10.1871,10.1944,10.2128,10.2458,10.2889,10.2852,10.3513,10.4761,10.6019,10.6816,10.7477,10.7073,10.6827,10.646,10.6313,10.6376,10.6926,10.711,10.733,10.7551,10.8081,10.8103,10.8314,10.8425,10.8504,10.8666,10.8703,10.8676,10.8652,10.8771,9.6966,9.698,9.7,9.7276,9.7725,9.7759,9.7725,9.7725,9.7759,9.7449,9.7138,9.7518,9.7862,9.8138,9.8331,9.8607,9.8725,9.7552,9.6207,9.5034,9.5468,9.5779,9.5965,9.6586,9.7014,9.7,9.7207,9.7449,9.769,9.7725,9.7897,9.8345,9.8449,9.8725,9.9124,9.9208,9.9208,9.9193,9.9208,9.9208,9.9173,9.8725,9.8483,9.8414,9.7966,9.759,9.7411,9.6697,9.6518,9.7053,9.7998,9.9108,10.0088,10.0144,9.975,9.9326,9.9704,9.9612,9.9172,9.9135,9.9208,9.9208,9.9622,9.9879,9.9989,10.0429,10.0696,10.0733,10.076,10.109,10.1824,10.2485,10.2118,10.088,10.076,10.0833,10.0953,10.1274,10.1641,10.1924,10.2412,10.3072,10.3723,10.3943,10.4063,10.4514,10.4661,10.4771,10.5359,10.5065,10.5825,10.678,10.7488,10.7488,10.8064,10.8505,10.8468,10.8138,10.7881,10.7561,10.7734,10.8064,10.8332,10.8615,10.8835,10.8956,10.8978,10.9047,10.92,10.9207,10.9214,10.924,10.9245,10.9314,10.9498,9.9104,9.9346,9.938,9.9622,10.0036,10.007,10.007,10.007,10.007,9.9794,9.9518,9.9829,10.007,10.0105,10.0277,10.0346,10.0243,9.9553,9.8276,9.6828,9.6759,9.6966,9.7,9.7463,9.7877,9.8069,9.8104,9.8242,9.8518,9.8552,9.8759,9.9139,9.9208,9.9415,9.9849,9.9883,10.0001,10.0277,10.0346,10.0484,10.0622,10.0312,10.0036,10.0001,9.9636,9.9242,9.8966,9.8449,9.8014,9.8024,9.9358,10.0385,10.0458,10.0816,10.0764,10.0082,10.0746,10.12,10.0209,10.0393,10.0273,10.0172,10.0466,10.0723,10.0917,10.1504,10.1944,10.1944,10.2201,10.2715,10.3476,10.3696,10.3633,10.345,10.3376,10.3339,10.3413,10.378,10.4063,10.421,10.4541,10.5054,10.5422,10.5595,10.5789,10.6313,10.6386,10.6497,10.6974,10.6874,10.7671,10.8332,10.8516,10.8699,10.9129,10.9459,10.9716,10.9423,10.9055,10.8652,10.8468,10.8909,10.9287,10.9753,11.0036,11.012,11.0094,11.0038,11.0129,10.996,10.9887,11.0107,11.0237,11.0207,11.0311,10.1519,10.2174,10.2174,10.2002,10.2002,10.2002,10.1933,10.2071,10.2036,10.1933,10.1967,10.1967,10.2105,10.2036,10.1691,10.1534,10.1174,10.0657,10.0001,9.9139,9.8587,9.8207,9.8,9.8069,9.838,9.8794,9.8863,9.9242,9.9794,9.9725,9.9918,9.9967,9.9863,9.9849,9.9883,9.9883,10.0277,10.0864,10.1051,10.1361,10.2002,10.2036,10.2002,10.2002,10.1864,10.1553,10.1016,10.0898,10.0404,9.9494,10.0604,10.0833,10.0351,10.2093,10.2615,10.1282,10.2884,10.2861,10.2175,10.2103,10.2326,10.1888,10.1761,10.1624,10.1834,10.2385,10.2779,10.2815,10.3329,10.41,10.4677,10.4761,10.5065,10.635,10.6129,10.5946,10.6276,10.624,10.6166,10.6276,10.646,10.6607,10.6754,10.678,10.6853,10.7037,10.7157,10.7367,10.7451,10.7965,10.7866,10.8479,10.9433,10.9679,11.0083,11.023,11.0403,11.0293,10.9999,10.9716,10.9386,10.979,11.012,11.0597,11.0843,11.099,11.1012,11.0788,11.0762,11.0743,11.0843,11.1159,11.1107,11.089,11.0813,10.2036,10.2224,10.2224,10.2224,10.2224,10.2224,10.2209,10.2209,10.2243,10.2312,10.2347,10.2795,10.3002,10.3022,10.3416,10.3604,10.3278,10.2692,10.2347,10.2036,10.1346,10.0346,9.9518,9.9346,9.9415,9.9656,9.9656,10.0001,10.0657,10.0174,10.0243,10.076,10.0208,9.9918,9.9883,9.9987,10.0312,10.0967,10.114,10.1519,10.214,10.2278,10.2224,10.2224,10.2243,10.2174,10.2002,10.245,10.2451,10.173,10.1258,10.1763,10.2312,10.3195,10.324,10.2575,10.3331,10.4081,10.3801,10.352,10.3551,10.4043,10.3435,10.3266,10.3266,10.3439,10.3586,10.3623,10.3843,10.4541,10.5752,10.6423,10.7598,10.9166,10.8002,10.668,10.6717,10.6937,10.7267,10.7304,10.7818,10.8369,10.8773,10.8956,10.9092,10.9533,10.9606,10.9606,10.9386,10.9496,10.9654,11.0083,11.0707,11.0781,11.0917,11.1027,11.1063,11.1027,11.088,11.077,11.0586,11.0707,11.0891,11.11,11.1063,11.1137,11.1137,11.1085,11.1184,11.121,11.121,11.121,11.121,11.1082,11.1045,10.2864,10.3175,10.3175,10.314,10.314,10.319,10.314,10.314,10.3175,10.319,10.3259,10.3589,10.3796,10.3865,10.4294,10.4486,10.4432,10.4003,10.3623,10.314,10.245,10.1622,10.1002,10.0864,10.0864,10.0829,10.0519,10.0864,10.1209,10.045,10.0553,10.1243,10.0795,10.0588,10.0967,10.1209,10.1519,10.2036,10.2312,10.2761,10.314,10.3175,10.3175,10.3175,10.3175,10.319,10.3244,10.3589,10.3546,10.2969,10.2393,10.2424,10.3024,10.3589,10.3433,10.2723,10.3883,10.4547,10.4155,10.4201,10.4394,10.4347,10.4145,10.4158,10.3921,10.4075,10.4383,10.4394,10.4991,10.6056,10.722,10.8395,10.9507,11.012,10.9312,10.8395,10.8395,10.8919,10.9066,10.9213,10.9533,10.9936,11.045,11.0487,11.0744,11.099,11.0891,11.0917,11.0953,11.121,11.121,11.121,11.121,11.11,11.1063,11.1173,11.1173,11.1173,11.1173,11.121,11.132,11.1284,11.121,11.1173,11.121,11.1247,11.1284,11.1295,11.121,11.121,11.121,11.1284,11.132,11.1552,11.1515,10.383,10.4486,10.4486,10.4486,10.4417,10.4486,10.4328,10.4432,10.4348,10.4363,10.4348,10.4451,10.4382,10.4486,10.4466,10.4486,10.4486,10.4432,10.4037,10.352,10.2933,10.2485,10.245,10.2002,10.1829,10.1726,10.1381,10.1588,10.1691,10.0795,10.1036,10.1864,10.1657,10.1726,10.2209,10.2899,10.3416,10.3608,10.4072,10.4451,10.4589,10.4555,10.4436,10.4451,10.4259,10.4259,10.4279,10.4382,10.4112,10.3466,10.3416,10.3131,10.2776,10.3466,10.3526,10.3295,10.4228,10.4649,10.3891,10.4927,10.5175,10.4223,10.4756,10.4758,10.4275,10.4778,10.5386,10.5412,10.6705,10.7587,10.8578,11.0083,11.0634,11.056,11.0707,11.1074,11.121,11.121,11.121,11.121,11.1148,11.121,11.121,11.121,11.121,11.11,11.121,11.121,11.121,11.121,11.121,11.121,11.121,11.121,11.1173,11.121,11.121,11.121,11.121,11.1247,11.1467,11.1467,11.1284,11.1258,11.1464,11.1537,11.1588,11.1478,11.154,11.1735,11.2102,11.1845,11.1614,11.2029,11.2139,10.4363,10.4486,10.4486,10.4486,10.4486,10.4486,10.4486,10.4486,10.4486,10.4486,10.4486,10.4486,10.4486,10.4486,10.4486,10.4486,10.4486,10.4486,10.4363,10.4294,10.4156,10.4018,10.3727,10.3002,10.2002,10.1726,10.1879,10.2071,10.2086,10.2002,10.214,10.2899,10.2933,10.2933,10.3244,10.4072,10.4589,10.5007,10.5317,10.5662,10.5904,10.5593,10.5352,10.5248,10.483,10.4535,10.4486,10.4486,10.4382,10.4279,10.4175,10.4052,10.3955,10.4129,10.4164,10.4134,10.4335,10.49,10.5298,10.5227,10.5363,10.5555,10.5315,10.5264,10.5141,10.5872,10.6509,10.6728,10.7267,10.8019,10.8863,11.026,11.0725,11.0706,11.079,11.1018,11.1177,11.1188,11.121,11.121,11.121,11.121,11.1188,11.1272,11.1272,11.121,11.1284,11.1247,11.132,11.1441,11.1552,11.1735,11.1698,11.1808,11.1808,11.1845,11.1845,11.1808,11.1735,11.1735,11.1955,11.1882,11.1808,11.1794,11.1838,11.1937,11.2124,11.2579,11.2788,11.291,11.2958,11.2737,11.2616,11.2811,11.2774,10.4486,10.4486,10.4486,10.4486,10.4486,10.4486,10.4486,10.4486,10.4486,10.4486,10.4486,10.4486,10.4486,10.4486,10.4486,10.4486,10.4486,10.4501,10.4693,10.4934,10.5022,10.5195,10.5436,10.4712,10.3815,10.2933,10.3071,10.3244,10.3155,10.2761,10.2899,10.4229,10.4072,10.4348,10.4919,10.5643,10.6057,10.6145,10.649,10.6731,10.6612,10.6352,10.5869,10.5662,10.5195,10.4899,10.452,10.4486,10.4486,10.4486,10.452,10.4486,10.4486,10.4486,10.4486,10.4486,10.4501,10.4692,10.5102,10.5514,10.5531,10.5629,10.5748,10.5642,10.5463,10.5914,10.6215,10.6546,10.7263,10.8271,10.9048,10.9682,11.0198,10.9691,10.9644,10.9632,10.9763,11.0515,11.121,11.121,11.121,11.1081,11.1052,11.1164,11.146,11.1507,11.238,11.2413,11.2543,11.2653,11.2543,11.2627,11.2517,11.2517,11.2506,11.2543,11.2616,11.2653,11.2689,11.2737,11.2884,11.2701,11.2469,11.2514,11.2621,11.2815,11.305,11.3519,11.3706,11.346,11.3398,11.3545,11.3582,11.3435,11.3325,10.4486,10.4486,10.4486,10.4486,10.4486,10.4486,10.4486,10.4486,10.4486,10.4486,10.4486,10.4486,10.4486,10.4486,10.4486,10.452,10.4693,10.4761,10.5091,10.5697,10.5766,10.6042,10.6371,10.6386,10.5938,10.4934,10.483,10.4796,10.4313,10.3692,10.4229,10.5421,10.5367,10.5712,10.68,10.7559,10.7662,10.7302,10.7662,10.7731,10.7283,10.7042,10.6559,10.5973,10.58,10.5524,10.516,10.5037,10.4865,10.4658,10.4658,10.4589,10.4501,10.4486,10.4486,10.4486,10.4486,10.4576,10.4767,10.5241,10.541,10.4567,10.5467,10.5726,10.5178,10.5382,10.5734,10.6251,10.705,10.8269,10.8967,10.9148,10.8728,10.8207,10.7884,10.7841,10.8296,10.9765,11.0539,11.0738,11.0751,11.0719,11.084,11.1009,11.1432,11.1928,11.2793,11.3403,11.3428,11.3514,11.3249,11.3203,11.3068,11.2994,11.3031,11.3104,11.3215,11.3325,11.3472,11.3618,11.3728,11.3655,11.3472,11.3432,11.3502,11.3697,11.392,11.4293,11.427,11.3937,11.4096,11.4499,11.4353,11.4022,11.4022,10.4486,10.4486,10.4486,10.4486,10.4486,10.4486,10.4486,10.4486,10.4486,10.4486,10.4486,10.4486,10.4486,10.4486,10.4486,10.4815,10.5195,10.5386,10.58,10.644,10.6543,10.6716,10.6992,10.7455,10.7145,10.6593,10.6317,10.6076,10.5662,10.5766,10.5835,10.6524,10.6904,10.7421,10.7731,10.8387,10.8662,10.8352,10.8593,10.8524,10.8352,10.7904,10.7317,10.6628,10.6524,10.6386,10.6317,10.6248,10.6042,10.549,10.5421,10.5091,10.4761,10.4624,10.4555,10.4486,10.4486,10.4486,10.4591,10.4632,10.4722,10.4587,10.4822,10.4935,10.4851,10.5379,10.574,10.6265,10.6933,10.7708,10.711,10.7708,10.7965,10.7753,10.7662,10.7827,10.8458,10.9047,10.947,10.9529,10.9884,11.0359,11.048,11.0662,11.1011,11.1428,11.2121,11.2593,11.2703,11.3101,11.3411,11.3426,11.3508,11.3472,11.3472,11.3582,11.3692,11.3839,11.3985,11.4268,11.4378,11.4561,11.4536,11.4387,11.4372,11.4531,11.4816,11.5066,11.5151,11.5039,11.527,11.5491,11.5234,11.494,11.5197,10.4486,10.4486,10.4486,10.4486,10.4486,10.4486,10.4486,10.4486,10.4486,10.4486,10.4486,10.4486,10.4486,10.4486,10.4486,10.4919,10.5524,10.6061,10.6593,10.718,10.7352,10.7593,10.78,10.8318,10.8214,10.7973,10.7869,10.7249,10.6283,10.6455,10.6973,10.7352,10.7766,10.8076,10.8421,10.8766,10.9007,10.9007,10.9007,10.9007,10.9007,10.8559,10.8076,10.7524,10.7283,10.7111,10.6716,10.6681,10.6509,10.6248,10.6179,10.5973,10.5628,10.5229,10.4899,10.4624,10.452,10.4486,10.4486,10.4486,10.4501,10.4501,10.4486,10.4486,10.4591,10.4996,10.5582,10.6177,10.6465,10.684,10.6507,10.6769,10.6636,10.6261,10.6437,10.6886,10.7321,10.7987,10.8383,10.8676,10.9479,10.9974,10.9993,11.0232,11.0548,11.1019,11.1518,11.1823,11.2,11.258,11.3213,11.3539,11.3681,11.4118,11.4186,11.4406,11.4451,11.4499,11.4573,11.4855,11.5039,11.5185,11.5259,11.5197,11.5268,11.5254,11.544,11.5603,11.5835,11.5993,11.5858,11.5784,11.5894,11.5993,11.5993,10.4486,10.4486,10.4486,10.4486,10.4486,10.4486,10.4486,10.4486,10.4486,10.4486,10.452,10.4658,10.4761,10.4796,10.4988,10.5402,10.6061,10.6766,10.7386,10.7973,10.8111,10.8456,10.8835,10.9007,10.8869,10.8766,10.88,10.8387,10.7474,10.7352,10.7593,10.7973,10.8145,10.8352,10.8869,10.8973,10.9007,10.9007,10.9007,10.9007,10.9007,10.8973,10.8766,10.818,10.8111,10.7835,10.7405,10.7352,10.7198,10.7026,10.6923,10.6854,10.6612,10.613,10.5559,10.5037,10.4708,10.452,10.4486,10.4486,10.4486,10.4486,10.4486,10.4486,10.4501,10.4667,10.4931,10.5668,10.5849,10.5849,10.573,10.5835,10.5465,10.5095,10.5319,10.5808,10.6451,10.7196,10.81,10.8637,10.9358,10.9599,10.9613,10.9642,10.9894,11.0265,11.0788,11.1388,11.1657,11.2268,11.2866,11.3448,11.3928,11.4583,11.4968,11.5341,11.5374,11.538,11.5417,11.5516,11.5699,11.5846,11.581,11.5663,11.5748,11.5759,11.5968,11.5993,11.5993,11.5993,11.5993,11.5993,11.5993,11.5993,11.5993,10.4486,10.4486,10.452,10.4486,10.4555,10.4589,10.457,10.4555,10.4624,10.4486,10.4727,10.5195,10.549,10.5593,10.6179,10.6835,10.7386,10.7697,10.8111,10.8662,10.8766,10.88,10.8973,10.9007,10.9007,10.9007,10.9007,10.8938,10.8524,10.849,10.8628,10.8766,10.8766,10.8938,10.8973,10.9007,10.9007,10.9007,10.9007,10.9007,10.9007,10.9007,10.8938,10.8869,10.88,10.8697,10.8456,10.8421,10.8267,10.78,10.7766,10.7405,10.6819,10.6647,10.6543,10.6076,10.5367,10.4486,10.4589,10.452,10.4486,10.4486,10.4486,10.4486,10.4486,10.4486,10.4591,10.4606,10.4767,10.4857,10.4917,10.4782,10.4621,10.4902,10.5298,10.6007,10.6593,10.7386,10.8214,10.8518,10.9225,10.9242,10.9178,10.9189,10.9277,10.9649,11.0092,11.0651,11.1201,11.1695,11.257,11.3149,11.3976,11.4653,11.5093,11.5572,11.5901,11.5993,11.5993,11.5993,11.5993,11.5993,11.5993,11.592,11.5993,11.5993,11.5993,11.5993,11.5993,11.5993,11.5993,11.5993,11.5993,11.5993,11.5993,10.5126,10.5126,10.5126,10.5367,10.5747,10.5747,10.5747,10.5747,10.5731,10.5747,10.5781,10.6042,10.6248,10.6421,10.7042,10.7524,10.7938,10.8318,10.8662,10.8938,10.9007,10.9007,10.9007,10.9007,10.9007,10.9007,10.9007,10.9007,10.9007,10.9007,10.9007,10.9007,10.9007,10.8973,10.9007,10.9007,10.9007,10.9007,10.9007,10.9007,10.9007,10.9007,10.9007,10.9007,10.9007,10.9007,10.9007,10.9007,10.8869,10.8524,10.8524,10.8387,10.7973,10.7662,10.7386,10.7283,10.6386,10.5643,10.5195,10.4761,10.4589,10.4501,10.4501,10.4486,10.4486,10.4486,10.4486,10.4501,10.4501,10.452,10.452,10.4486,10.4796,10.516,10.5766,10.649,10.7214,10.8007,10.8697,10.8869,10.9007,10.9007,10.9007,10.9036,10.908,10.9268,10.9487,10.973,11.0273,11.0754,11.1787,11.2895,11.3809,11.4714,11.4996,11.5357,11.5866,11.5993,11.5993,11.5993,11.5993,11.5993,11.5993,11.5993,11.5993,11.5993,11.5993,11.5993,11.5993,11.5993,11.5993,11.5993,11.5993,11.5993,11.5993,10.5973,10.6145,10.5973,10.6214,10.6681,10.6681,10.6647,10.6681,10.6612,10.6647,10.675,10.6904,10.7111,10.7371,10.7904,10.8214,10.8264,10.8766,10.8973,10.9007,10.9007,10.9007,10.9007,10.9007,10.9007,10.9007,10.9007,10.9007,10.9007,10.9007,10.9007,10.9007,10.9007,10.9007,10.9007,10.9007,10.9007,10.9007,10.9007,10.9007,10.9007,10.9007,10.9007,10.9007,10.9007,10.9007,10.9007,10.9007,10.8973,10.8973,10.8938,10.8835,10.8731,10.8387,10.818,10.8007,10.7317,10.6766,10.6214,10.5678,10.5072,10.4796,10.4535,10.4486,10.4486,10.4486,10.4486,10.4486,10.4486,10.4589,10.4727,10.483,10.5229,10.5835,10.6559,10.7214,10.7835,10.8421,10.8835,10.8938,10.9007,10.9007,10.9007,10.9007,10.9023,10.9023,10.9007,10.9023,10.9595,11.0268,11.1431,11.2787,11.4129,11.496,11.5226,11.5464,11.5877,11.5958,11.5958,11.5993,11.5993,11.5993,11.5993,11.5993,11.5993,11.5993,11.5993,11.5993,11.5993,11.5993,11.5993,11.5993,11.5993,11.5993,11.5993,10.7076,10.7697,10.6957,10.6731,10.6785,10.6681,10.675,10.6888,10.6819,10.6854,10.7026,10.7455,10.8145,10.8593,10.8697,10.88,10.8904,10.8973,10.9007,10.9007,10.9007,10.9007,10.9007,10.9007,10.9007,10.9007,10.9007,10.9007,10.9007,10.9007,10.9007,10.9007,10.9007,10.9007,10.9007,10.9007,10.9007,10.9007,10.9007,10.9007,10.9007,10.9007,10.9007,10.9007,10.9007,10.9007,10.9007,10.9007,10.9007,10.9007,10.9007,10.9007,10.8938,10.8835,10.8731,10.8593,10.818,10.7731,10.7386,10.6697,10.6164,10.5559,10.5091,10.483,10.4899,10.4639,10.457,10.4761,10.4934,10.5057,10.5333,10.5593,10.5869,10.6524,10.7145,10.7628,10.8145,10.8559,10.8904,10.8973,10.9007,10.9007,10.9007,10.9007,10.9007,10.9007,10.907,10.9086,10.9853,11.0577,11.1596,11.2908,11.4468,11.5322,11.5559,11.5701,11.55,11.5654,11.5771,11.5912,11.5993,11.5993,11.5993,11.5993,11.5993,11.5993,11.5993,11.5993,11.5993,11.5993,11.5993,11.5993,11.5993,11.5993,11.5993,10.7904,10.8524,10.8214,10.8111,10.8111,10.8095,10.8095,10.8095,10.8111,10.8111,10.8076,10.8456,10.8731,10.8938,10.9007,10.9007,10.9007,10.9007,10.9007,10.9007,10.9007,10.9007,10.9007,10.9007,10.9007,10.9007,10.9007,10.9007,10.9007,10.9007,10.9007,10.9007,10.9007,10.9007,10.9007,10.9007,10.9007,10.9007,10.9007,10.9007,10.9007,10.9007,10.9007,10.9007,10.9007,10.9007,10.9007,10.9007,10.9007,10.9007,10.9007,10.9007,10.9007,10.9007,10.9007,10.9007,10.8628,10.8524,10.8283,10.749,10.6578,10.6371,10.6007,10.5815,10.5678,10.5781,10.585,10.5869,10.5781,10.5904,10.6145,10.6317,10.6559,10.7249,10.7731,10.8111,10.8456,10.8835,10.8938,10.9007,10.9007,10.9007,10.9007,10.9007,10.9007,10.9023,10.9086,10.9256,10.9909,11.0607,11.1496,11.2268,11.3647,11.4143,11.4307,11.4629,11.4923,11.5153,11.5405,11.5523,11.5619,11.5982,11.5982,11.5993,11.5993,11.5993,11.5993,11.5993,11.5993,11.5993,11.5993,11.5993,11.5993,11.5993,11.5993,10.8524,10.8973,10.9007,10.9007,10.9007,10.9007,10.9007,10.9007,10.8973,10.9007,10.9007,10.9007,10.9007,10.9007,10.9007,10.9007,10.9007,10.9007,10.9007,10.9007,10.9007,10.9007,10.9007,10.9007,10.9007,10.9007,10.9007,10.9007,10.9007,10.9007,10.9007,10.9007,10.9007,10.9007,10.9007,10.9007,10.9007,10.9007,10.9007,10.9007,10.9007,10.9007,10.9007,10.9007,10.9007,10.9007,10.9007,10.9007,10.9007,10.9007,10.9007,10.9007,10.9007,10.9007,10.9007,10.9007,10.9007,10.9007,10.8662,10.7938,10.7111,10.7042,10.6681,10.6612,10.6681,10.6716,10.649,10.6543,10.6628,10.68,10.6957,10.7111,10.7421,10.8042,10.8214,10.8524,10.8697,10.8973,10.8973,10.9007,10.9007,10.9007,10.9007,10.9007,10.9007,10.9007,10.9039,10.9178,10.9595,11.0283,11.1041,11.1709,11.2488,11.2638,11.2638,11.3215,11.3747,11.3799,11.4118,11.4764,11.502,11.5369,11.5806,11.5993,11.5993,11.5993,11.5993,11.5993,11.5993,11.5993,11.5993,11.5993,11.5993,11.5993,11.5993,10.8973,10.9007,10.9007,10.9007,10.9007,10.9007,10.9007,10.9007,10.9007,10.9007,10.9007,10.9007,10.9007,10.9007,10.9007,10.9007,10.9007,10.9007,10.9007,10.9007,10.9007,10.9007,10.9007,10.9007,10.9007,10.9007,10.9007,10.9007,10.9007,10.9007,10.9007,10.9007,10.9007,10.9007,10.9007,10.9007,10.9007,10.9007,10.9007,10.9007,10.9007,10.9007,10.9007,10.9007,10.9007,10.9007,10.9007,10.9007,10.9007,10.9007,10.9007,10.9007,10.9007,10.9007,10.9007,10.9007,10.9007,10.9007,10.8938,10.8249,10.7938,10.7835,10.7455,10.7164,10.6888,10.6854,10.6992,10.7283,10.7061,10.7317,10.7559,10.7904,10.8318,10.8559,10.8697,10.88,10.8938,10.9007,10.9007,10.9007,10.9007,10.9007,10.9007,10.9007,10.9007,10.9007,10.9007,10.9162,10.9409,10.9761,11.0418,11.0695,11.1201,11.1331,11.1439,11.213,11.2557,11.257,11.2935,11.3683,11.4078,11.423,11.4801,11.5619,11.575,11.5543,11.575,11.5993,11.5993,11.5993,11.5993,11.5993,11.5993,11.5993,11.5993,10.9007,10.9007,10.9007,10.9007,10.9007,10.9007,10.9007,10.9007,10.9007,10.9007,10.9007,10.9007,10.9007,10.9007,10.9007,10.9007,10.9007,10.9007,10.9007,10.9007,10.9007,10.9007,10.9007,10.9007,10.9007,10.9007,10.9007,10.9007,10.9007,10.9007,10.9007,10.9007,10.9007,10.9007,10.9007,10.9007,10.9007,10.9007,10.9007,10.9007,10.9007,10.9007,10.9007,10.9007,10.9007,10.9007,10.9007,10.9007,10.9007,10.9007,10.9007,10.9007,10.9007,10.9007,10.9007,10.9007,10.9007,10.9007,10.8973,10.8697,10.8662,10.849,10.8318,10.8076,10.8214,10.8249,10.8249,10.8145,10.8007,10.8283,10.8593,10.8593,10.8835,10.8835,10.8938,10.8938,10.9007,10.9007,10.9007,10.9007,10.9007,10.9007,10.9007,10.9007,10.9007,10.9007,10.9007,10.9007,10.9193,10.9178,10.9533,10.9533,10.9776,10.9955,11.0283,11.0939,11.1331,11.1374,11.1963,11.2814,11.3055,11.3095,11.3734,11.4529,11.4787,11.5046,11.5376,11.5692,11.5945,11.5993,11.5993,11.5993,11.5993,11.5993,11.5993,10.9007,10.9007,10.9007,10.9007,10.9007,10.9007,10.9007,10.9007,10.9007,10.9007,10.9007,10.9007,10.9007,10.9007,10.9007,10.9007,10.9007,10.9007,10.9007,10.9007,10.9007,10.9007,10.9007,10.9007,10.9007,10.9007,10.9007,10.9007,10.9007,10.9007,10.9007,10.9007,10.9007,10.9007,10.9007,10.9007,10.9007,10.9007,10.9007,10.9007,10.9007,10.9007,10.9007,10.9007,10.9007,10.9007,10.9007,10.9007,10.9007,10.9007,10.9007,10.9007,10.9007,10.9007,10.9007,10.9007,10.9007,10.9007,10.8973,10.8973,10.8904,10.8904,10.9007,10.9007,10.9007,10.8835,10.8869,10.8904,10.9007,10.9007,10.8973,10.9007,10.9007,10.9007,10.9007,10.9007,10.9007,10.9007,10.9007,10.9007,10.9007,10.9007,10.9007,10.9007,10.9007,10.9007,10.9007,10.9007,10.9007,10.9007,10.9007,10.9055,10.9086,10.9381,10.958,10.9807,11.0092,11.0168,11.0843,11.1596,11.1907,11.1984,11.2679,11.3324,11.3648,11.4063,11.492,11.5356,11.5461,11.5724,11.5993,11.5993,11.5993,11.5993,11.5993,10.9007,10.9007,10.9007,10.9007,10.9007,10.9007,10.9007,10.9007,10.9007,10.9007,10.9007,10.9007,10.9007,10.9007,10.9007,10.9007,10.9007,10.9007,10.9007,10.9007,10.9007,10.9007,10.9007,10.9007,10.9007,10.9007,10.9007,10.9007,10.9007,10.9007,10.9007,10.9007,10.9007,10.9007,10.9007,10.9007,10.9007,10.9007,10.9007,10.9007,10.9007,10.9007,10.9007,10.9007,10.9007,10.9007,10.9007,10.9007,10.9007,10.9007,10.9007,10.9007,10.9007,10.9007,10.9007,10.9007,10.9007,10.9007,10.9007,10.9007,10.9007,10.9007,10.9007,10.9007,10.9007,10.9007,10.9007,10.9007,10.9007,10.9007,10.9007,10.9007,10.9007,10.9007,10.9007,10.9007,10.9007,10.9007,10.9007,10.9007,10.9007,10.9007,10.9007,10.9007,10.9007,10.9007,10.9007,10.9007,10.9007,10.9007,10.9007,10.9007,10.9039,10.9023,10.9146,10.9334,10.9397,10.9641,10.9502,11.0062,11.0358,11.0872,11.1446,11.2006,11.2441,11.3031,11.3889,11.4507,11.4875,11.5226,11.5666,11.5993,11.5993,11.5993,11.5993,10.9007,10.9007,10.9007,10.9007,10.9007,10.9007,10.9007,10.9007,10.9007,10.9007,10.9007,10.9007,10.9007,10.9007,10.9007,10.9007,10.9007,10.9007,10.9007,10.9007,10.9007,10.9007,10.9007,10.9007,10.9007,10.9007,10.9007,10.9007,10.9007,10.9007,10.9007,10.9007,10.9007,10.9007,10.9007,10.9007,10.9007,10.9007,10.9007,10.9007,10.9007,10.9007,10.9007,10.9007,10.9007,10.9007,10.9007,10.9007,10.9007,10.9007,10.9007,10.9007,10.9007,10.9007,10.9007,10.9007,10.9007,10.9007,10.9007,10.9007,10.9007,10.9007,10.9007,10.9007,10.9007,10.9007,10.9007,10.9007,10.9007,10.9007,10.9007,10.9007,10.9007,10.9007,10.9007,10.9007,10.9007,10.9007,10.9007,10.9007,10.9007,10.9007,10.9007,10.9007,10.9007,10.9007,10.9007,10.9007,10.9007,10.9007,10.9007,10.9007,10.9007,10.9007,10.9007,10.9115,10.9102,10.9086,10.9055,10.907,10.9455,10.994,11.0268,11.0762,11.1391,11.2087,11.2843,11.3389,11.3832,11.4715,11.5262,11.5678,11.5993,11.5993,11.5993,10.9007,10.9007,10.9007,10.9007,10.9007,10.9007,10.9007,10.9007,10.9007,10.9007,10.9007,10.9007,10.9007,10.9007,10.9007,10.9007,10.9007,10.9007,10.9007,10.9007,10.9007,10.9007,10.9007,10.9007,10.9007,10.9007,10.9007,10.9007,10.9007,10.9007,10.9007,10.9007,10.9007,10.9007,10.9007,10.9007,10.9007,10.9007,10.9007,10.9007,10.9007,10.9007,10.9007,10.9007,10.9007,10.9007,10.9007,10.9007,10.9007,10.9007,10.9007,10.9007,10.9007,10.9007,10.9007,10.9007,10.9007,10.9007,10.9007,10.9007,10.9007,10.9007,10.9007,10.9007,10.9007,10.9007,10.9007,10.9007,10.9007,10.9007,10.9007,10.9007,10.9007,10.9007,10.9007,10.9007,10.9007,10.9007,10.9007,10.9007,10.9007,10.9007,10.9007,10.9007,10.9007,10.9007,10.9007,10.9007,10.9007,10.9007,10.9007,10.9007,10.9007,10.9007,10.9007,10.9007,10.9007,10.9007,10.9023,10.9039,10.9007,10.9146,10.9607,11.0046,11.0507,11.1111,11.1673,11.222,11.2796,11.3773,11.4789,11.531,11.5713,11.5993,11.5993,10.8944,10.896,10.8991,10.9007,10.9007,10.9007,10.9007,10.9007,10.9007,10.9007,10.9007,10.9007,10.9007,10.9007,10.9007,10.9007,10.9007,10.9007,10.9007,10.9007,10.9007,10.9007,10.9007,10.9007,10.9007,10.9007,10.9007,10.9007,10.9007,10.9007,10.9007,10.9007,10.9007,10.9007,10.9007,10.9007,10.9007,10.9007,10.9007,10.9007,10.9007,10.9007,10.9007,10.9007,10.9007,10.9007,10.9007,10.9007,10.9007,10.9007,10.9007,10.9007,10.9007,10.9007,10.9007,10.9007,10.9007,10.9007,10.9007,10.9007,10.9007,10.9007,10.9007,10.9007,10.9007,10.9007,10.9007,10.9007,10.9007,10.9007,10.9007,10.9007,10.9007,10.9007,10.9007,10.9007,10.9007,10.9007,10.9007,10.9007,10.9007,10.9007,10.9007,10.9007,10.9007,10.9007,10.9007,10.9007,10.9007,10.9007,10.9007,10.9007,10.9007,10.9007,10.9007,10.9007,10.9007,10.9007,10.9007,10.9007,10.9007,10.9007,10.9007,10.944,10.9837,10.9977,11.0455,11.1138,11.2096,11.3343,11.4243,11.4886,11.5345,11.5771,11.5993,10.8382,10.8657,10.8896,10.9007,10.9007,10.9007,10.9007,10.9007,10.9007,10.9007,10.9007,10.9007,10.9007,10.9007,10.9007,10.9007,10.9007,10.9007,10.9007,10.9007,10.9007,10.9007,10.9007,10.9007,10.9007,10.9007,10.9007,10.9007,10.9007,10.9007,10.9007,10.9007,10.9007,10.9007,10.9007,10.9007,10.9007,10.9007,10.9007,10.9007,10.9007,10.9007,10.9007,10.9007,10.9007,10.9007,10.9007,10.9007,10.9007,10.9007,10.9007,10.9007,10.9007,10.9007,10.9007,10.9007,10.9007,10.9007,10.9007,10.9007,10.9007,10.9007,10.9007,10.9007,10.9007,10.9007,10.9007,10.9007,10.9007,10.9007,10.9007,10.9007,10.9007,10.9007,10.9007,10.9007,10.9007,10.9007,10.9007,10.9007,10.9007,10.9007,10.9007,10.9007,10.9007,10.9007,10.9007,10.9007,10.9007,10.9007,10.9007,10.9007,10.9007,10.9007,10.9007,10.9007,10.9007,10.9007,10.9007,10.9007,10.9007,10.9007,10.9007,10.9007,10.9218,10.9447,10.9793,11.0372,11.1431,11.2647,11.3409,11.3925,11.4947,11.5572,11.5843,10.8318,10.8545,10.8865,10.9007,10.9007,10.9007,10.9007,10.9007,10.9007,10.9007,10.9007,10.9007,10.9007,10.9007,10.9007,10.9007,10.9007,10.9007,10.9007,10.9007,10.9007,10.9007,10.9007,10.9007,10.9007,10.9007,10.9007,10.9007,10.9007,10.9007,10.9007,10.9007,10.9007,10.9007,10.9007,10.9007,10.9007,10.9007,10.9007,10.9007,10.9007,10.9007,10.9007,10.9007,10.9007,10.9007,10.9007,10.9007,10.9007,10.9007,10.9007,10.9007,10.9007,10.9007,10.9007,10.9007,10.9007,10.9007,10.9007,10.9007,10.9007,10.9007,10.9007,10.9007,10.9007,10.9007,10.9007,10.9007,10.9007,10.9007,10.9007,10.9007,10.9007,10.9007,10.9007,10.9007,10.9007,10.9007,10.9007,10.9007,10.9007,10.9007,10.9007,10.9007,10.9007,10.9007,10.9007,10.9007,10.9007,10.9007,10.9007,10.9007,10.9007,10.9007,10.9007,10.9007,10.9007,10.9007,10.9007,10.9007,10.9007,10.9007,10.9007,10.9007,10.9007,10.9058,10.9443,10.9864,11.0478,11.1489,11.2249,11.2877,11.4014,11.502,11.5081,10.8382,10.8527,10.883,10.9007,10.9007,10.9007,10.9007,10.9007,10.9007,10.9007,10.9007,10.9007,10.9007,10.9007,10.9007,10.9007,10.9007,10.9007,10.9007,10.9007,10.9007,10.9007,10.9007,10.9007,10.9007,10.9007,10.9007,10.9007,10.9007,10.9007,10.9007,10.9007,10.9007,10.9007,10.9007,10.9007,10.9007,10.9007,10.9007,10.9007,10.9007,10.9007,10.9007,10.9007,10.9007,10.9007,10.9007,10.9007,10.9007,10.9007,10.9007,10.9007,10.9007,10.9007,10.9007,10.9007,10.9007,10.9007,10.9007,10.9007,10.9007,10.9007,10.9007,10.9007,10.9007,10.9007,10.9007,10.9007,10.9007,10.9007,10.9007,10.9007,10.9007,10.9007,10.9007,10.9007,10.9007,10.9007,10.9007,10.9007,10.9007,10.9007,10.9007,10.9007,10.9007,10.9007,10.9007,10.9007,10.9007,10.9007,10.9007,10.9007,10.9007,10.9007,10.9007,10.9007,10.9007,10.9007,10.9007,10.9007,10.9007,10.9007,10.9007,10.9007,10.9007,10.9007,10.9007,10.9303,10.9944,11.0636,11.1259,11.2054,11.2882,11.3747,11.3976,10.7977,10.8545,10.8865,10.9007,10.8991,10.9007,10.9007,10.9007,10.8991,10.9007,10.896,10.8991,10.9007,10.9007,10.9007,10.9007,10.9007,10.9007,10.9007,10.9007,10.9007,10.9007,10.9007,10.9007,10.9007,10.9007,10.9007,10.9007,10.9007,10.9007,10.9007,10.9007,10.9007,10.9007,10.9007,10.9007,10.9007,10.9007,10.9007,10.9007,10.9007,10.9007,10.9007,10.9007,10.9007,10.9007,10.9007,10.9007,10.9007,10.9007,10.9007,10.9007,10.9007,10.9007,10.9007,10.9007,10.9007,10.9007,10.9007,10.9007,10.9007,10.9007,10.9007,10.9007,10.9007,10.9007,10.9007,10.9007,10.9007,10.9007,10.9007,10.9007,10.9007,10.9007,10.9007,10.9007,10.9007,10.9007,10.9007,10.9007,10.9007,10.9007,10.9007,10.9007,10.9007,10.9007,10.9007,10.9007,10.9007,10.9007,10.9007,10.9007,10.9007,10.9007,10.9007,10.9007,10.9007,10.9007,10.9007,10.9007,10.9007,10.9007,10.9007,10.9007,10.9007,10.9007,10.9007,10.9007,10.9564,11.0273,11.0671,11.1259,11.1991,11.2516,11.276]},{"header":{"parameterUnit":"m.s-1","parameterCategory":1,"la1":31.0,"la2":29.5877,"lo1":-88.7671,"lo2":-86.6584,"dx":0.0162,"dy":0.0185,"nx":115,"ny":88,"refTime":"2022-11-27T18:00:00:Z","depth":0,"parameterNumber":3,"parameterNumberName":"V-component_of_WINDS"},"data":[0.0,0.0,0.0,0.0,0.0,0.0,0.0,0.0,0.0,0.0,0.0,0.0,0.0,0.0,0.0,0.0,0.0,0.0,0.0,0.0,0.0,0.0,0.0,0.0,0.0,0.0,0.0,0.0,0.0,0.0,0.0,0.0,0.0,0.0,0.0,0.0,0.0,0.0,0.0,0.0,0.0,0.0,0.0,0.0,0.0,0.0,0.0,0.0,0.0,0.0,0.0,0.0,0.0,0.0,0.0,0.0,0.0,0.0,0.0,0.0,0.0,0.0,0.0,0.0,0.0,0.0,0.0,0.0,0.0,0.0,0.0,0.0,0.0,0.0,0.0,0.0,0.0,0.0,0.0,0.0,0.0,0.0,0.0,0.0,0.0,0.0,0.0,0.0,0.0,0.0,0.0,0.0,0.0,0.0,0.0,0.0,0.0,0.0,0.0,0.0,0.0,0.0,0.0,0.0,0.0,0.0,0.0,0.0,0.0,0.0,0.0,0.0,0.0,0.0,0.0,0.0,0.0,0.0,0.0,0.0,0.0,0.0,0.0,0.0,0.0,0.0,0.0,0.0,0.0,0.0,0.0,0.0,0.0,0.0,0.0,0.0,0.0,0.0,0.0,0.0,0.0,0.0,0.0,0.0,0.0,0.0,0.0,0.0,0.0,0.0,0.0,0.0,0.0,0.0,0.0,0.0,0.0,0.0,0.0,0.0,0.0,0.0,0.0,0.0,0.0,0.0,0.0,0.0,0.0,0.0,0.0,0.0,0.0,0.0,0.0,0.0,0.0,0.0,0.0,0.0,0.0,0.0,0.0,0.0,0.0,0.0,0.0,0.0,0.0,0.0,0.0,0.0,0.0,0.0,0.0,0.0,0.0,0.0,0.0,0.0,0.0,0.0,0.0,0.0,0.0,0.0,0.0,0.0,0.0,0.0,0.0,0.0,0.0,0.0,0.0,0.0,0.0,0.0,0.0,0.0,0.0,0.0,0.0,0.0,0.0,0.0,0.0,0.0,0.0,0.0,0.0,0.0,0.0,0.0,0.0,0.0,0.0,0.0,0.0,0.0,0.0,0.0,0.0,0.0,0.0,0.0,0.0,0.0,0.0,0.0,0.0,0.0,0.0,0.0,0.0,0.0,0.0,0.0,0.0,0.0,0.0,0.0,0.0,0.0,0.0,0.0,0.0,0.0,0.0,0.0,0.0,0.0,0.0,0.0,0.0,0.0,0.0,0.0,0.0,0.0,0.0,0.0,0.0,0.0,0.0,0.0,0.0,0.0,0.0,0.0,0.0,0.0,0.0,0.0,0.0,0.0,0.0,0.0,0.0,0.0,0.0,0.0,0.0,0.0,0.0,0.0,0.0,0.0,0.0,0.0,0.0,0.0,0.0,0.0,0.0,0.0,0.0,0.0,0.0,0.0,0.0,0.0,0.0,0.0,0.0,0.0,0.0,0.0,0.0,0.0,0.0,0.0,0.0,0.0,0.0,0.0,0.0,0.0,0.0,0.0,0.0,0.0,0.0,0.0,0.0,0.0,0.0,0.0,0.0,0.0,0.0,0.0,0.0,0.0,0.0,0.0,0.0,0.0,0.0,0.0,0.0,0.0,0.0,0.0,0.0,0.0,0.0,0.0,0.0,0.0,0.0,0.0,0.0,0.0,0.0,0.0,0.0,0.0,0.0,0.0,0.0,0.0,0.0,0.0,0.0,0.0,0.0,0.0,0.0,0.0,0.0,0.0,0.0,0.0,0.0,0.0,0.0,0.0,0.0,0.0,0.0,0.0,0.0,0.0,0.0,0.0,0.0,0.0,0.0,0.0,0.0,0.0,0.0,0.0,0.0,0.0,0.0,0.0,0.0,0.0,0.0,0.0,0.0,0.0,0.0,0.0,0.0,0.0,0.0,0.0,0.0,0.0,0.0,0.0,0.0,0.0,0.0,0.0,0.0,0.0,0.0,0.0,0.0,0.0,0.0,0.0,0.0,0.0,0.0,0.0,0.0,0.0,0.0,0.0,0.0,0.0,0.0,0.0,0.0,0.0,0.0,0.0,0.0,0.0,0.0,0.0,0.0,0.0,0.0,0.0,0.0,0.0,0.0,0.0,0.0,0.0,0.0,0.0,0.0,0.0,0.0,0.0,0.0,0.0,0.0,0.0,0.0,0.0,0.0,0.0,0.0,0.0,0.0,0.0,0.0,0.0,0.0,0.0,0.0,0.0,0.0,0.0,0.0,0.0,0.0,0.0,0.0,0.0,0.0,0.0,0.0,0.0,0.0,0.0,0.0,0.0,0.0,0.0,0.0,0.0,0.0,0.0,0.0,0.0,0.0,0.0,0.0,0.0,0.0,0.0,0.0,0.0,0.0,0.0,0.0,0.0,0.0,0.0,0.0,0.0,0.0,0.0,0.0,0.0,0.0,0.0,0.0,0.0,0.0,0.0,0.0,0.0,0.0,0.0,0.0,0.0,0.0,0.0,0.0,0.0,0.0,0.0,0.0,0.0,0.0,0.0,0.0,0.0,0.0,0.0,0.0,0.0,0.0,0.0,0.0,0.0,0.0,0.0,0.0,0.0,0.0,0.0,0.0,0.0,0.0,0.0,0.0,0.0,0.0,0.0,0.0,0.0,0.0,0.0,0.0,0.0,0.0,0.0,0.0,0.0,0.0,0.0,0.0,0.0,0.0,0.0,0.0,0.0,0.0,0.0,0.0,0.0,0.0,0.0,0.0,0.0,0.0,0.0,0.0,0.0,0.0,0.0,0.0,0.0,0.0,0.0,0.0,0.0,0.0,0.0,0.0,0.0,0.0,0.0,0.0,0.0,0.0,0.0,0.0,0.0,0.0,0.0,0.0,0.0,0.0,0.0,0.0,0.0,0.0,0.0,0.0,0.0,0.0,0.0,0.0,0.0,0.0,0.0,0.0,0.0,0.0,0.0,0.0,0.0,0.0,0.0,0.0,0.0,0.0,0.0,0.0,0.0,0.0,0.0,0.0,0.0,0.0,0.0,0.0,0.0,0.0,0.0,0.0,0.0,0.0,0.0,0.0,0.0,0.0,0.0,0.0,0.0,0.0,0.0,0.0,0.0,0.0,0.0,0.0,0.0,0.0,0.0,0.0,0.0,0.0,0.0,0.0,0.0,0.0,0.0,0.0,0.0,0.0,0.0,0.0,0.0,0.0,0.0,0.0,0.0,0.0,0.0,0.0,0.0,0.0,0.0,0.0,0.0,0.0,0.0,0.0,0.0,0.0,0.0,0.0,0.0,0.0,0.0,0.0,0.0,0.0,0.0,0.0,0.0,0.0,0.0,0.0,0.0,0.0,0.0,0.0,0.0,0.0,0.0,0.0,0.0,0.0,0.0,0.0,0.0,0.0,0.0,0.0,0.0,0.0,0.0,0.0,0.0,0.0,0.0,0.0,0.0,0.0,0.0,0.0,0.0,0.0,0.0,0.0,0.0,0.0,0.0,0.0,0.0,0.0,0.0,0.0,0.0,0.0,0.0,0.0,0.0,0.0,0.0,0.0,0.0,0.0,0.0,0.0,0.0,0.0,0.0,0.0,0.0,0.0,0.0,0.0,0.0,0.0,0.0,0.0,0.0,0.0,0.0,0.0,0.0,0.0,0.0,0.0,0.0,0.0,0.0,0.0,0.0,0.0,0.0,0.0,0.0,0.0,0.0,0.0,0.0,0.0,0.0,0.0,0.0,0.0,0.0,0.0,0.0,0.0,0.0,0.0,0.0,0.0,0.0,0.0,0.0,0.0,0.0,0.0,0.0,0.0,0.0,0.0,0.0,0.0,0.0,0.0,0.0,0.0,0.0,0.0,0.0,0.0,0.0,0.0,0.0,0.0,0.0,0.0,0.0,0.0,0.0,0.0,0.0,0.0,0.0,0.0,0.0,0.0,0.0,0.0,0.0,0.0,0.0,0.0,0.0,0.0,0.0,0.0,0.0,0.0,0.0,0.0,0.0,0.0,0.0,0.0,0.0,0.0,0.0,0.0,0.0,0.0,0.0,0.0,0.0,0.0,0.0,0.0,0.0,0.0,0.0,0.0,0.0,0.0,0.0,0.0,0.0,0.0,0.0,0.0,0.0,0.0,0.0,0.0,0.0,0.0,0.0,0.0,0.0,0.0,0.0,0.0,0.0,0.0,0.0,0.0,0.0,0.0,0.0,0.0,0.0,0.0,0.0,0.0,0.0,0.0,0.0,0.0,0.0,0.0,0.0,0.0,0.0,0.0,0.0,0.0,0.0,0.0,0.0,0.8343,0.0,0.0,0.0,0.789,0.0,0.0,0.0,0.0,0.0,0.0,0.0,0.0,0.0,0.0,0.0,0.0,0.0,0.0,0.0,0.0,0.0,0.0,0.0,0.0,0.0,0.0,0.0,0.0,0.0,0.0,0.0,0.0,0.0,0.0,0.0,0.0,0.0,0.0,0.0,0.0,0.0,0.0,0.0,0.0,0.0,0.0,0.0,0.0,0.0,0.0,0.0,0.0,0.0,0.0,0.0,0.0,0.0,0.0,0.0,0.0,0.0,0.0,0.0,0.0,0.0,0.0,0.0,0.0,0.0,0.0,0.0,0.0,0.0,0.0,0.0,0.0,0.0,0.0,0.0,0.0,0.0,0.0,0.0,0.0,0.0,0.0,0.0,0.0,0.0,0.0,0.0,0.0,0.0,0.0,0.0,0.0,0.0,0.0,0.0,0.0,0.0,0.0,0.0,0.0,0.0,0.0,0.0,0.0,0.0,0.0,0.0,0.0,0.0,0.0,0.9073,0.8193,0.8634,0.8628,0.8098,0.0,0.0,0.0,0.0,0.0,0.0,0.0,0.0,0.0,0.0,0.0,0.0,0.0,0.0,0.0,0.0,0.0,0.0,0.0,0.0,0.0,0.0,0.0,0.0,0.0,0.0,0.0,0.0,0.0,0.0,0.0,0.0,0.0,0.0,0.0,0.0,0.0,0.0,0.0,0.0,0.0,0.0,0.0,0.0,0.0,0.0,0.0,0.0,0.0,0.0,0.0,0.0,0.0,0.0,0.0,0.0,0.0,0.0,0.0,0.0,0.0,0.0,0.0,0.0,0.0,0.0,0.0,0.0,0.0,0.0,0.0,0.0,0.0,0.0,0.0,0.0,0.0,0.0,0.0,0.0,0.0,0.0,0.0,0.0,0.0,0.0,0.0,0.0,0.0,0.0,0.0,0.0,0.0,0.0,0.0,0.0,0.0,0.0,0.0,0.0,0.0,0.0,0.0,0.0,0.0,0.0,0.0,0.0,0.0,0.0,0.0,0.0,0.987,0.9798,0.9044,0.0,0.0,0.0,0.0,0.0,0.0,0.0,0.0,0.0,0.0,0.0,0.0,0.0,0.0,0.0,0.0,0.0,0.0,0.0,0.0,0.0,0.0,0.0,0.0,0.0,0.0,0.0,0.0,0.0,0.0,0.0,0.0,0.0,0.0,0.0,0.0,0.0,0.0,0.0,0.0,0.0,0.0,0.0,0.0,0.0,0.0,0.0,0.0,0.0,0.0,0.0,0.0,0.0,0.0,0.0,0.0,0.0,0.0,0.0,0.0,0.0,0.0,0.0,0.0,0.0,0.0,0.0,0.0,0.0,0.0,0.0,0.0,0.0,0.0,0.0,0.0,0.0,0.0,0.0,0.0,0.0,0.0,0.0,0.0,0.0,0.0,0.0,0.0,0.0,0.0,0.0,0.0,0.0,0.0,0.0,0.0,0.0,0.0,0.0,0.0,0.0,0.0,0.0,0.0,0.0,0.0,0.0,0.0,0.0,0.0,1.1758,1.2367,1.2753,0.0,1.1204,0.0,0.0,0.0,0.0,0.0,0.0,0.0,0.0,0.0,0.0,0.0,0.0,0.0,0.0,0.0,0.0,0.0,0.0,0.0,0.0,0.0,0.0,0.0,0.0,0.0,0.0,0.0,0.0,0.0,0.0,0.0,0.0,0.0,0.0,0.0,0.0,0.0,0.0,0.0,0.0,0.0,0.0,0.0,0.0,0.0,0.0,0.0,0.0,0.0,0.0,0.0,0.0,0.0,0.0,0.0,0.0,0.0,0.0,0.0,0.0,0.0,0.0,0.0,0.0,0.0,0.0,0.0,0.0,0.0,0.0,0.0,0.0,0.0,0.0,0.0,0.0,0.0,0.0,0.0,0.0,0.0,0.0,0.0,0.0,0.0,0.0,0.0,0.0,0.0,0.0,0.0,0.0,0.0,0.0,0.0,0.0,0.0,0.0,0.0,0.0,0.0,0.0,0.0,0.0,0.0,0.0,0.0,0.0,0.0,0.0,1.1406,1.2082,1.3017,1.2721,0.0,0.0,0.0,0.0,0.0,0.0,0.0,0.0,0.0,0.0,0.0,0.0,0.0,0.0,0.0,0.0,0.0,0.0,0.0,0.0,0.0,0.0,0.0,0.0,0.0,0.0,0.0,0.0,0.0,0.0,0.0,0.0,0.0,0.0,0.0,0.0,0.0,0.0,0.0,0.0,0.0,0.0,0.0,0.0,0.0,0.0,0.0,0.0,0.0,0.0,0.0,0.0,0.0,0.0,0.0,0.0,0.0,0.0,0.0,0.0,0.0,0.0,0.0,0.0,0.0,0.0,0.0,0.0,0.0,0.0,0.0,0.0,0.0,0.0,0.0,0.0,0.0,0.0,0.0,0.0,0.0,0.0,0.0,0.0,0.0,0.0,0.0,0.0,0.0,0.0,0.0,0.0,0.0,0.0,0.0,0.0,0.0,0.0,0.0,0.0,0.0,0.0,0.0,0.0,0.0,0.0,0.0,0.0,0.0,0.0,1.2248,1.27,1.3431,1.4238,1.3868,1.2194,0.0,0.0,0.0,0.0,0.0,0.0,0.0,0.0,0.0,0.0,0.0,0.0,0.0,0.0,0.0,0.0,0.0,0.0,0.0,0.0,0.0,0.0,0.0,0.0,0.0,0.0,0.0,0.0,0.0,0.0,0.0,0.0,0.0,0.0,0.0,0.0,0.0,0.0,0.0,0.0,0.0,0.0,0.0,0.0,0.0,0.0,0.0,0.0,0.0,0.0,0.0,0.0,0.0,0.0,0.0,0.0,0.0,0.0,0.0,0.0,0.0,0.0,0.0,0.0,0.0,0.0,0.0,0.0,0.0,0.0,0.0,0.0,0.0,0.0,0.0,0.0,0.0,0.0,0.0,0.0,0.0,0.0,0.0,0.0,0.0,0.0,0.0,0.0,0.0,0.0,0.0,0.0,0.0,0.0,0.0,0.0,0.0,0.0,0.0,0.0,0.0,0.0,0.0,0.0,0.0,0.0,0.0,0.0,1.6613,1.6466,1.6888,1.7743,1.7542,1.6815,0.0,0.0,0.0,0.0,0.0,0.0,0.0,0.0,0.0,0.0,0.0,0.0,0.0,0.0,0.0,0.0,0.0,0.0,0.0,0.0,0.0,0.0,0.0,0.0,0.0,0.0,0.0,0.0,0.0,0.0,0.0,0.0,0.0,0.0,0.0,0.0,0.0,0.0,0.0,0.0,0.0,0.0,0.0,0.0,0.0,0.0,0.0,0.0,0.0,0.0,0.0,0.0,0.0,0.0,0.0,0.0,0.0,0.0,0.0,0.0,0.0,0.0,0.0,0.0,0.0,0.0,0.0,0.0,0.0,0.0,0.0,0.0,0.0,0.0,0.0,0.0,0.0,0.0,0.0,0.0,0.0,0.0,0.0,0.0,0.0,0.0,0.0,0.0,0.0,0.0,0.0,0.0,0.0,0.0,0.0,0.0,0.0,0.0,0.0,0.0,0.0,0.0,0.0,0.0,0.0,0.0,0.0,0.0,0.0,1.4792,1.609,1.6211,1.5048,1.707,1.7575,0.0,0.0,0.0,0.0,0.0,0.0,0.0,0.0,0.0,0.0,0.0,0.0,0.0,0.0,0.0,0.0,0.0,0.0,0.0,0.0,0.0,0.0,0.0,0.0,0.0,0.0,0.0,0.0,0.0,0.0,0.0,0.0,0.0,0.0,0.0,0.0,0.0,0.0,0.0,0.0,0.0,0.0,0.0,0.0,0.0,0.0,0.0,0.0,0.0,0.0,0.0,0.0,0.0,0.0,0.0,0.0,0.0,0.0,0.0,0.0,0.0,0.0,0.0,0.0,0.0,0.0,0.0,0.0,0.0,0.0,0.0,0.0,0.0,0.0,0.0,0.0,0.0,0.0,0.0,0.0,0.0,0.0,0.0,0.0,0.0,0.0,0.0,0.0,0.0,0.0,0.0,0.0,0.0,0.0,0.0,0.0,0.0,0.0,0.0,0.0,0.0,0.0,0.0,0.0,0.0,0.0,0.0,0.0,0.0,1.5432,1.7096,1.7114,1.5438,1.7636,1.8313,0.0,0.0,0.0,0.0,0.0,0.0,0.0,0.0,0.0,0.0,0.0,0.0,0.0,0.0,0.0,0.0,0.0,0.0,0.0,0.0,0.0,0.0,0.0,0.0,0.0,0.0,0.0,0.0,0.0,0.0,0.0,0.0,0.0,0.0,0.0,0.0,0.0,0.0,0.0,0.0,0.0,0.0,0.0,0.0,0.0,0.0,0.0,0.0,0.0,0.0,0.0,0.0,0.0,0.0,0.0,0.0,0.0,0.0,0.0,0.0,0.0,0.0,0.0,0.0,0.0,0.0,0.0,0.0,0.0,0.0,0.0,0.0,0.0,0.0,0.0,0.0,0.0,0.0,0.0,0.0,0.0,0.0,0.0,0.0,0.0,0.0,0.0,0.0,0.0,0.0,0.0,0.0,0.0,0.0,0.0,0.0,0.0,0.0,0.0,0.0,0.0,0.0,0.0,0.0,0.0,0.0,0.0,0.0,1.7859,1.9313,1.9903,1.9987,1.9826,1.9554,1.9124,0.0,0.0,0.0,0.0,0.0,0.0,0.0,0.0,0.0,0.0,0.0,0.0,0.0,0.0,0.0,0.0,0.0,0.0,0.0,0.0,0.0,0.0,0.0,0.0,0.0,0.0,0.0,0.0,0.0,0.0,0.0,0.0,0.0,0.0,0.0,0.0,0.0,0.0,0.0,0.0,0.0,0.0,0.0,0.0,0.0,0.0,0.0,0.0,0.0,0.0,0.0,0.0,0.0,0.0,0.0,0.0,0.0,0.0,0.0,0.0,0.0,0.0,0.0,0.0,0.0,0.0,0.0,0.0,0.0,0.0,0.0,0.0,0.0,0.0,0.0,0.0,0.0,0.0,0.0,0.0,0.0,0.0,0.0,0.0,0.0,0.0,0.0,0.0,0.0,0.0,0.0,0.0,0.0,0.0,0.0,0.0,0.0,0.0,0.0,0.0,0.0,0.0,0.0,0.0,0.0,0.0,0.0,0.0,0.0,1.7711,1.9752,2.0212,1.8954,1.9458,1.9588,0.0,0.0,0.0,0.0,0.0,0.0,0.0,0.0,0.0,0.0,0.0,0.0,0.0,0.0,0.0,0.0,0.0,0.0,0.0,0.0,0.0,0.0,0.0,0.0,0.0,0.0,0.0,0.0,0.0,0.0,0.0,0.0,0.0,0.0,0.0,0.0,0.0,0.0,0.0,0.0,0.0,0.0,0.0,0.0,0.0,0.0,0.0,0.0,0.0,0.0,0.0,0.0,0.0,0.0,0.0,0.0,0.0,0.0,0.0,0.0,0.0,0.0,0.0,0.0,0.0,0.0,0.0,0.0,0.0,0.0,0.0,0.0,0.0,0.0,0.0,0.0,0.0,0.0,0.0,0.0,0.0,0.0,0.0,0.0,0.0,0.0,0.0,0.0,0.0,0.0,0.0,0.0,0.0,0.0,0.0,0.0,0.0,0.0,0.0,0.0,0.0,0.0,0.0,0.0,0.0,0.0,0.0,0.0,0.0,1.8993,2.0799,2.125,2.0038,2.0236,2.0115,1.9632,0.0,0.0,0.0,0.0,0.0,0.0,0.0,0.0,0.0,0.0,0.0,0.0,0.0,0.0,0.0,0.0,0.0,0.0,0.0,0.0,0.0,0.0,0.0,0.0,0.0,0.0,0.0,0.0,0.0,0.0,0.0,0.0,0.0,0.0,0.0,0.0,0.0,0.0,0.0,0.0,0.0,0.0,0.0,0.0,0.0,0.0,0.0,0.0,0.0,0.0,0.0,0.0,0.0,0.0,0.0,0.0,0.0,0.0,0.0,0.0,0.0,0.0,0.0,0.0,0.0,0.0,0.0,0.0,0.0,0.0,0.0,0.0,0.0,0.0,0.0,0.0,0.0,0.0,0.0,0.0,0.0,0.0,0.0,0.0,0.0,0.0,0.0,0.0,0.0,0.0,0.0,0.0,0.0,0.0,0.0,0.0,0.0,0.0,0.0,0.0,0.0,0.0,0.0,0.0,0.0,0.0,0.0,0.0,2.2308,2.284,2.2973,2.2664,2.168,2.0773,0.0,0.0,0.0,0.0,0.0,0.0,0.0,0.0,0.0,0.0,0.0,0.0,0.0,0.0,0.0,0.0,0.0,0.0,0.0,0.0,0.0,0.0,0.0,0.0,0.0,0.0,0.0,0.0,0.0,0.0,0.0,0.0,0.0,0.0,0.0,0.0,0.0,0.0,0.0,0.0,0.0,0.0,0.0,0.0,0.0,0.0,0.0,0.0,0.0,0.0,0.0,0.0,0.0,0.0,0.0,0.0,0.0,0.0,0.0,0.0,0.0,0.0,0.0,0.0,0.0,0.0,0.0,0.0,0.0,0.0,0.0,0.0,0.0,0.0,0.0,0.0,0.0,0.0,0.0,0.0,0.0,0.0,0.0,0.0,0.0,0.0,0.0,0.0,0.0,0.0,0.0,0.0,0.0,0.0,0.0,0.0,0.0,0.0,0.0,0.0,0.0,0.0,0.0,0.0,0.0,0.0,0.0,0.0,0.0,2.2586,2.3261,2.3406,2.3005,2.2139,2.1396,0.0,0.0,0.0,0.0,0.0,0.0,0.0,0.0,0.0,0.0,0.0,0.0,0.0,0.0,0.0,0.0,0.0,0.0,0.0,0.0,0.0,0.0,0.0,0.0,0.0,0.0,0.0,0.0,0.0,0.0,0.0,0.0,0.0,0.0,0.0,0.0,0.0,0.0,0.0,0.0,0.0,0.0,0.0,0.0,0.0,0.0,0.0,0.0,0.0,0.0,0.0,0.0,0.0,0.0,0.0,0.0,0.0,0.0,0.0,0.0,0.0,0.0,0.0,0.0,0.0,0.0,0.0,0.0,0.0,0.0,0.0,0.0,0.0,0.0,0.0,0.0,0.0,0.0,0.0,0.0,0.0,0.0,0.0,0.0,0.0,0.0,0.0,0.0,0.0,0.0,0.0,0.0,0.0,0.0,0.0,0.0,0.0,0.0,0.0,0.0,0.0,0.0,0.0,0.0,0.0,0.0,0.0,0.0,2.2869,2.3486,2.3937,2.4001,2.3739,2.2768,2.1933,0.0,0.0,0.0,0.0,0.0,0.0,0.0,0.0,0.0,0.0,0.0,0.0,0.0,0.0,0.0,0.0,0.0,0.0,0.0,0.0,0.0,0.0,0.0,0.0,0.0,0.0,0.0,0.0,0.0,0.0,0.0,0.0,0.0,0.0,0.0,0.0,0.0,0.0,0.0,0.0,0.0,0.0,0.0,0.0,0.0,0.0,0.0,0.0,0.0,0.0,0.0,0.0,0.0,0.0,0.0,0.0,0.0,0.0,0.0,0.0,0.0,0.0,0.0,0.0,0.0,0.0,0.0,0.0,0.0,0.0,0.0,0.0,0.0,0.0,0.0,0.0,0.0,0.0,0.0,0.0,0.0,0.0,0.0,0.0,0.0,0.0,0.0,0.0,0.0,0.0,0.0,0.0,0.0,0.0,0.0,0.0,0.0,0.0,0.0,0.0,0.0,0.0,0.0,0.0,0.0,0.0,0.0,0.0,2.3776,2.4523,2.4592,2.4604,2.4568,2.3413,2.2393,0.0,0.0,0.0,0.0,0.0,0.0,0.0,0.0,0.0,0.0,0.0,0.0,0.0,0.0,0.0,0.0,0.0,0.0,0.0,0.0,0.0,0.0,0.0,0.0,0.0,0.0,0.0,0.0,0.0,0.0,0.0,0.0,0.0,0.0,0.0,0.0,0.0,0.0,0.0,0.0,0.0,0.0,0.0,0.0,0.0,0.0,0.0,0.0,0.0,0.0,0.0,0.0,0.0,0.0,0.0,0.0,0.0,0.0,0.0,0.0,0.0,0.0,0.0,0.0,0.0,0.0,0.0,0.0,0.0,0.0,0.0,0.0,0.0,0.0,0.0,0.0,0.0,0.0,0.0,0.0,0.0,0.0,0.0,0.0,0.0,0.0,0.0,0.0,0.0,0.0,0.0,0.0,0.0,0.0,0.0,0.0,0.0,0.0,0.0,0.0,0.0,0.0,0.0,0.0,0.0,0.0,0.0,0.0,2.3692,2.4278,2.4496,2.4604,2.4604,2.3736,2.2795,0.0,0.0,0.0,0.0,0.0,0.0,0.0,0.0,0.0,0.0,0.0,0.0,0.0,0.0,0.0,0.0,0.0,0.0,0.0,0.0,0.0,0.0,0.0,0.0,0.0,0.0,0.0,0.0,0.0,0.0,0.0,0.0,0.0,0.0,0.0,0.0,0.0,0.0,0.0,0.0,0.0,0.0,0.0,0.0,0.0,0.0,0.0,0.0,1.0209,0.0,0.0,0.0,0.0,0.0,0.0,0.0,0.0,0.0,0.0,0.0,0.0,0.0,0.0,0.0,0.0,0.0,0.0,0.0,0.0,0.0,0.0,0.0,0.0,0.0,0.0,0.0,0.0,0.0,0.0,0.0,0.0,0.0,0.0,0.0,0.0,0.0,0.0,0.0,0.0,0.0,0.0,0.0,0.0,0.0,0.0,0.0,0.0,0.0,0.0,0.0,0.0,0.0,0.0,0.0,0.0,0.0,0.0,0.0,2.4354,2.4752,2.5017,2.509,2.4978,2.4318,2.3454,0.0,0.0,0.0,0.0,0.0,0.0,0.0,0.0,0.0,0.0,0.0,0.0,0.0,0.0,0.0,0.0,0.0,0.0,0.0,0.0,0.0,0.0,0.0,0.0,0.0,0.0,0.0,0.0,0.0,0.0,0.0,0.0,0.0,0.0,0.0,0.0,0.0,0.0,0.0,0.0,0.0,0.0,0.0,0.0,0.0,0.0,0.0,0.0,0.0,0.0,0.0,0.0,0.0,0.0,0.0,0.0,0.0,0.0,0.0,0.0,0.0,0.0,0.0,0.0,0.0,0.0,0.0,0.0,0.0,0.0,0.0,0.0,0.0,0.0,0.0,0.0,0.0,0.0,0.0,0.0,0.0,0.0,0.0,0.0,0.0,0.0,0.0,0.0,0.0,0.0,0.0,0.0,0.0,0.0,0.0,0.0,0.0,0.0,0.0,0.0,0.0,0.0,0.0,0.0,0.0,0.0,0.0,2.423,2.5114,2.5472,2.5668,2.5726,2.5533,2.4957,2.4073,2.2852,0.0,0.0,0.0,0.0,0.0,0.0,0.0,0.0,0.0,0.0,0.0,0.0,0.0,0.0,0.0,0.0,0.0,0.0,0.0,0.0,0.0,0.0,0.0,0.0,0.0,0.0,0.0,0.0,0.0,0.0,0.0,0.0,0.0,0.0,0.0,0.0,0.0,0.0,0.9787,0.9928,0.0,0.0,0.0,0.0,0.0,0.0,0.0,0.0,1.1153,0.0,0.0,0.0,0.0,0.0,0.0,0.0,0.0,0.0,0.0,0.0,0.0,0.0,0.0,0.0,0.0,0.0,0.0,0.0,0.0,0.0,0.0,0.0,0.0,0.0,0.0,0.0,0.0,0.0,0.0,0.0,0.0,0.0,0.0,0.0,0.0,0.0,0.0,0.0,0.0,0.0,0.0,0.0,0.0,0.0,0.0,0.0,0.0,0.0,0.0,0.0,0.0,0.0,0.0,0.0,0.0,2.3595,2.4315,2.4993,2.5726,2.5764,2.5895,2.6039,2.534,2.4415,2.3306,0.0,0.0,0.0,0.0,0.0,0.0,0.0,0.0,0.0,0.0,0.0,0.0,0.0,0.0,0.0,0.0,0.0,0.0,0.0,0.0,0.0,0.0,0.0,0.0,0.0,0.0,0.0,0.0,0.0,0.0,0.0,0.0,0.0,0.0,0.0,0.0,0.0,0.0,0.0,1.1551,1.1264,0.0,0.0,0.0,0.0,0.0,0.0,0.0,0.0,1.332,0.0,0.0,0.0,0.0,0.0,0.0,0.0,0.0,0.0,0.0,0.0,0.0,0.0,0.0,0.0,0.0,0.0,0.0,0.0,0.0,0.0,0.0,0.0,0.0,0.0,0.0,0.0,0.0,0.0,0.0,0.0,0.0,0.0,0.0,0.0,0.0,0.0,0.0,0.0,0.0,0.0,0.0,0.0,0.0,0.0,0.0,0.0,0.0,0.0,0.0,0.0,0.0,0.0,0.0,0.0,2.3824,2.5005,2.5907,2.6413,2.6437,2.6425,2.6401,2.5487,2.449,0.0,0.0,0.0,0.0,0.0,0.0,0.0,0.0,0.0,0.0,0.0,0.0,0.0,0.0,0.0,0.0,0.0,0.0,0.0,0.0,0.0,0.0,0.0,0.0,0.0,0.0,0.0,0.0,0.0,0.0,0.0,0.0,0.0,0.0,0.0,0.0,0.0,0.0,0.0,0.0,1.2246,1.2851,1.4316,0.0,0.0,0.0,0.0,0.0,0.0,1.36,1.3658,0.0,0.0,0.0,0.0,0.0,0.0,0.0,0.0,0.0,0.0,0.0,0.0,0.0,0.0,0.0,0.0,0.0,0.0,0.0,0.0,0.0,0.0,0.0,0.0,0.0,0.0,0.0,0.0,0.0,0.0,0.0,0.0,0.0,0.0,0.0,0.0,0.0,0.0,0.0,0.0,0.0,0.0,0.0,0.0,0.0,0.0,0.0,0.0,0.0,0.0,0.0,0.0,0.0,0.0,0.0,2.3933,2.5668,2.6753,2.7077,2.704,2.6932,2.6763,2.5716,2.468,0.0,0.0,0.0,0.0,0.0,0.0,0.0,0.0,0.0,0.0,0.0,0.0,0.0,0.0,0.0,0.0,0.0,0.0,0.0,0.0,0.0,0.0,0.0,0.0,0.0,0.0,0.0,0.0,0.0,0.0,0.0,0.0,0.0,0.0,0.0,0.0,0.0,0.0,0.0,0.0,0.0,1.4308,1.5181,1.5595,0.0,0.0,0.0,0.0,1.3929,1.4677,0.0,0.0,0.0,0.0,0.0,0.0,0.0,0.0,0.0,0.0,0.0,0.0,0.0,0.0,0.0,0.0,0.0,0.0,0.0,0.0,0.0,0.0,0.0,0.0,0.0,0.0,0.0,0.0,0.0,0.0,0.0,0.0,0.0,0.0,0.0,0.0,0.0,0.0,0.0,0.0,0.0,0.0,0.0,0.0,0.0,0.0,0.0,0.0,0.0,0.0,0.0,0.0,0.0,0.0,0.0,0.0,2.4198,2.5764,2.6859,2.7318,2.7125,2.7101,2.7282,2.6268,2.5316,0.0,0.0,0.0,0.0,0.0,0.0,0.0,0.0,0.0,0.0,0.0,0.0,0.0,0.0,0.0,0.0,0.0,0.0,0.0,0.0,0.0,0.0,0.0,0.0,0.0,0.0,0.0,0.0,0.0,0.0,0.0,0.0,0.0,0.0,0.0,0.0,0.0,0.0,0.0,0.0,0.0,1.51,1.648,1.617,1.612,0.0,0.0,1.8991,1.9957,2.0263,0.0,0.0,0.0,0.0,0.0,0.0,0.0,0.0,0.0,0.0,0.0,0.0,0.0,0.0,0.0,0.0,0.0,0.0,0.0,0.0,0.0,0.0,0.0,0.0,0.0,0.0,0.0,0.0,0.0,0.0,0.0,0.0,0.0,0.0,0.0,0.0,0.0,0.0,0.0,0.0,0.0,0.0,0.0,0.0,0.0,0.0,0.0,0.0,0.0,0.0,0.0,0.0,0.0,0.0,0.0,2.4234,2.4692,2.6234,2.7306,2.7836,2.7751,2.7655,2.7642,2.6739,2.5822,0.0,0.0,0.0,0.0,0.0,0.0,0.0,0.0,0.0,0.0,0.0,0.0,0.0,0.0,0.0,0.0,0.0,0.0,0.0,0.0,0.0,0.0,0.0,0.0,0.0,0.0,0.0,0.0,0.0,0.0,0.0,0.0,0.0,0.0,0.0,0.0,0.0,0.0,0.0,0.0,0.0,0.0,1.7702,1.7563,0.0,0.0,0.0,1.9448,1.9725,0.0,0.0,0.0,0.0,0.0,0.0,0.0,0.0,0.0,0.0,0.0,0.0,0.0,0.0,0.0,0.0,0.0,0.0,0.0,0.0,0.0,0.0,0.0,0.0,0.0,0.0,0.0,0.0,0.0,0.0,0.0,0.0,0.0,0.0,0.0,0.0,0.0,0.0,0.0,0.0,0.0,0.0,0.0,0.0,0.0,0.0,0.0,0.0,0.0,0.0,0.0,0.0,0.0,0.0,0.0,0.0,0.0,2.5029,2.6787,2.7884,2.8186,2.8198,2.8113,2.7885,2.7125,0.0,0.0,0.0,0.0,0.0,0.0,0.0,0.0,0.0,0.0,0.0,0.0,0.0,0.0,0.0,0.0,0.0,0.0,0.0,0.0,0.0,0.0,0.0,0.0,0.0,0.0,0.0,1.5753,0.0,0.0,0.0,0.0,0.0,0.0,0.0,0.0,0.0,0.0,0.0,0.0,0.0,0.0,1.9068,1.8956,1.9206,2.0076,0.0,0.0,2.0261,2.0436,2.1398,2.1702,0.0,0.0,0.0,0.0,0.0,0.0,0.0,0.0,0.0,0.0,0.0,0.0,0.0,0.0,0.0,0.0,0.0,0.0,0.0,0.0,0.0,0.0,0.0,0.0,0.0,0.0,0.0,0.0,0.0,0.0,0.0,0.0,0.0,0.0,0.0,0.0,0.0,0.0,0.0,0.0,0.0,0.0,0.0,0.0,0.0,0.0,0.0,0.0,0.0,0.0,0.0,0.0,0.0,0.0,2.5472,2.5102,2.733,2.8403,2.8222,2.8198,2.8198,2.8162,2.739,2.6813,0.0,0.0,0.0,0.0,0.0,0.0,0.0,0.0,0.0,0.0,0.0,0.0,0.0,0.0,0.0,0.0,0.0,0.0,0.0,0.0,0.0,0.0,0.0,0.0,0.0,0.0,0.0,0.0,0.0,0.0,0.0,0.0,0.0,0.0,0.0,0.0,0.0,0.0,0.0,0.0,0.0,2.0044,2.0401,2.0965,2.2034,0.0,2.3104,2.2854,2.4988,2.4977,2.4696,2.458,0.0,0.0,0.0,0.0,0.0,0.0,0.0,0.0,0.0,0.0,0.0,0.0,0.0,0.0,0.0,0.0,0.0,0.0,0.0,0.0,0.0,0.0,0.0,0.0,0.0,0.0,0.0,0.0,0.0,0.0,0.0,0.0,0.0,0.0,0.0,0.0,0.0,0.0,0.0,0.0,0.0,0.0,0.0,0.0,0.0,0.0,0.0,0.0,0.0,0.0,0.0,0.0,0.0,2.5629,2.5762,2.745,2.8475,2.8657,2.8524,2.8512,2.8669,2.8089,2.7607,0.0,0.0,0.0,0.0,0.0,0.0,0.0,0.0,0.0,0.0,0.0,0.0,0.0,0.0,0.0,0.0,0.0,0.0,0.0,0.0,0.0,0.0,0.0,0.0,0.0,0.0,0.0,0.0,1.9052,1.9197,1.8967,0.0,0.0,0.0,0.0,0.0,0.0,0.0,0.0,0.0,0.0,2.183,2.161,2.1822,0.0,0.0,2.4119,2.3753,2.5958,2.5991,2.581,2.5957,2.5557,0.0,0.0,0.0,0.0,0.0,0.0,0.0,0.0,0.0,0.0,0.0,0.0,0.0,0.0,0.0,0.0,0.0,0.0,0.0,0.0,0.0,0.0,0.0,0.0,0.0,0.0,0.0,0.0,0.0,0.0,0.0,0.0,0.0,0.0,0.0,0.0,0.0,0.0,0.0,0.0,0.0,0.0,0.0,0.0,0.0,0.0,0.0,0.0,0.0,0.0,0.0,0.0,2.6057,2.645,2.7676,2.862,2.9213,2.8898,2.8801,2.8994,2.8789,2.852,0.0,0.0,0.0,0.0,0.0,0.0,0.0,0.0,0.0,0.0,0.0,0.0,0.0,0.0,0.0,0.0,0.0,0.0,0.0,0.0,0.0,0.0,0.0,0.0,0.0,0.0,0.0,0.0,1.9753,2.0079,1.9963,0.0,0.0,0.0,0.0,0.0,0.0,0.0,0.0,0.0,0.0,2.3483,2.3292,2.3332,2.4057,2.6032,2.5277,2.5058,2.6704,2.6739,2.6642,2.692,0.0,0.0,0.0,0.0,0.0,0.0,0.0,0.0,0.0,0.0,0.0,0.0,0.0,0.0,0.0,0.0,0.0,0.0,0.0,0.0,0.0,0.0,0.0,0.0,0.0,0.0,0.0,2.0125,0.0,0.0,1.9407,0.0,0.0,0.0,0.0,0.0,0.0,0.0,0.0,0.0,0.0,0.0,0.0,0.0,0.0,0.0,0.0,0.0,0.0,0.0,0.0,0.0,0.0,2.6996,2.7005,2.8092,2.9006,2.9748,2.9274,2.9031,2.9067,2.9505,2.9512,2.9002,0.0,0.0,0.0,0.0,0.0,0.0,0.0,0.0,0.0,0.0,0.0,0.0,0.0,0.0,0.0,0.0,0.0,0.0,0.0,0.0,0.0,0.0,0.0,0.0,0.0,0.0,1.7832,1.9451,2.1002,0.0,0.0,0.0,0.0,0.0,0.0,0.0,0.0,0.0,2.4562,2.4686,2.4849,2.5579,2.5733,2.5906,2.6536,2.6768,2.7092,2.7668,2.7547,2.7462,0.0,0.0,0.0,0.0,0.0,0.0,0.0,0.0,0.0,0.0,0.0,0.0,0.0,0.0,0.0,0.0,0.0,0.0,0.0,0.0,0.0,0.0,0.0,0.0,0.0,0.0,0.0,2.2722,2.3099,0.0,0.0,0.0,0.0,0.0,0.0,0.0,0.0,0.0,0.0,0.0,2.5684,2.6493,0.0,0.0,0.0,0.0,0.0,0.0,0.0,0.0,0.0,0.0,0.0,0.0,2.8417,2.8145,2.9467,3.0224,3.0258,3.0137,3.0151,3.0326,3.0109,2.984,2.9474,0.0,0.0,0.0,0.0,0.0,0.0,0.0,0.0,0.0,0.0,0.0,0.0,0.0,0.0,0.0,0.0,0.0,0.0,0.0,0.0,0.0,0.0,0.0,0.0,0.0,2.0567,0.0,0.0,0.0,0.0,0.0,0.0,0.0,0.0,0.0,0.0,2.388,2.4676,2.5219,2.5644,2.6078,2.6546,2.6751,2.703,0.0,0.0,0.0,0.0,0.0,0.0,0.0,0.0,0.0,0.0,0.0,0.0,0.0,0.0,2.6441,2.5786,2.5738,2.5714,2.5455,0.0,0.0,0.0,0.0,0.0,0.0,0.0,0.0,0.0,0.0,0.0,0.0,0.0,0.0,2.4957,2.5333,2.5272,0.0,0.0,0.0,0.0,0.0,0.0,0.0,0.0,2.7107,2.771,2.7618,2.8294,2.8628,2.8594,2.8572,2.7831,0.0,0.0,0.0,0.0,0.0,0.0,0.0,0.0,2.9672,2.9504,3.0474,3.1015,3.1085,3.0963,3.0954,3.112,3.0845,3.0557,3.0251,2.9926,2.9203,0.0,0.0,0.0,0.0,0.0,0.0,0.0,0.0,0.0,0.0,0.0,0.0,0.0,0.0,0.0,0.0,0.0,0.0,0.0,0.0,0.0,0.0,0.0,2.2108,0.0,0.0,0.0,0.0,0.0,0.0,0.0,0.0,0.0,2.3969,2.4812,2.5632,2.5943,2.651,2.6994,2.7366,0.0,0.0,0.0,0.0,0.0,0.0,0.0,2.8644,2.8391,2.827,2.8149,2.798,2.7872,2.7764,2.768,0.0,0.0,2.6872,2.6842,2.6844,2.653,2.6281,2.6184,2.6425,2.663,2.6884,0.0,0.0,0.0,0.0,2.6306,0.0,0.0,0.0,2.674,2.6667,0.0,2.668,0.0,0.0,0.0,0.0,2.6042,2.7471,0.0,0.0,2.9588,3.0377,3.0377,3.039,3.0551,3.0808,3.0808,3.0418,2.9703,2.9038,0.0,0.0,0.0,0.0,0.0,0.0,3.0781,3.0977,3.1053,3.1453,3.2142,3.171,3.1461,3.1449,3.1686,3.1645,3.1333,3.0894,3.0145,2.908,2.7086,0.0,0.0,0.0,0.0,0.0,0.0,0.0,0.0,0.0,0.0,0.0,0.0,0.0,0.0,0.0,0.0,0.0,0.0,0.0,0.0,2.1933,0.0,0.0,0.0,0.0,0.0,0.0,0.0,0.0,0.0,2.6703,2.493,2.54,2.616,2.692,0.0,0.0,0.0,0.0,2.7944,2.8222,2.8475,2.862,2.862,2.8849,2.8922,2.8657,0.0,0.0,2.8222,2.8005,2.7909,2.8162,2.8017,2.7836,2.7812,2.7805,2.7646,2.7155,2.7221,2.7318,2.7161,2.7499,2.7932,2.8358,0.0,0.0,0.0,0.0,2.7382,2.7837,2.8516,2.8599,2.8906,2.9361,2.9281,0.0,0.0,0.0,0.0,0.0,0.0,2.8993,2.9362,2.9842,3.0381,3.0946,3.0982,3.1152,3.1447,3.1623,3.1523,3.1139,3.1117,3.0624,2.9732,0.0,0.0,0.0,0.0,3.1757,3.1292,3.2021,3.2455,3.2494,3.2521,3.246,3.2262,3.233,3.2217,3.1877,3.1753,3.1099,2.9918,2.9274,0.0,0.0,0.0,0.0,0.0,0.0,0.0,0.0,0.0,0.0,0.0,0.0,0.0,0.0,0.0,0.0,0.0,0.0,0.0,2.2988,2.4254,2.5424,0.0,0.0,0.0,0.0,0.0,0.0,0.0,0.0,0.0,2.6449,2.6847,2.7306,0.0,0.0,2.8078,2.8427,2.8572,2.8765,2.9019,2.9103,0.0,2.9163,2.9405,2.9417,2.897,2.8657,2.85,2.8476,2.8415,2.8391,2.85,2.8415,2.8367,2.8355,2.8368,2.8251,2.7952,2.7932,2.8029,2.8138,2.8584,2.891,3.1001,3.0257,2.9049,2.8559,2.8591,2.8786,2.9179,2.9731,2.9949,3.0207,3.0564,3.0684,3.0608,3.0398,3.0194,0.0,0.0,0.0,2.9851,3.0412,3.0555,3.0902,3.1396,3.1493,3.1664,3.1874,3.2169,3.2276,3.2209,3.2372,3.2224,3.1751,0.0,3.2133,3.181,3.2544,3.2676,3.2187,3.28,3.3091,3.2917,3.3091,3.3038,3.2781,3.285,3.2663,3.2131,3.2332,3.1942,3.0855,3.051,2.9735,0.0,0.0,0.0,0.0,0.0,0.0,0.0,0.0,0.0,0.0,0.0,2.1353,2.1396,0.0,0.0,0.0,2.4206,2.4516,2.5171,2.6196,0.0,0.0,0.0,0.0,0.0,0.0,0.0,2.6088,2.7233,2.7957,2.7535,2.7836,2.8066,2.798,2.8174,2.8403,2.8572,0.0,2.9067,2.9224,2.9332,2.9405,2.9405,2.9538,2.9526,2.9224,2.9043,2.891,2.891,2.891,2.891,2.891,2.8752,2.8667,2.8885,2.8897,2.8846,2.8595,2.8608,2.8765,2.9031,2.9344,2.9538,3.3858,3.3732,3.0574,2.953,2.9984,3.002,3.0341,3.0872,3.0862,3.0885,3.0889,3.1169,3.1279,3.1279,3.0791,0.0,3.0524,3.0524,3.0805,3.1279,3.1607,3.1741,3.1767,3.2011,3.2144,3.2144,3.2463,3.2755,3.2944,3.2984,3.3292,3.3774,3.3036,3.2768,3.3038,3.3253,3.3349,3.3374,3.3374,3.3387,3.3389,3.3389,3.328,3.3051,3.3253,3.3,3.2214,3.2717,3.2623,3.1848,3.1136,3.0506,2.9903,0.0,0.0,0.0,0.0,0.0,0.0,0.0,0.0,0.0,0.0,0.0,0.0,0.0,0.0,2.5557,2.6246,0.0,2.733,2.7667,0.0,0.0,0.0,2.8113,2.7873,2.8065,2.8005,2.7547,0.0,0.0,2.8294,2.8488,2.8572,2.8331,2.8476,2.8644,2.8705,2.8922,2.9055,2.9139,2.932,2.9477,2.9513,2.9501,2.9477,2.9441,2.9417,2.9344,2.9369,2.9381,2.9393,2.9369,2.8987,2.8815,2.9319,2.9393,2.9393,2.9151,2.9223,2.9453,2.9682,2.9791,2.99,3.5291,3.632,3.2617,3.0996,3.0892,3.0892,3.1116,3.1473,3.1487,3.1487,3.15,3.1757,3.2024,3.2273,3.2139,3.1928,3.169,3.1714,3.1757,3.1891,3.1971,3.2142,3.238,3.246,3.2463,3.25,3.2781,3.2848,3.2714,3.2891,3.3053,3.3198,3.3022,3.3026,3.3293,3.316,3.3104,3.308,3.308,3.3187,3.3375,3.3389,3.3349,3.332,3.3185,3.3011,3.281,3.2906,3.2904,3.269,3.2336,3.1974,3.1617,3.0168,0.0,0.0,0.0,0.0,0.0,0.0,0.0,0.0,0.0,2.5255,2.5165,0.0,2.662,0.0,2.7282,2.7402,2.7125,2.7715,0.0,0.0,2.8198,2.8246,2.8391,2.8271,2.8234,2.8307,2.8657,2.8874,2.8825,2.903,2.92,2.9127,2.897,2.9042,2.9441,2.9562,2.9695,2.9864,2.9923,2.9995,2.9996,2.9839,2.9707,2.9707,2.9538,2.9405,2.9405,2.9405,2.9405,2.9405,2.9294,2.9269,2.9416,2.9723,2.9966,2.9914,2.9658,2.9477,2.9743,2.9972,3.0202,3.8409,3.9151,3.6131,3.4746,3.443,3.2455,3.1808,3.2099,3.2112,3.2112,3.2126,3.2358,3.261,3.2757,3.2781,3.261,3.2329,3.2316,3.2316,3.2329,3.2438,3.253,3.2607,3.2837,3.2891,3.2784,3.3198,3.3332,3.3198,3.344,3.3574,3.3574,3.3574,3.3654,3.3762,3.3387,3.3307,3.3574,3.3574,3.3654,3.3814,3.3789,3.3856,3.3976,3.3601,3.3412,3.3399,3.3158,3.3131,3.3385,3.3118,3.2967,3.2947,3.194,3.1342,0.0,0.0,0.0,0.0,0.0,0.0,0.0,0.0,0.0,0.0,0.0,2.7897,2.7933,2.8066,2.7981,2.7571,2.8162,2.8524,2.8403,2.85,2.8596,2.8765,2.8656,2.8596,2.8777,2.9031,2.9139,2.9043,2.9248,2.9453,2.9562,2.9453,2.9417,2.9586,2.9719,2.9851,3.0008,3.0141,3.0214,3.0214,3.0189,3.0117,3.0008,2.996,2.9936,2.9948,3.0045,3.0141,3.0236,3.0008,2.9942,3.0366,3.0665,3.0924,3.0881,3.0684,3.0503,3.0503,3.0624,3.0817,4.1837,4.1861,3.9709,3.8963,3.8908,3.4756,3.3009,3.297,3.2716,3.2621,3.2661,3.2891,3.3024,3.3051,3.304,3.2904,3.2648,3.2648,3.2648,3.2661,3.2931,3.2944,3.2795,3.3267,3.34,3.3198,3.3694,3.3948,3.3974,3.4163,3.4296,3.4296,3.4296,3.431,3.4349,3.3789,3.3762,3.4283,3.4337,3.435,3.435,3.435,3.447,3.4658,3.4229,3.3987,3.4,3.3439,3.3374,3.396,3.3627,3.3561,3.388,3.3552,3.2942,0.0,3.17,0.0,0.0,0.0,0.0,0.0,0.0,0.0,0.0,2.9019,2.9019,2.8753,2.8717,2.856,2.8379,2.8838,2.9068,2.8837,2.8995,2.9152,2.9152,2.9091,2.9067,2.9067,2.9296,2.9381,2.9211,2.9393,2.9658,2.9924,2.9984,2.9924,2.9707,2.9827,2.9948,2.99,3.0129,3.0371,3.0383,3.0515,3.0564,3.0395,3.0502,3.0696,3.0684,3.0902,3.1155,3.1322,3.0865,3.0749,3.164,3.1851,3.1967,3.1836,3.1759,3.1686,3.1505,3.1457,3.1578,4.2644,4.3764,4.0273,3.9865,4.1329,3.8878,3.6799,3.501,3.3335,3.2728,3.2917,3.2984,3.3106,3.332,3.3334,3.3173,3.2931,3.2917,3.2917,3.2931,3.32,3.344,3.3679,3.3988,3.4096,3.4043,3.4163,3.4216,3.4242,3.427,3.4296,3.4296,3.4296,3.4417,3.4669,0.0,0.0,0.0,3.4523,3.4644,3.4618,3.467,3.4696,3.4698,3.439,0.0,3.4589,3.4054,3.4014,3.4562,3.3841,0.0,0.0,0.0,0.0,0.0,0.0,0.0,0.0,0.0,0.0,0.0,3.0871,3.095,3.0572,3.0005,2.9628,2.9575,2.9188,2.9006,2.9163,2.9653,2.9972,2.9922,2.9959,2.9984,2.9959,2.9603,2.9332,2.9332,2.9562,2.9803,2.9947,3.0214,3.0467,3.0684,3.0769,3.0757,3.0672,3.0515,3.0429,3.0467,3.066,3.0841,3.0853,3.0877,3.0902,3.089,3.1071,3.1203,3.1228,3.1457,3.165,3.1735,3.1589,3.1509,3.1792,3.2494,3.2844,3.2231,3.2145,3.2109,3.206,3.2048,3.2121,4.4951,4.5653,4.3747,4.3566,0.0,4.2447,4.0886,3.9625,3.7162,3.6295,3.6524,3.544,3.5151,3.5406,3.4323,3.4367,3.5207,3.4156,3.4231,3.5271,3.554,3.5694,3.5773,3.7124,3.7094,3.5946,3.6075,3.6119,3.6068,3.5189,3.5282,3.6343,3.6369,3.6453,3.6619,3.6479,3.5796,3.4536,3.4817,3.4937,3.4951,3.4977,3.5044,3.5138,3.4763,0.0,0.0,0.0,0.0,0.0,0.0,0.0,0.0,3.4027,0.0,3.382,3.347,3.3172,3.3029,3.2899,3.2716,3.2467,3.2676,3.2372,3.1284,3.081,3.0539,3.0404,3.0144,3.0057,3.0206,3.0439,3.0637,3.0825,3.0837,3.0938,3.1164,3.0989,3.075,3.0633,3.0717,3.0749,3.0613,3.0708,3.0841,3.0974,3.0998,3.1036,3.0986,3.089,3.0805,3.0817,3.1022,3.1131,3.1034,3.1119,3.1131,3.1071,3.1215,3.136,3.1411,3.1722,3.2036,3.2157,3.2193,3.2254,3.2574,3.3062,3.328,3.2917,3.2785,3.2773,3.2788,3.2579,3.2423,4.7088,4.7088,4.7088,4.7088,4.6949,4.5286,4.4536,4.4337,4.1245,0.0,0.0,3.8084,3.7522,3.801,3.587,3.6085,3.801,3.6289,3.6442,3.8177,3.8438,3.8453,3.8367,4.0383,4.0323,3.8381,3.8557,3.8651,3.8589,3.7069,3.7249,3.8922,3.9052,3.9037,3.8978,3.8963,3.7926,3.5876,3.5451,3.5271,3.5271,3.5271,3.5378,3.5591,3.5124,3.4977,3.5257,3.4684,3.4776,3.5525,3.4843,3.4723,3.5364,3.479,3.435,3.4296,3.4296,3.427,3.4242,3.4068,3.3961,3.3961,3.3961,3.333,3.1802,3.1702,3.16,3.1322,3.1259,3.1259,3.1272,3.1409,3.1548,3.1841,3.1854,3.2046,3.243,3.2405,3.2186,3.2001,3.1897,3.1764,3.1295,3.1345,3.1303,3.1195,3.1296,3.13,3.1262,3.1197,3.1095,3.1167,3.1348,3.1384,3.124,3.1312,3.136,3.1228,3.1384,3.1544,3.1602,3.1976,3.2362,3.2507,3.264,3.2897,3.3211,3.3345,3.3381,3.3396,3.3392,3.3392,3.3356,3.3038,3.2788,4.7088,4.7088,4.7088,4.7088,4.7088,4.6779,4.6658,4.6325,4.245,4.0777,4.0676,3.849,3.8606,4.029,3.8136,3.8349,4.0365,4.009,4.0156,4.0431,4.0718,4.0809,4.0803,4.1363,4.148,4.1152,4.1173,4.1163,4.1138,4.0877,4.0985,4.1216,4.1242,4.1085,4.0752,4.072,4.0387,3.9648,3.6959,3.5538,3.5538,3.5538,3.5565,3.5591,3.5311,3.5271,3.5511,3.5004,3.5016,3.5538,3.503,3.4789,3.4896,3.4802,3.4589,3.4323,3.4296,3.4215,3.3988,3.4135,3.423,3.4243,3.423,3.3853,3.2963,3.2874,3.2736,3.2494,3.2264,3.2213,3.2456,3.2853,3.3108,3.3212,3.3199,3.3251,3.3343,3.2995,3.2711,3.2606,3.2568,3.2475,3.2153,3.2452,3.2435,3.1959,3.2052,3.234,3.2238,3.1772,3.1483,3.1638,3.1722,3.1735,3.165,3.171,3.1698,3.1684,3.1867,3.1988,3.1988,3.2423,3.27,3.2643,3.2905,3.3135,3.315,3.3263,3.3375,3.3392,3.3392,3.3392,3.3392,3.3295,3.3259,4.7754,4.7778,4.7736,4.7736,4.7754,4.7736,4.7736,4.7589,4.5762,4.4782,4.437,4.2243,4.1966,4.2873,4.0806,4.105,4.3073,4.1867,4.1968,4.309,4.3255,4.3313,4.3456,4.4656,4.4666,4.3562,4.3486,4.3486,4.3384,4.2316,4.2316,4.3393,4.3262,4.2956,4.2592,4.2551,4.1896,4.0522,3.9027,3.8354,3.8541,3.7453,3.6925,3.7132,3.593,3.5257,3.5391,3.5137,3.515,3.5378,3.5016,3.4856,3.5016,3.4883,3.4869,3.4977,3.4857,3.4777,3.483,3.4656,3.4563,3.4563,3.4563,3.4498,3.4252,3.3935,3.3701,3.3575,3.3457,3.3444,3.3549,3.3794,3.3976,3.4199,3.4187,3.4279,3.4385,3.4242,3.3941,3.3627,3.3549,3.3391,3.2965,3.3149,3.3227,3.2795,3.2979,3.31,3.3073,3.2787,3.2446,3.2277,3.1994,3.1807,3.1807,3.1807,3.1807,3.1807,3.1904,3.1976,3.2012,3.2423,3.2691,3.264,3.2823,3.3011,3.3147,3.331,3.3383,3.338,3.3392,3.3392,3.3392,3.3392,3.3392,4.8311,4.8311,4.8311,4.8311,4.8311,4.8311,4.8311,4.8311,4.8267,4.8102,4.7575,4.5503,4.497,4.5479,4.3435,4.3638,4.532,4.3967,4.4119,4.5622,4.5722,4.5747,4.5897,4.7548,4.7381,4.5915,4.5765,4.5765,4.5521,4.3992,4.4093,4.5676,4.5566,4.5262,4.495,4.495,4.4058,4.2368,4.2252,4.1876,4.1072,3.9454,3.8802,3.9063,3.7092,3.594,3.5914,3.548,3.5204,3.5191,3.5003,3.499,3.519,3.5016,3.5083,3.5458,3.5378,3.5391,3.5551,3.5151,3.4896,3.4883,3.4883,3.4976,3.5124,3.479,3.4483,3.4497,3.4484,3.4471,3.4472,3.451,3.4616,3.4856,3.4883,3.4937,3.5151,3.5204,3.5032,3.4583,3.4504,3.428,3.3869,3.3816,3.3843,3.3697,3.3683,3.3683,3.3683,3.3683,3.3471,3.3073,3.2541,3.218,3.2047,3.2154,3.2154,3.202,3.2166,3.2322,3.242,3.2735,3.2883,3.2917,3.2817,3.2951,3.3259,3.3374,3.339,3.3396,3.3392,3.3392,3.3392,3.3477,3.3465,4.8311,4.8311,4.8311,4.8311,4.8311,4.8311,4.8311,4.8311,4.8311,4.8267,4.7996,4.5938,4.6113,4.7548,4.5647,4.5872,4.7821,4.7772,4.7722,4.7871,4.7995,4.7995,4.7871,4.8211,4.8211,4.7921,4.7889,4.7833,4.7833,4.7659,4.7921,4.8499,4.8499,4.8326,4.8339,4.8314,4.8057,4.7588,4.7588,4.5486,4.1381,4.0895,4.1008,4.138,3.9326,3.8184,3.8028,3.6268,3.5191,3.5191,3.5164,3.5164,3.5191,3.5164,3.5177,3.5257,3.5471,3.5578,3.5578,3.5311,3.5151,3.5164,3.5151,3.5151,3.5191,3.5137,3.511,3.5084,3.5097,3.507,3.5084,3.5084,3.507,3.5097,3.5124,3.5164,3.5191,3.5204,3.5178,3.5151,3.5046,3.49,3.4398,3.461,3.4742,3.4293,3.4279,3.4292,3.4292,3.4318,3.4331,3.4106,3.3709,3.3151,3.2766,3.3032,3.2992,3.2687,3.2979,3.3252,3.3478,3.3782,3.4011,3.3637,3.3307,3.3231,3.3291,3.3215,3.342,3.3517,3.3489,3.3428,3.344,3.361,3.3654,4.8311,4.8311,4.8311,4.8311,4.8311,4.8311,4.8311,4.8311,4.8311,4.8311,4.8211,4.7331,4.7455,4.8236,4.7349,4.7455,4.8286,4.8311,4.8311,4.8311,4.8311,4.8311,4.8311,4.8311,4.8311,4.8329,4.8543,4.8653,4.8689,4.8891,4.8983,4.8884,4.8884,4.8799,4.8561,4.8543,4.8451,4.8311,4.8311,4.7442,4.5801,4.4422,4.3855,4.3758,4.1927,3.9998,3.8615,3.76,3.6557,3.5349,3.5204,3.5204,3.5204,3.5351,3.5538,3.5725,3.5819,3.5738,3.5391,3.5257,3.5204,3.5204,3.5204,3.5204,3.5204,3.5204,3.5204,3.5204,3.5204,3.5204,3.5204,3.5204,3.5204,3.5204,3.5204,3.5204,3.5204,3.5204,3.5204,3.5204,3.5204,3.5151,3.4927,3.5032,3.5085,3.4874,3.4953,3.5019,3.5086,3.5244,3.535,3.5337,3.5176,3.4471,3.3506,3.3312,3.3454,3.3461,3.3565,3.3841,3.4228,3.4581,3.4738,3.4545,3.4076,3.3924,3.4288,3.394,3.3896,3.3896,3.3875,3.3875,3.3887,3.3972,3.3944,4.8311,4.8311,4.8311,4.8311,4.8311,4.8311,4.8311,4.8311,4.8311,4.8311,4.8311,4.8311,4.8359,4.8457,4.8366,4.8311,4.8311,4.8311,4.8311,4.8329,4.8396,4.8469,4.8451,4.8604,4.8616,4.8671,4.8928,4.9074,4.9111,4.9349,4.9404,4.9232,4.9214,4.9148,4.8983,4.8946,4.8946,4.8964,4.8946,4.9111,4.9089,4.785,4.6866,4.6513,4.4567,4.2242,3.9803,3.9037,3.7624,3.5443,3.5244,3.5204,3.5204,3.5445,3.5738,3.6033,3.5939,3.5685,3.5324,3.5244,3.5204,3.5204,3.5204,3.5204,3.5204,3.5204,3.5204,3.5204,3.5204,3.5204,3.5204,3.5204,3.5204,3.5204,3.5204,3.5204,3.5204,3.5204,3.5204,3.5204,3.5284,3.5364,3.5418,3.5458,3.5485,3.5471,3.5605,3.5752,3.5765,3.5925,3.6046,3.6099,3.6126,3.5627,3.4414,3.4388,3.4399,3.4484,3.4679,3.5,3.5125,3.5617,3.5718,3.5675,3.494,3.468,3.509,3.4921,3.4766,3.4705,3.4644,3.4603,3.4787,3.4754,3.4742,4.8311,4.8329,4.8311,4.8366,4.8329,4.8366,4.8347,4.8439,4.8384,4.8347,4.8366,4.8366,4.8524,4.8854,4.8524,4.8329,4.8329,4.8366,4.8384,4.8421,4.8708,4.8891,4.8884,4.9258,4.9423,4.9349,4.9423,4.9496,4.9514,4.9533,4.9698,5.0039,5.0057,5.0222,5.0461,5.0497,5.057,5.0497,5.0523,5.057,5.0589,5.0459,4.9902,4.9097,4.7204,4.4943,4.2675,4.0374,3.811,3.5738,3.5523,3.5296,3.5231,3.5471,3.5738,3.5992,3.5565,3.5378,3.5485,3.5338,3.5204,3.5204,3.5231,3.5217,3.5244,3.5271,3.5284,3.5217,3.5271,3.5257,3.5257,3.5271,3.5257,3.5257,3.5231,3.5244,3.5231,3.5297,3.5204,3.5271,3.5445,3.5685,3.5979,3.6059,3.5992,3.5992,3.6046,3.6086,3.6126,3.6139,3.618,3.6273,3.6352,3.6268,3.5776,3.5659,3.5926,3.6,3.608,3.6665,3.7043,3.727,3.7078,3.7067,3.7096,3.6847,3.6355,3.6098,3.6035,3.5889,3.5558,3.5516,3.5201,3.5922,3.5795,4.91,4.9056,4.9056,4.9221,4.9434,4.9478,4.9452,4.9478,4.9434,4.9313,4.9093,4.9056,4.9148,4.9294,4.9129,4.9074,4.9056,4.9056,4.9056,4.9074,4.9221,4.9269,4.9294,4.9416,4.9514,4.9533,4.9746,5.0021,5.0266,5.0259,5.0461,5.079,5.0872,5.1065,5.1395,5.1469,5.1469,5.1469,5.1442,5.1469,5.1432,5.1212,5.0945,5.0599,4.9391,4.751,4.5062,4.4108,4.1958,3.8266,3.8006,3.7175,3.5684,3.5551,3.5645,3.5752,3.5591,3.5444,3.5364,3.5257,3.5204,3.5217,3.5351,3.5471,3.5485,3.5631,3.5778,3.5778,3.5752,3.5778,3.5738,3.5591,3.5551,3.5725,3.5752,3.5765,3.5752,3.5752,3.5765,3.5805,3.5859,3.5992,3.6086,3.6099,3.6099,3.6113,3.626,3.6406,3.658,3.6593,3.6714,3.7048,3.7128,3.7152,3.7425,3.688,3.675,3.6908,3.7095,3.7256,3.7569,3.7863,3.7764,3.7787,3.8248,3.8235,3.7372,3.6736,3.6753,3.6492,3.6177,3.6206,3.5349,3.627,3.6004,4.99,4.99,4.99,5.0065,5.0277,5.0296,5.0296,5.0296,5.0296,5.0131,4.9918,4.99,4.9973,5.0046,4.9955,4.9973,5.001,4.9698,4.9514,4.9514,4.9643,4.9698,4.9735,4.9845,4.99,4.9973,5.0296,5.0699,5.1047,5.1084,5.123,5.1495,5.1513,5.1615,5.1872,5.1909,5.1909,5.1909,5.1909,5.1909,5.1872,5.1634,5.1487,5.1414,5.0955,4.9376,4.6699,4.644,4.4717,4.1377,4.0676,3.9537,3.7307,3.6288,3.5885,3.5872,3.5792,3.5685,3.5525,3.5511,3.5485,3.5485,3.5645,3.5778,3.5792,3.5992,3.6086,3.6099,3.6099,3.6126,3.618,3.6032,3.5965,3.6099,3.6099,3.6099,3.6099,3.6086,3.6139,3.6179,3.6206,3.6246,3.634,3.6353,3.638,3.6353,3.654,3.6713,3.686,3.702,3.7153,3.7595,3.7769,3.7956,3.8191,3.8019,3.7754,3.7873,3.7804,3.7928,3.805,3.8344,3.8517,3.8584,3.8631,3.8656,3.8296,3.7579,3.7214,3.6967,3.7315,3.7579,3.708,3.6757,3.6668,5.0699,5.0699,5.0699,5.0761,5.0809,5.0827,5.0735,5.0809,5.0772,5.079,5.0725,5.0717,5.0963,5.1165,5.0955,5.0955,5.1092,5.0303,4.9753,4.9661,4.9984,5.0149,5.0186,5.0534,5.0699,5.0717,5.111,5.1469,5.1754,5.178,5.1835,5.189,5.1909,5.1964,5.1964,5.2037,5.1982,5.2019,5.2037,5.2,5.1927,5.1945,5.1909,5.1909,5.1817,5.047,4.7613,4.7225,4.6024,4.3756,4.3057,4.2032,3.9809,3.7931,3.6637,3.6693,3.6342,3.6113,3.6059,3.6033,3.6006,3.6019,3.6086,3.6099,3.6086,3.6153,3.6193,3.6206,3.6206,3.626,3.6487,3.6553,3.6446,3.618,3.6206,3.6206,3.6166,3.6139,3.6233,3.6473,3.658,3.6633,3.6846,3.6966,3.7007,3.7047,3.7073,3.714,3.726,3.7448,3.7435,3.7676,3.813,3.8555,3.8878,3.9118,3.8972,3.8849,3.8715,3.8662,3.8718,3.8918,3.8985,3.9065,3.9145,3.9172,3.9113,3.8522,3.8562,3.8456,3.8815,3.8594,3.8084,3.7677,3.8051,5.1524,5.1497,5.1542,5.1689,5.1927,5.1945,5.1927,5.1927,5.1945,5.178,5.1615,5.1817,5.2,5.2147,5.2284,5.243,5.2458,5.1835,5.112,5.0497,5.0761,5.0927,5.0992,5.1322,5.1515,5.1542,5.1652,5.178,5.1909,5.1927,5.2019,5.2257,5.2312,5.2458,5.2705,5.2715,5.2715,5.2742,5.2715,5.2715,5.2697,5.2458,5.233,5.2293,5.2055,5.1345,5.0507,5.0103,4.8649,4.6227,4.466,4.2933,4.1011,3.9827,3.923,3.8813,3.7278,3.6287,3.6126,3.6113,3.6139,3.6139,3.6259,3.6353,3.6393,3.6553,3.6619,3.6633,3.6674,3.6794,3.7061,3.7301,3.7168,3.6686,3.6674,3.67,3.6713,3.6861,3.6994,3.7129,3.7275,3.7515,3.7784,3.7864,3.7876,3.8008,3.8061,3.8101,3.8315,3.8208,3.8517,3.8865,3.9089,3.9089,3.9332,3.9493,3.9479,3.9359,3.9265,3.9116,3.9212,3.9332,3.9396,3.9533,3.9613,3.9623,3.9564,3.9488,3.9409,3.9041,3.8675,3.8483,3.8351,3.8509,3.8809,5.266,5.2788,5.2807,5.2935,5.3155,5.3173,5.3173,5.3173,5.3173,5.3027,5.288,5.3045,5.3173,5.3192,5.3283,5.332,5.3265,5.2898,5.222,5.145,5.1414,5.1524,5.1542,5.1754,5.1973,5.211,5.2128,5.2202,5.2348,5.2367,5.2477,5.2678,5.2715,5.2825,5.3091,5.3109,5.3137,5.3283,5.332,5.3393,5.3467,5.3302,5.3155,5.3137,5.2908,5.2733,5.2587,5.2312,5.1295,4.9307,4.7292,4.5451,4.3844,4.2211,4.0903,4.0087,3.8389,3.6834,3.6473,3.654,3.6527,3.646,3.6567,3.666,3.6699,3.6913,3.7073,3.7073,3.7167,3.7354,3.7662,3.7742,3.7687,3.7621,3.7594,3.7581,3.7607,3.7741,3.7876,3.7929,3.805,3.8237,3.837,3.8466,3.8504,3.8662,3.8689,3.8729,3.8902,3.8833,3.9156,3.9396,3.9463,3.953,3.972,3.984,3.9933,3.9827,3.9693,3.9546,3.9479,3.964,3.9743,3.9947,4.0084,4.008,4.0037,3.9847,3.971,3.9141,3.8879,3.9194,3.941,3.9263,3.9436,5.3943,5.4291,5.4291,5.42,5.42,5.42,5.4163,5.4236,5.4218,5.4163,5.4181,5.4181,5.4255,5.4218,5.4035,5.3915,5.376,5.3485,5.3137,5.2678,5.2385,5.2183,5.2073,5.211,5.2275,5.2495,5.2532,5.2733,5.3027,5.299,5.3127,5.3118,5.3063,5.3091,5.3109,5.3109,5.3283,5.3595,5.3659,5.3824,5.42,5.4218,5.42,5.42,5.4126,5.3961,5.3641,5.3613,5.321,5.2173,5.0262,4.918,4.7932,4.459,4.2669,4.2212,3.9687,3.8426,3.7694,3.7889,3.7623,3.7116,3.7007,3.6925,3.7033,3.7233,3.7408,3.7422,3.7609,3.7889,3.8132,3.813,3.8208,3.8675,3.8595,3.8528,3.8649,3.8635,3.8609,3.8649,3.8715,3.8769,3.8822,3.8865,3.8891,3.8958,3.8969,3.9078,3.9076,3.9263,3.9193,3.945,3.9797,3.992,4.0067,4.012,4.0217,4.0177,4.007,3.9933,3.9813,3.996,4.008,4.0254,4.0378,4.0431,4.0371,4.0187,4.0143,3.9966,4.0036,4.0424,4.0337,4.0019,3.9888,5.4218,5.4282,5.4282,5.4282,5.4282,5.4282,5.431,5.431,5.4328,5.4365,5.4383,5.4621,5.4731,5.4778,5.4951,5.5015,5.4878,5.4566,5.4383,5.4218,5.3851,5.332,5.288,5.2788,5.2825,5.2953,5.2953,5.3137,5.3485,5.3228,5.3265,5.354,5.3247,5.3127,5.3109,5.3164,5.3302,5.365,5.3741,5.3943,5.4273,5.4346,5.4282,5.4282,5.4328,5.4291,5.42,5.4438,5.3262,5.1067,5.2081,5.1781,5.0247,4.8773,4.7662,4.7051,4.5366,4.3212,4.1413,4.0745,3.9912,3.8158,3.7775,3.7554,3.7554,3.7649,3.7702,3.7716,3.7796,3.805,3.8491,3.8702,3.9129,3.9733,3.9276,3.8795,3.8809,3.8889,3.9009,3.9022,3.9209,3.941,3.9556,3.9623,3.9706,3.9867,3.9893,3.9893,3.9813,3.9853,3.9877,4.0067,4.0294,4.0321,4.0405,4.0445,4.0458,4.0445,4.0391,4.0351,4.0284,4.0294,4.0361,4.0471,4.0458,4.0485,4.0485,4.0397,4.0468,4.0512,4.0512,4.0512,4.0512,4.0293,4.028,5.4658,5.4823,5.4823,5.4805,5.4805,5.4795,5.4805,5.4805,5.4823,5.4795,5.4831,5.5043,5.5153,5.5189,5.5381,5.5519,5.5454,5.5263,5.5061,5.4805,5.4438,5.3998,5.3668,5.3595,5.3595,5.3576,5.3412,5.3595,5.3778,5.3375,5.343,5.3796,5.3558,5.3448,5.365,5.3778,5.3943,5.4218,5.4365,5.4603,5.4805,5.4823,5.4823,5.4823,5.4823,5.4795,5.486,5.5043,5.4118,5.2855,5.3373,5.3567,5.2317,5.119,5.0622,5.0206,4.8132,4.59,4.4346,4.3128,4.2244,4.1202,3.9782,3.8749,3.9048,3.875,3.8025,3.7996,3.8181,3.8568,3.9025,3.9452,3.9823,4.008,3.9786,3.9452,3.9452,3.961,3.9663,3.9717,3.9867,4.0014,4.0201,4.0214,4.0308,4.0431,4.0361,4.0405,4.0418,4.0512,4.0512,4.0512,4.0512,4.0471,4.0458,4.0498,4.0498,4.0498,4.0498,4.0512,4.0552,4.0538,4.0512,4.0498,4.0512,4.0525,4.0538,4.0508,4.0512,4.0512,4.0512,4.0538,4.0552,4.0601,4.0588,5.5171,5.5519,5.5519,5.5519,5.5483,5.5519,5.5399,5.5454,5.5446,5.5418,5.5446,5.5501,5.5464,5.5519,5.5473,5.5519,5.5519,5.5454,5.5281,5.5006,5.4695,5.4456,5.4438,5.42,5.4108,5.4053,5.387,5.398,5.4035,5.3558,5.3686,5.4126,5.4016,5.4053,5.431,5.4676,5.4951,5.5089,5.5299,5.5501,5.5574,5.5556,5.553,5.5501,5.5363,5.5363,5.5409,5.5464,5.5139,5.4941,5.4951,5.4655,5.4073,5.2222,5.1405,5.1079,4.9784,4.8244,4.6799,4.542,4.4543,4.498,4.176,4.0147,4.1701,4.0746,3.937,3.9412,3.9068,3.9159,3.9519,4.0067,4.0267,4.0241,4.0294,4.0428,4.0512,4.0512,4.0512,4.0512,4.0454,4.0512,4.0512,4.0512,4.0512,4.0471,4.0512,4.0512,4.0512,4.0512,4.0512,4.0512,4.0512,4.0512,4.0498,4.0512,4.0512,4.0512,4.0512,4.0525,4.0605,4.0605,4.0538,4.0495,4.0501,4.0527,4.0615,4.0575,4.0632,4.0668,4.0802,4.0708,4.0659,4.0775,4.0815,5.5418,5.5519,5.5519,5.5519,5.5519,5.5519,5.5519,5.5519,5.5519,5.5519,5.5519,5.5519,5.5519,5.5519,5.5519,5.5519,5.5519,5.5519,5.5418,5.5381,5.5308,5.5234,5.5116,5.4731,5.42,5.4053,5.4099,5.4236,5.4209,5.42,5.4273,5.4676,5.4695,5.4695,5.486,5.5299,5.5574,5.587,5.6035,5.6219,5.6347,5.6182,5.6053,5.5998,5.5703,5.5509,5.5519,5.5519,5.5464,5.5409,5.5354,5.5253,5.5019,5.4604,5.4116,5.392,5.37,5.2587,5.0896,4.9593,4.8747,4.748,4.5997,4.5429,4.5614,4.3685,4.2426,4.1873,4.0473,3.9683,3.9993,4.0267,4.0814,4.0979,4.0976,4.0922,4.0602,4.0572,4.0512,4.0512,4.0512,4.0512,4.0572,4.0569,4.0569,4.0512,4.0538,4.0525,4.0552,4.0561,4.0601,4.0668,4.0655,4.0695,4.0695,4.0708,4.0708,4.0695,4.0668,4.0668,4.0748,4.0722,4.0695,4.0621,4.0499,4.0569,4.0741,4.0976,4.1086,4.1096,4.1078,4.0998,4.0989,4.1025,4.1012,5.5519,5.5519,5.5519,5.5519,5.5519,5.5519,5.5519,5.5519,5.5519,5.5519,5.5519,5.5519,5.5519,5.5519,5.5519,5.5519,5.5519,5.5491,5.5629,5.5758,5.5841,5.5933,5.6061,5.5676,5.5199,5.4695,5.4768,5.486,5.4776,5.4603,5.4676,5.542,5.5299,5.5446,5.5786,5.6171,5.6391,5.6475,5.6659,5.6787,5.6761,5.6586,5.6329,5.6219,5.5933,5.5739,5.5538,5.5519,5.5519,5.5519,5.5538,5.5519,5.5519,5.5519,5.5519,5.5519,5.5491,5.5045,5.366,5.232,5.14,5.1198,4.9031,4.8422,4.8062,4.6672,4.5291,4.461,4.3065,4.146,4.1723,4.2034,4.2543,4.3832,4.3951,4.3981,4.3652,4.2043,4.0512,4.0512,4.0512,4.1428,4.1728,4.1874,4.2194,4.2838,4.1181,4.1089,4.0962,4.1002,4.0962,4.0958,4.0918,4.0918,4.0949,4.0962,4.0989,4.1002,4.1016,4.0998,4.1052,4.0985,4.0935,4.0813,4.0747,4.0783,4.0938,4.1248,4.1421,4.1296,4.1239,4.1292,4.1305,4.1252,4.1212,5.5519,5.5519,5.5519,5.5519,5.5519,5.5519,5.5519,5.5519,5.5519,5.5519,5.5519,5.5519,5.5519,5.5519,5.5519,5.5538,5.5629,5.5666,5.5878,5.6237,5.6274,5.642,5.6633,5.6604,5.6365,5.5758,5.5703,5.5684,5.5428,5.5098,5.542,5.609,5.6025,5.6208,5.6824,5.7228,5.7283,5.7129,5.7283,5.7319,5.7081,5.6952,5.6696,5.6384,5.6292,5.6145,5.5915,5.5813,5.5721,5.5611,5.5611,5.5574,5.5491,5.5519,5.5519,5.5519,5.5519,5.5348,5.4902,5.3731,5.3312,5.5198,5.1796,5.0181,5.0873,4.9631,4.8221,4.7167,4.5923,4.4432,4.4684,4.4758,4.5768,4.7085,4.7822,4.8014,4.737,4.4174,4.2744,4.2335,4.3277,4.4313,4.4431,4.4534,4.4845,4.4761,4.3086,4.1907,4.1951,4.1491,4.1534,4.1203,4.1118,4.1092,4.1105,4.1132,4.1172,4.1212,4.1265,4.1319,4.1359,4.1332,4.1265,4.1146,4.1066,4.1102,4.1288,4.1635,4.1697,4.147,4.1492,4.1639,4.1586,4.1465,4.1465,5.5519,5.5519,5.5519,5.5519,5.5519,5.5519,5.5519,5.5519,5.5519,5.5519,5.5519,5.5519,5.5519,5.5519,5.5519,5.5731,5.5933,5.6072,5.6292,5.667,5.6725,5.6816,5.6963,5.7173,5.7008,5.6714,5.6567,5.6439,5.6219,5.6274,5.631,5.6677,5.6879,5.7154,5.7319,5.7668,5.7815,5.765,5.7778,5.7741,5.765,5.7411,5.7099,5.6732,5.6677,5.6604,5.6567,5.653,5.642,5.6127,5.609,5.5878,5.5666,5.5593,5.5556,5.5519,5.5519,5.5519,5.532,5.5159,5.4988,5.5245,5.4204,5.39,5.3893,5.2504,5.0967,5.0047,4.8697,4.7252,4.706,4.7252,4.7541,4.8116,4.8604,4.8714,4.8643,4.8088,4.7315,4.7376,4.7636,4.7521,4.7537,4.7509,4.7587,4.7406,4.6156,4.5098,4.4822,4.3592,4.2332,4.1845,4.1279,4.1265,4.1265,4.1305,4.1345,4.1399,4.1452,4.159,4.163,4.1697,4.1652,4.1492,4.1416,4.1438,4.1683,4.2023,4.2018,4.1871,4.1919,4.1999,4.1906,4.1799,4.1893,5.5519,5.5519,5.5519,5.5519,5.5519,5.5519,5.5519,5.5519,5.5519,5.5519,5.5519,5.5519,5.5519,5.5519,5.5519,5.5786,5.6145,5.6468,5.6714,5.7026,5.7118,5.7246,5.7356,5.7631,5.7576,5.7448,5.7393,5.7063,5.6549,5.6641,5.6916,5.7118,5.7338,5.7503,5.7686,5.787,5.7998,5.7998,5.7998,5.7998,5.7998,5.776,5.7503,5.7209,5.7081,5.6989,5.6816,5.6798,5.6706,5.653,5.6494,5.6384,5.62,5.5951,5.5739,5.5593,5.5538,5.5519,5.5519,5.5519,5.5491,5.5491,5.5519,5.5519,5.532,5.4294,5.3145,5.1858,5.1174,4.9927,4.9807,4.9893,5.0542,5.1684,5.1948,5.2096,5.2453,5.2778,5.2679,5.2164,5.0362,4.9937,5.0926,5.0781,5.0562,4.9901,4.9069,4.8368,4.7758,4.6273,4.4596,4.3975,4.3496,4.2561,4.2267,4.1782,4.1657,4.1639,4.1666,4.1804,4.1871,4.1924,4.1951,4.1893,4.1812,4.1736,4.191,4.2147,4.2196,4.2218,4.2133,4.2106,4.2146,4.2218,4.2218,5.5519,5.5519,5.5519,5.5519,5.5519,5.5519,5.5519,5.5519,5.5519,5.5519,5.5538,5.5611,5.5666,5.5684,5.5823,5.6043,5.6468,5.6806,5.7136,5.7448,5.7521,5.7705,5.7907,5.7998,5.7925,5.787,5.7888,5.7668,5.722,5.7118,5.7246,5.7448,5.754,5.765,5.7925,5.798,5.7998,5.7998,5.7998,5.7998,5.7998,5.798,5.787,5.7558,5.7521,5.7374,5.7184,5.7118,5.7073,5.6982,5.6927,5.689,5.6761,5.6504,5.6164,5.5813,5.5601,5.5538,5.5519,5.5519,5.5519,5.5519,5.5519,5.5519,5.5491,5.5177,5.4587,5.2973,5.2522,5.2522,5.2499,5.2551,5.3376,5.4527,5.5448,5.6111,5.5896,5.5989,5.6198,5.4981,5.2638,5.2496,5.3721,5.4106,5.3859,5.3185,5.2362,5.1167,5.0481,4.9399,4.8018,4.7137,4.6174,4.4631,4.3629,4.2409,4.2206,4.1959,4.1973,4.2044,4.2111,4.2165,4.2151,4.2098,4.2093,4.2061,4.2173,4.2218,4.2218,4.2218,4.2218,4.2218,4.2218,4.2218,4.2218,5.5519,5.5519,5.5538,5.5519,5.5556,5.5574,5.5528,5.5556,5.5593,5.5519,5.5648,5.5933,5.6127,5.6182,5.6494,5.6842,5.7136,5.7301,5.7521,5.7815,5.787,5.7888,5.798,5.7998,5.7998,5.7998,5.7998,5.7962,5.7741,5.7723,5.7797,5.787,5.787,5.7962,5.798,5.7998,5.7998,5.7998,5.7998,5.7998,5.7998,5.7998,5.7962,5.7925,5.7888,5.7833,5.7705,5.7686,5.7643,5.7356,5.7338,5.7184,5.6872,5.678,5.6725,5.6439,5.6025,5.5519,5.5574,5.5538,5.5519,5.5519,5.5519,5.5519,5.5519,5.5519,5.532,5.5291,5.4902,5.473,5.4616,5.4873,5.5263,5.5484,5.5988,5.6402,5.6714,5.7136,5.7576,5.7586,5.5203,5.5774,5.6835,5.7067,5.7152,5.6435,5.5566,5.4267,5.304,5.1899,4.9972,4.8649,4.6883,4.5308,4.4396,4.3246,4.2471,4.2218,4.2218,4.2218,4.2218,4.2218,4.2218,4.2191,4.2218,4.2218,4.2218,4.2218,4.2218,4.2218,4.2218,4.2218,4.2218,4.2218,4.2218,5.5896,5.5896,5.5896,5.6025,5.6226,5.6226,5.6226,5.6226,5.6255,5.6226,5.6245,5.642,5.653,5.6622,5.6952,5.7209,5.743,5.7631,5.7815,5.7962,5.7998,5.7998,5.7998,5.7998,5.7998,5.7998,5.7998,5.7998,5.7998,5.7998,5.7998,5.7998,5.7998,5.798,5.7998,5.7998,5.7998,5.7998,5.7998,5.7998,5.7998,5.7998,5.7998,5.7998,5.7998,5.7998,5.7998,5.7998,5.7925,5.7741,5.7741,5.7668,5.7448,5.7283,5.7136,5.7081,5.6604,5.6171,5.5933,5.5666,5.5574,5.5491,5.5491,5.5519,5.5519,5.5519,5.5519,5.5491,5.5491,5.5538,5.5538,5.5519,5.5684,5.5915,5.6274,5.6659,5.7044,5.7466,5.7833,5.7925,5.7998,5.7998,5.7998,5.7861,5.7694,5.7337,5.6919,5.6363,5.5206,5.4056,5.1794,4.9235,4.7287,4.526,4.4539,4.3705,4.2566,4.2218,4.2218,4.2218,4.2218,4.2218,4.2218,4.2218,4.2218,4.2218,4.2218,4.2218,4.2218,4.2218,4.2218,4.2218,4.2218,4.2218,4.2218,5.6384,5.6475,5.6384,5.6512,5.6798,5.6798,5.678,5.6798,5.6761,5.678,5.6835,5.6879,5.6989,5.7165,5.7411,5.7576,5.7565,5.787,5.798,5.7998,5.7998,5.7998,5.7998,5.7998,5.7998,5.7998,5.7998,5.7998,5.7998,5.7998,5.7998,5.7998,5.7998,5.7998,5.7998,5.7998,5.7998,5.7998,5.7998,5.7998,5.7998,5.7998,5.7998,5.7998,5.7998,5.7998,5.7998,5.7998,5.798,5.798,5.7962,5.7907,5.7852,5.7668,5.7558,5.7466,5.7099,5.6806,5.6512,5.619,5.5831,5.5684,5.5509,5.5519,5.5519,5.5519,5.5519,5.5519,5.5519,5.5574,5.5648,5.5703,5.5951,5.631,5.6696,5.7044,5.7374,5.7686,5.7907,5.7962,5.7998,5.7998,5.7998,5.7998,5.7969,5.7969,5.7998,5.7969,5.671,5.5128,5.2554,4.9481,4.651,4.4633,4.4051,4.3422,4.2534,4.2313,4.2313,4.2218,4.2218,4.2218,4.2218,4.2218,4.2218,4.2218,4.2218,4.2218,4.2218,4.2218,4.2218,4.2218,4.2218,4.2218,4.2218,5.6971,5.7301,5.6945,5.6787,5.6853,5.6798,5.6835,5.6908,5.6872,5.689,5.6982,5.7173,5.754,5.7778,5.7833,5.7888,5.7943,5.798,5.7998,5.7998,5.7998,5.7998,5.7998,5.7998,5.7998,5.7998,5.7998,5.7998,5.7998,5.7998,5.7998,5.7998,5.7998,5.7998,5.7998,5.7998,5.7998,5.7998,5.7998,5.7998,5.7998,5.7998,5.7998,5.7998,5.7998,5.7998,5.7998,5.7998,5.7998,5.7998,5.7998,5.7998,5.7962,5.7907,5.7852,5.7778,5.7558,5.7319,5.7136,5.6769,5.6523,5.6164,5.5878,5.5703,5.5739,5.5564,5.5528,5.5666,5.5758,5.586,5.6006,5.6182,5.6329,5.6677,5.7008,5.7264,5.754,5.776,5.7943,5.798,5.7998,5.7998,5.7998,5.7998,5.7998,5.7998,5.7879,5.785,5.6124,5.4418,5.2112,4.9204,4.5668,4.3799,4.317,4.29,4.3327,4.3026,4.271,4.2439,4.2218,4.2218,4.2218,4.2218,4.2218,4.2218,4.2218,4.2218,4.2218,4.2218,4.2218,4.2218,4.2218,4.2218,4.2218,5.7411,5.7741,5.7576,5.7521,5.7521,5.7551,5.7551,5.7551,5.7521,5.7521,5.7503,5.7705,5.7852,5.7962,5.7998,5.7998,5.7998,5.7998,5.7998,5.7998,5.7998,5.7998,5.7998,5.7998,5.7998,5.7998,5.7998,5.7998,5.7998,5.7998,5.7998,5.7998,5.7998,5.7998,5.7998,5.7998,5.7998,5.7998,5.7998,5.7998,5.7998,5.7998,5.7998,5.7998,5.7998,5.7998,5.7998,5.7998,5.7998,5.7998,5.7998,5.7998,5.7998,5.7998,5.7998,5.7998,5.7797,5.7741,5.7613,5.7191,5.6743,5.6633,5.6402,5.6263,5.619,5.6245,5.6281,5.6329,5.6245,5.6347,5.6475,5.6567,5.6696,5.7063,5.7319,5.7521,5.7705,5.7907,5.7962,5.7998,5.7998,5.7998,5.7998,5.7998,5.7998,5.7969,5.785,5.7444,5.5926,5.4358,5.2325,5.0647,4.7474,4.6371,4.5966,4.537,4.4727,4.4131,4.3579,4.3264,4.312,4.225,4.225,4.2218,4.2218,4.2218,4.2218,4.2218,4.2218,4.2218,4.2218,4.2218,4.2218,4.2218,4.2218,5.7741,5.798,5.7998,5.7998,5.7998,5.7998,5.7998,5.7998,5.798,5.7998,5.7998,5.7998,5.7998,5.7998,5.7998,5.7998,5.7998,5.7998,5.7998,5.7998,5.7998,5.7998,5.7998,5.7998,5.7998,5.7998,5.7998,5.7998,5.7998,5.7998,5.7998,5.7998,5.7998,5.7998,5.7998,5.7998,5.7998,5.7998,5.7998,5.7998,5.7998,5.7998,5.7998,5.7998,5.7998,5.7998,5.7998,5.7998,5.7998,5.7998,5.7998,5.7998,5.7998,5.7998,5.7998,5.7998,5.7998,5.7998,5.7815,5.743,5.6989,5.6952,5.6798,5.6761,5.6798,5.6816,5.6659,5.6725,5.6732,5.6824,5.6945,5.6989,5.7154,5.7485,5.7576,5.7741,5.7833,5.798,5.798,5.7998,5.7998,5.7998,5.7998,5.7998,5.7998,5.7998,5.7939,5.7593,5.671,5.5098,5.3374,5.1869,5.0157,4.9819,4.9819,4.8495,4.7334,4.721,4.6433,4.5026,4.4476,4.3674,4.2615,4.2218,4.2218,4.2218,4.2218,4.2218,4.2218,4.2218,4.2218,4.2218,4.2218,4.2218,4.2218,5.798,5.7998,5.7998,5.7998,5.7998,5.7998,5.7998,5.7998,5.7998,5.7998,5.7998,5.7998,5.7998,5.7998,5.7998,5.7998,5.7998,5.7998,5.7998,5.7998,5.7998,5.7998,5.7998,5.7998,5.7998,5.7998,5.7998,5.7998,5.7998,5.7998,5.7998,5.7998,5.7998,5.7998,5.7998,5.7998,5.7998,5.7998,5.7998,5.7998,5.7998,5.7998,5.7998,5.7998,5.7998,5.7998,5.7998,5.7998,5.7998,5.7998,5.7998,5.7998,5.7998,5.7998,5.7998,5.7998,5.7998,5.7998,5.7962,5.7595,5.743,5.7374,5.7173,5.7055,5.6908,5.689,5.6963,5.7081,5.7,5.7099,5.7228,5.7411,5.7631,5.776,5.7833,5.7888,5.7962,5.7998,5.7998,5.7998,5.7998,5.7998,5.7998,5.7998,5.7998,5.7998,5.7998,5.7623,5.7068,5.6303,5.4827,5.4177,5.304,5.2767,5.2447,5.0953,5.0003,4.9972,4.9142,4.7489,4.6634,4.6261,4.4932,4.312,4.2201,4.2197,4.2201,4.2218,4.2218,4.2218,4.2218,4.2218,4.2218,4.2218,4.2218,5.7998,5.7998,5.7998,5.7998,5.7998,5.7998,5.7998,5.7998,5.7998,5.7998,5.7998,5.7998,5.7998,5.7998,5.7998,5.7998,5.7998,5.7998,5.7998,5.7998,5.7998,5.7998,5.7998,5.7998,5.7998,5.7998,5.7998,5.7998,5.7998,5.7998,5.7998,5.7998,5.7998,5.7998,5.7998,5.7998,5.7998,5.7998,5.7998,5.7998,5.7998,5.7998,5.7998,5.7998,5.7998,5.7998,5.7998,5.7998,5.7998,5.7998,5.7998,5.7998,5.7998,5.7998,5.7998,5.7998,5.7998,5.7998,5.798,5.7833,5.7815,5.7723,5.7631,5.7503,5.7576,5.7595,5.7595,5.754,5.7466,5.7613,5.7778,5.7778,5.7907,5.7907,5.7962,5.7962,5.7998,5.7998,5.7998,5.7998,5.7998,5.7998,5.7998,5.7998,5.7998,5.7998,5.7998,5.7998,5.7564,5.7593,5.683,5.683,5.6273,5.5836,5.5098,5.3585,5.2767,5.2676,5.132,4.9419,4.8865,4.8772,4.7365,4.562,4.3776,4.2193,4.2314,4.2359,4.2236,4.2218,4.2218,4.2218,4.2218,4.2218,4.2218,5.7998,5.7998,5.7998,5.7998,5.7998,5.7998,5.7998,5.7998,5.7998,5.7998,5.7998,5.7998,5.7998,5.7998,5.7998,5.7998,5.7998,5.7998,5.7998,5.7998,5.7998,5.7998,5.7998,5.7998,5.7998,5.7998,5.7998,5.7998,5.7998,5.7998,5.7998,5.7998,5.7998,5.7998,5.7998,5.7998,5.7998,5.7998,5.7998,5.7998,5.7998,5.7998,5.7998,5.7998,5.7998,5.7998,5.7998,5.7998,5.7998,5.7998,5.7998,5.7998,5.7998,5.7998,5.7998,5.7998,5.7998,5.7998,5.798,5.798,5.7943,5.7943,5.7998,5.7998,5.7998,5.7907,5.7925,5.7943,5.7998,5.7998,5.798,5.7998,5.7998,5.7998,5.7998,5.7998,5.7998,5.7998,5.7998,5.7998,5.7998,5.7998,5.7998,5.7998,5.7998,5.7998,5.7998,5.7998,5.7998,5.7998,5.7998,5.7909,5.785,5.7206,5.674,5.6214,5.5566,5.5416,5.3875,5.2112,5.1442,5.1366,4.9727,4.7739,4.4982,4.293,4.2646,4.2593,4.3097,4.2836,4.2218,4.2218,4.2218,4.2218,4.2218,5.7998,5.7998,5.7998,5.7998,5.7998,5.7998,5.7998,5.7998,5.7998,5.7998,5.7998,5.7998,5.7998,5.7998,5.7998,5.7998,5.7998,5.7998,5.7998,5.7998,5.7998,5.7998,5.7998,5.7998,5.7998,5.7998,5.7998,5.7998,5.7998,5.7998,5.7998,5.7998,5.7998,5.7998,5.7998,5.7998,5.7998,5.7998,5.7998,5.7998,5.7998,5.7998,5.7998,5.7998,5.7998,5.7998,5.7998,5.7998,5.7998,5.7998,5.7998,5.7998,5.7998,5.7998,5.7998,5.7998,5.7998,5.7998,5.7998,5.7998,5.7998,5.7998,5.7998,5.7998,5.7998,5.7998,5.7998,5.7998,5.7998,5.7998,5.7998,5.7998,5.7998,5.7998,5.7998,5.7998,5.7998,5.7998,5.7998,5.7998,5.7998,5.7998,5.7998,5.7998,5.7998,5.7998,5.7998,5.7998,5.7998,5.7998,5.7998,5.7998,5.7939,5.7969,5.7653,5.7295,5.7176,5.662,5.6889,5.5626,5.4948,5.3814,5.2524,5.0088,4.5786,4.4524,4.6992,4.6409,4.4636,4.4051,4.2994,4.2218,4.2218,4.2218,4.2218,5.7998,5.7998,5.7998,5.7998,5.7998,5.7998,5.7998,5.7998,5.7998,5.7998,5.7998,5.7998,5.7998,5.7998,5.7998,5.7998,5.7998,5.7998,5.7998,5.7998,5.7998,5.7998,5.7998,5.7998,5.7998,5.7998,5.7998,5.7998,5.7998,5.7998,5.7998,5.7998,5.7998,5.7998,5.7998,5.7998,5.7998,5.7998,5.7998,5.7998,5.7998,5.7998,5.7998,5.7998,5.7998,5.7998,5.7998,5.7998,5.7998,5.7998,5.7998,5.7998,5.7998,5.7998,5.7998,5.7998,5.7998,5.7998,5.7998,5.7998,5.7998,5.7998,5.7998,5.7998,5.7998,5.7998,5.7998,5.7998,5.7998,5.7998,5.7998,5.7998,5.7998,5.7998,5.7998,5.7998,5.7998,5.7998,5.7998,5.7998,5.7998,5.7998,5.7998,5.7998,5.7998,5.7998,5.7998,5.7998,5.7998,5.7998,5.7998,5.7998,5.7998,5.7998,5.7998,5.7712,5.782,5.785,5.7909,5.7879,5.6979,5.5866,5.5128,5.3053,4.974,5.0859,5.3861,5.1675,4.7333,4.5151,4.3957,4.2963,4.2218,4.2218,4.2218,5.7998,5.7998,5.7998,5.7998,5.7998,5.7998,5.7998,5.7998,5.7998,5.7998,5.7998,5.7998,5.7998,5.7998,5.7998,5.7998,5.7998,5.7998,5.7998,5.7998,5.7998,5.7998,5.7998,5.7998,5.7998,5.7998,5.7998,5.7998,5.7998,5.7998,5.7998,5.7998,5.7998,5.7998,5.7998,5.7998,5.7998,5.7998,5.7998,5.7998,5.7998,5.7998,5.7998,5.7998,5.7998,5.7998,5.7998,5.7998,5.7998,5.7998,5.7998,5.7998,5.7998,5.7998,5.7998,5.7998,5.7998,5.7998,5.7998,5.7998,5.7998,5.7998,5.7998,5.7998,5.7998,5.7998,5.7998,5.7998,5.7998,5.7998,5.7998,5.7998,5.7998,5.7998,5.7998,5.7998,5.7998,5.7998,5.7998,5.7998,5.7998,5.7998,5.7998,5.7998,5.7998,5.7998,5.7998,5.7998,5.7998,5.7998,5.7998,5.7998,5.7998,5.7998,5.7998,5.7998,5.7998,5.7998,5.7969,5.7939,5.7998,5.7653,5.6603,5.5656,5.4384,5.5625,5.6594,5.3263,4.9558,4.7272,4.4964,4.3831,4.2868,4.2218,4.2218,5.8117,5.8087,5.8028,5.7998,5.7998,5.7998,5.7998,5.7998,5.7998,5.7998,5.7998,5.7998,5.7998,5.7998,5.7998,5.7998,5.7998,5.7998,5.7998,5.7998,5.7998,5.7998,5.7998,5.7998,5.7998,5.7998,5.7998,5.7998,5.7998,5.7998,5.7998,5.7998,5.7998,5.7998,5.7998,5.7998,5.7998,5.7998,5.7998,5.7998,5.7998,5.7998,5.7998,5.7998,5.7998,5.7998,5.7998,5.7998,5.7998,5.7998,5.7998,5.7998,5.7998,5.7998,5.7998,5.7998,5.7998,5.7998,5.7998,5.7998,5.7998,5.7998,5.7998,5.7998,5.7998,5.7998,5.7998,5.7998,5.7998,5.7998,5.7998,5.7998,5.7998,5.7998,5.7998,5.7998,5.7998,5.7998,5.7998,5.7998,5.7998,5.7998,5.7998,5.7998,5.7998,5.7998,5.7998,5.7998,5.7998,5.7998,5.7998,5.7998,5.7998,5.7998,5.7998,5.7998,5.7998,5.7998,5.7998,5.7998,5.7998,5.7998,5.7998,5.7009,5.6154,5.6908,5.7003,5.3981,5.1122,4.8294,4.623,4.4821,4.3736,4.271,4.2218,5.9077,5.8651,5.8206,5.7998,5.7998,5.7998,5.7998,5.7998,5.7998,5.7998,5.7998,5.7998,5.7998,5.7998,5.7998,5.7998,5.7998,5.7998,5.7998,5.7998,5.7998,5.7998,5.7998,5.7998,5.7998,5.7998,5.7998,5.7998,5.7998,5.7998,5.7998,5.7998,5.7998,5.7998,5.7998,5.7998,5.7998,5.7998,5.7998,5.7998,5.7998,5.7998,5.7998,5.7998,5.7998,5.7998,5.7998,5.7998,5.7998,5.7998,5.7998,5.7998,5.7998,5.7998,5.7998,5.7998,5.7998,5.7998,5.7998,5.7998,5.7998,5.7998,5.7998,5.7998,5.7998,5.7998,5.7998,5.7998,5.7998,5.7998,5.7998,5.7998,5.7998,5.7998,5.7998,5.7998,5.7998,5.7998,5.7998,5.7998,5.7998,5.7998,5.7998,5.7998,5.7998,5.7998,5.7998,5.7998,5.7998,5.7998,5.7998,5.7998,5.7998,5.7998,5.7998,5.7998,5.7998,5.7998,5.7998,5.7998,5.7998,5.7998,5.7998,5.7998,5.7767,5.8003,5.7345,5.5444,5.2554,4.9896,4.8139,4.7007,4.4665,4.3246,4.2629,5.9195,5.8859,5.8266,5.7998,5.7998,5.7998,5.7998,5.7998,5.7998,5.7998,5.7998,5.7998,5.7998,5.7998,5.7998,5.7998,5.7998,5.7998,5.7998,5.7998,5.7998,5.7998,5.7998,5.7998,5.7998,5.7998,5.7998,5.7998,5.7998,5.7998,5.7998,5.7998,5.7998,5.7998,5.7998,5.7998,5.7998,5.7998,5.7998,5.7998,5.7998,5.7998,5.7998,5.7998,5.7998,5.7998,5.7998,5.7998,5.7998,5.7998,5.7998,5.7998,5.7998,5.7998,5.7998,5.7998,5.7998,5.7998,5.7998,5.7998,5.7998,5.7998,5.7998,5.7998,5.7998,5.7998,5.7998,5.7998,5.7998,5.7998,5.7998,5.7998,5.7998,5.7998,5.7998,5.7998,5.7998,5.7998,5.7998,5.7998,5.7998,5.7998,5.7998,5.7998,5.7998,5.7998,5.7998,5.7998,5.7998,5.7998,5.7998,5.7998,5.7998,5.7998,5.7998,5.7998,5.7998,5.7998,5.7998,5.7998,5.7998,5.7998,5.7998,5.7998,5.7998,5.7987,5.7087,5.6016,5.4707,5.2433,5.0785,4.9373,4.679,4.4476,4.432,5.9077,5.881,5.8247,5.7998,5.7998,5.7998,5.7998,5.7998,5.7998,5.7998,5.7998,5.7998,5.7998,5.7998,5.7998,5.7998,5.7998,5.7998,5.7998,5.7998,5.7998,5.7998,5.7998,5.7998,5.7998,5.7998,5.7998,5.7998,5.7998,5.7998,5.7998,5.7998,5.7998,5.7998,5.7998,5.7998,5.7998,5.7998,5.7998,5.7998,5.7998,5.7998,5.7998,5.7998,5.7998,5.7998,5.7998,5.7998,5.7998,5.7998,5.7998,5.7998,5.7998,5.7998,5.7998,5.7998,5.7998,5.7998,5.7998,5.7998,5.7998,5.7998,5.7998,5.7998,5.7998,5.7998,5.7998,5.7998,5.7998,5.7998,5.7998,5.7998,5.7998,5.7998,5.7998,5.7998,5.7998,5.7998,5.7998,5.7998,5.7998,5.7998,5.7998,5.7998,5.7998,5.7998,5.7998,5.7998,5.7998,5.7998,5.7998,5.7998,5.7998,5.7998,5.7998,5.7998,5.7998,5.7998,5.7998,5.7998,5.7998,5.7998,5.7998,5.7998,5.7998,5.7998,5.7998,5.7355,5.5944,5.4297,5.2919,5.1214,4.9265,4.7334,4.6883,5.9814,5.8859,5.8266,5.7998,5.8028,5.7998,5.7998,5.7998,5.8028,5.7998,5.8087,5.8028,5.7998,5.7998,5.7998,5.7998,5.7998,5.7998,5.7998,5.7998,5.7998,5.7998,5.7998,5.7998,5.7998,5.7998,5.7998,5.7998,5.7998,5.7998,5.7998,5.7998,5.7998,5.7998,5.7998,5.7998,5.7998,5.7998,5.7998,5.7998,5.7998,5.7998,5.7998,5.7998,5.7998,5.7998,5.7998,5.7998,5.7998,5.7998,5.7998,5.7998,5.7998,5.7998,5.7998,5.7998,5.7998,5.7998,5.7998,5.7998,5.7998,5.7998,5.7998,5.7998,5.7998,5.7998,5.7998,5.7998,5.7998,5.7998,5.7998,5.7998,5.7998,5.7998,5.7998,5.7998,5.7998,5.7998,5.7998,5.7998,5.7998,5.7998,5.7998,5.7998,5.7998,5.7998,5.7998,5.7998,5.7998,5.7998,5.7998,5.7998,5.7998,5.7998,5.7998,5.7998,5.7998,5.7998,5.7998,5.7998,5.7998,5.7998,5.7998,5.7998,5.7998,5.7998,5.7998,5.7998,5.677,5.5206,5.4315,5.2919,5.1258,5.0095,4.9542]}]]